[[{"header":{"parameterUnit":"m.s-1","parameterCategory":1,"la1":30.6,"la2":28.766,"lo1":-90.7593,"lo2":-88.6598,"dy":0.0162,"dx":0.0183,"nx":116,"ny":114,"refTime":"2024-03-02T06:00:00:Z","depth":0,"parameterNumber":2,"parameterNumberName":"U-component_of_WINDS"},"data":[0.0,0.0,0.0,0.0,0.0,0.0,0.0,0.0,0.0,0.0,0.0,0.0,0.0,0.0,0.0,0.0,0.0,0.0,0.0,0.0,0.0,0.0,0.0,0.0,0.0,0.0,0.0,0.0,0.0,0.0,0.0,0.0,0.0,0.0,0.0,0.0,0.0,0.0,0.0,0.0,0.0,0.0,0.0,0.0,0.0,0.0,0.0,0.0,0.0,0.0,0.0,0.0,0.0,0.0,0.0,0.0,0.0,0.0,0.0,0.0,0.0,0.0,0.0,0.0,0.0,0.0,0.0,0.0,0.0,0.0,0.0,0.0,0.0,0.0,0.0,0.0,0.0,0.0,0.0,0.0,0.0,0.0,0.0,0.0,0.0,0.0,0.0,0.0,0.0,0.0,0.0,0.0,0.0,0.0,0.0,0.0,0.0,0.0,0.0,0.0,0.0,0.0,0.0,0.0,0.0,0.0,0.0,0.0,0.0,0.0,0.0,0.0,0.0,0.0,0.0,0.0,0.0,0.0,0.0,0.0,0.0,0.0,0.0,0.0,0.0,0.0,0.0,0.0,0.0,0.0,0.0,0.0,0.0,0.0,0.0,0.0,0.0,0.0,0.0,0.0,0.0,0.0,0.0,0.0,0.0,0.0,0.0,0.0,0.0,0.0,0.0,0.0,0.0,0.0,0.0,0.0,0.0,0.0,0.0,0.0,0.0,0.0,0.0,0.0,0.0,0.0,0.0,0.0,0.0,0.0,0.0,0.0,0.0,0.0,0.0,0.0,0.0,0.0,0.0,0.0,0.0,0.0,0.0,0.0,0.0,0.0,0.0,0.0,0.0,0.0,0.0,0.0,0.0,0.0,0.0,0.0,0.0,0.0,0.0,0.0,0.0,0.0,0.0,0.0,0.0,0.0,0.0,0.0,0.0,0.0,0.0,0.0,0.0,0.0,0.0,0.0,0.0,0.0,0.0,0.0,0.0,0.0,0.0,0.0,0.0,0.0,0.0,0.0,0.0,0.0,0.0,0.0,0.0,0.0,0.0,0.0,0.0,0.0,0.0,0.0,0.0,0.0,0.0,0.0,0.0,0.0,0.0,0.0,0.0,0.0,0.0,0.0,0.0,0.0,0.0,0.0,0.0,0.0,0.0,0.0,0.0,0.0,0.0,0.0,0.0,0.0,0.0,0.0,0.0,0.0,0.0,0.0,0.0,0.0,0.0,0.0,0.0,0.0,0.0,0.0,0.0,0.0,0.0,0.0,0.0,0.0,0.0,0.0,0.0,0.0,0.0,0.0,0.0,0.0,0.0,0.0,0.0,0.0,0.0,0.0,0.0,0.0,0.0,0.0,0.0,0.0,0.0,0.0,0.0,0.0,0.0,0.0,0.0,0.0,0.0,0.0,0.0,0.0,0.0,0.0,0.0,0.0,0.0,0.0,0.0,0.0,0.0,0.0,0.0,0.0,0.0,0.0,0.0,0.0,0.0,0.0,0.0,0.0,0.0,0.0,0.0,0.0,0.0,0.0,0.0,0.0,0.0,0.0,0.0,0.0,0.0,0.0,0.0,0.0,0.0,0.0,0.0,0.0,0.0,0.0,0.0,0.0,0.0,0.0,0.0,0.0,0.0,0.0,0.0,0.0,0.0,0.0,0.0,0.0,0.0,0.0,0.0,0.0,0.0,0.0,0.0,0.0,0.0,0.0,0.0,0.0,0.0,0.0,0.0,0.0,0.0,0.0,0.0,0.0,0.0,0.0,0.0,0.0,0.0,0.0,0.0,0.0,0.0,0.0,0.0,0.0,0.0,0.0,0.0,0.0,0.0,0.0,0.0,0.0,0.0,0.0,0.0,0.0,0.0,0.0,0.0,0.0,0.0,0.0,0.0,0.0,0.0,0.0,0.0,0.0,0.0,0.0,0.0,0.0,0.0,0.0,0.0,0.0,0.0,0.0,0.0,0.0,0.0,0.0,0.0,0.0,0.0,0.0,0.0,0.0,0.0,0.0,0.0,0.0,0.0,0.0,0.0,0.0,0.0,0.0,0.0,0.0,0.0,0.0,0.0,0.0,0.0,0.0,0.0,0.0,0.0,0.0,0.0,0.0,0.0,0.0,0.0,0.0,0.0,0.0,0.0,0.0,0.0,0.0,0.0,0.0,0.0,0.0,0.0,0.0,0.0,0.0,0.0,0.0,0.0,0.0,0.0,0.0,0.0,0.0,0.0,0.0,0.0,0.0,0.0,0.0,0.0,0.0,0.0,0.0,0.0,0.0,0.0,0.0,0.0,0.0,0.0,0.0,0.0,0.0,0.0,0.0,0.0,0.0,0.0,0.0,0.0,0.0,0.0,0.0,0.0,0.0,0.0,0.0,0.0,0.0,0.0,0.0,0.0,0.0,0.0,0.0,0.0,0.0,0.0,0.0,0.0,0.0,0.0,0.0,0.0,0.0,0.0,0.0,0.0,0.0,0.0,0.0,0.0,0.0,0.0,0.0,0.0,0.0,0.0,0.0,0.0,0.0,0.0,0.0,0.0,0.0,0.0,0.0,0.0,0.0,0.0,0.0,0.0,0.0,0.0,0.0,0.0,0.0,0.0,0.0,0.0,0.0,0.0,0.0,0.0,0.0,0.0,0.0,0.0,0.0,0.0,0.0,0.0,0.0,0.0,0.0,0.0,0.0,0.0,0.0,0.0,0.0,0.0,0.0,0.0,0.0,0.0,0.0,0.0,0.0,0.0,0.0,0.0,0.0,0.0,0.0,0.0,0.0,0.0,0.0,0.0,0.0,0.0,0.0,0.0,0.0,0.0,0.0,0.0,0.0,0.0,0.0,0.0,0.0,0.0,0.0,0.0,0.0,0.0,0.0,0.0,0.0,0.0,0.0,0.0,0.0,0.0,0.0,0.0,0.0,0.0,0.0,0.0,0.0,0.0,0.0,0.0,0.0,0.0,0.0,0.0,0.0,0.0,0.0,0.0,0.0,0.0,0.0,0.0,0.0,0.0,0.0,0.0,0.0,0.0,0.0,0.0,0.0,0.0,0.0,0.0,0.0,0.0,0.0,0.0,0.0,0.0,0.0,0.0,0.0,0.0,0.0,0.0,0.0,0.0,0.0,0.0,0.0,0.0,0.0,0.0,0.0,0.0,0.0,0.0,0.0,0.0,0.0,0.0,0.0,0.0,0.0,0.0,0.0,0.0,0.0,0.0,0.0,0.0,0.0,0.0,0.0,0.0,0.0,0.0,0.0,0.0,0.0,0.0,0.0,0.0,0.0,0.0,0.0,0.0,0.0,0.0,0.0,0.0,0.0,0.0,0.0,0.0,0.0,0.0,0.0,0.0,0.0,0.0,0.0,0.0,0.0,0.0,0.0,0.0,0.0,0.0,0.0,0.0,0.0,0.0,0.0,0.0,0.0,0.0,0.0,0.0,0.0,0.0,0.0,0.0,0.0,0.0,0.0,0.0,0.0,0.0,0.0,0.0,0.0,0.0,0.0,0.0,0.0,0.0,0.0,0.0,0.0,0.0,0.0,0.0,0.0,0.0,0.0,0.0,0.0,0.0,0.0,0.0,0.0,0.0,0.0,0.0,0.0,0.0,0.0,0.0,0.0,0.0,0.0,0.0,0.0,0.0,0.0,0.0,0.0,0.0,0.0,0.0,0.0,0.0,0.0,0.0,0.0,0.0,0.0,0.0,0.0,0.0,0.0,0.0,0.0,0.0,0.0,0.0,0.0,0.0,0.0,0.0,0.0,0.0,0.0,0.0,0.0,0.0,0.0,0.0,0.0,0.0,0.0,0.0,0.0,0.0,0.0,0.0,0.0,0.0,0.0,0.0,0.0,0.0,0.0,0.0,0.0,0.0,0.0,0.0,0.0,0.0,0.0,0.0,0.0,0.0,0.0,0.0,0.0,0.0,0.0,0.0,0.0,0.0,0.0,0.0,0.0,0.0,0.0,0.0,0.0,0.0,0.0,0.0,0.0,0.0,0.0,0.0,0.0,0.0,0.0,0.0,0.0,0.0,0.0,0.0,0.0,0.0,0.0,0.0,0.0,0.0,0.0,0.0,0.0,0.0,0.0,0.0,0.0,0.0,0.0,0.0,0.0,0.0,0.0,0.0,0.0,0.0,0.0,0.0,0.0,0.0,0.0,0.0,0.0,0.0,0.0,0.0,0.0,0.0,0.0,0.0,0.0,0.0,0.0,0.0,0.0,0.0,0.0,0.0,0.0,0.0,0.0,0.0,0.0,0.0,0.0,0.0,0.0,0.0,0.0,0.0,0.0,0.0,0.0,0.0,0.0,0.0,0.0,0.0,0.0,0.0,0.0,0.0,0.0,0.0,0.0,0.0,0.0,0.0,0.0,0.0,0.0,0.0,0.0,0.0,0.0,0.0,0.0,0.0,0.0,0.0,0.0,0.0,0.0,0.0,0.0,0.0,0.0,0.0,0.0,0.0,0.0,0.0,0.0,0.0,0.0,0.0,0.0,0.0,0.0,0.0,0.0,0.0,0.0,0.0,0.0,0.0,0.0,0.0,0.0,0.0,0.0,0.0,0.0,0.0,0.0,0.0,0.0,0.0,0.0,0.0,0.0,0.0,0.0,0.0,0.0,0.0,0.0,0.0,0.0,0.0,0.0,0.0,0.0,0.0,0.0,0.0,0.0,0.0,0.0,0.0,0.0,0.0,0.0,0.0,0.0,0.0,0.0,0.0,0.0,0.0,0.0,0.0,0.0,0.0,0.0,0.0,0.0,0.0,0.0,0.0,0.0,0.0,0.0,0.0,0.0,0.0,0.0,0.0,0.0,0.0,0.0,0.0,0.0,0.0,0.0,0.0,0.0,0.0,0.0,0.0,0.0,0.0,0.0,0.0,0.0,0.0,0.0,0.0,0.0,0.0,0.0,0.0,0.0,0.0,0.0,0.0,0.0,0.0,0.0,0.0,0.0,0.0,0.0,0.0,0.0,0.0,0.0,0.0,0.0,0.0,0.0,0.0,0.0,0.0,0.0,0.0,0.0,0.0,0.0,0.0,0.0,0.0,0.0,0.0,0.0,0.0,0.0,0.0,0.0,0.0,0.0,0.0,0.0,0.0,0.0,0.0,0.0,0.0,0.0,0.0,0.0,0.0,0.0,0.0,0.0,0.0,0.0,0.0,0.0,0.0,0.0,0.0,0.0,0.0,0.0,0.0,0.0,0.0,0.0,0.0,0.0,0.0,0.0,0.0,0.0,0.0,0.0,0.0,0.0,0.0,0.0,0.0,0.0,0.0,0.0,0.0,0.0,0.0,0.0,0.0,0.0,0.0,0.0,0.0,0.0,0.0,0.0,0.0,0.0,0.0,0.0,0.0,0.0,0.0,0.0,0.0,0.0,0.0,0.0,0.0,0.0,0.0,0.0,0.0,0.0,0.0,0.0,0.0,0.0,0.0,0.0,0.0,0.0,0.0,0.0,0.0,0.0,0.0,0.0,0.0,0.0,0.0,0.0,0.0,0.0,0.0,0.0,0.0,0.0,0.0,0.0,0.0,0.0,0.0,0.0,0.0,0.0,0.0,0.0,0.0,0.0,0.0,0.0,0.0,0.0,0.0,0.0,0.0,0.0,0.0,0.0,0.0,0.0,0.0,0.0,0.0,0.0,0.0,0.0,0.0,0.0,0.0,0.0,0.0,0.0,0.0,0.0,0.0,0.0,0.0,0.0,0.0,0.0,0.0,0.0,0.0,0.0,0.0,0.0,0.0,0.0,0.0,0.0,0.0,0.0,0.0,0.0,0.0,0.0,0.0,0.0,0.0,0.0,0.0,0.0,0.0,0.0,0.0,0.0,0.0,0.0,0.0,0.0,0.0,0.0,0.0,0.0,0.0,0.0,0.0,0.0,0.0,0.0,0.0,0.0,0.0,0.0,0.0,0.0,0.0,0.0,0.0,0.0,0.0,0.0,0.0,0.0,0.0,0.0,0.0,0.0,0.0,0.0,0.0,0.0,0.0,0.0,0.0,0.0,0.0,0.0,0.0,0.0,0.0,0.0,0.0,0.0,0.0,0.0,0.0,0.0,0.0,0.0,0.0,0.0,0.0,0.0,0.0,0.0,0.0,0.0,0.0,0.0,0.0,0.0,2.2213,0.0,0.0,0.0,0.0,0.0,0.0,0.0,0.0,0.0,0.0,0.0,0.0,0.0,0.0,0.0,0.0,0.0,0.0,0.0,0.0,0.0,0.0,0.0,0.0,0.0,0.0,0.0,0.0,0.0,0.0,0.0,0.0,0.0,0.0,0.0,2.0575,2.0492,2.0776,2.147,2.1595,2.2092,2.2925,2.2658,2.2622,2.2756,0.0,0.0,0.0,0.0,0.0,0.0,0.0,0.0,0.0,0.0,0.0,0.0,0.0,0.0,0.0,0.0,0.0,0.0,0.0,0.0,0.0,0.0,0.0,0.0,0.0,0.0,0.0,0.0,0.0,0.0,0.0,0.0,0.0,0.0,0.0,0.0,0.0,0.0,0.0,0.0,0.0,0.0,0.0,0.0,0.0,0.0,0.0,0.0,0.0,0.0,0.0,0.0,0.0,0.0,0.0,0.0,0.0,0.0,0.0,0.0,0.0,0.0,0.0,0.0,0.0,0.0,0.0,0.0,0.0,0.0,0.0,2.2696,0.0,0.0,0.0,0.0,0.0,0.0,0.0,0.0,0.0,0.0,0.0,0.0,0.0,0.0,0.0,0.0,0.0,0.0,0.0,0.0,0.0,0.0,0.0,2.045,2.0344,2.0253,2.025,2.0233,0.0,0.0,0.0,0.0,2.0255,2.0498,2.1073,2.0933,2.1324,2.2256,2.2221,2.2775,2.3821,2.4033,2.373,2.3064,2.3093,0.0,0.0,0.0,0.0,0.0,0.0,0.0,0.0,0.0,0.0,0.0,0.0,0.0,0.0,0.0,0.0,0.0,0.0,0.0,0.0,0.0,0.0,0.0,0.0,0.0,0.0,0.0,0.0,0.0,0.0,0.0,0.0,0.0,0.0,0.0,0.0,0.0,0.0,0.0,0.0,0.0,0.0,0.0,0.0,0.0,0.0,0.0,0.0,0.0,0.0,0.0,0.0,0.0,0.0,0.0,0.0,0.0,0.0,0.0,0.0,0.0,0.0,0.0,0.0,0.0,2.2167,2.1854,2.1547,2.1303,2.2669,2.2917,2.2455,0.0,0.0,0.0,0.0,0.0,0.0,0.0,0.0,0.0,0.0,0.0,0.0,0.0,0.0,0.0,0.0,0.0,0.0,0.0,0.0,0.0,0.0,2.0314,2.0242,2.0059,2.004,2.0079,2.0184,2.0219,2.0192,2.015,2.0719,2.0941,2.067,2.147,2.2212,2.2881,2.3852,2.4444,2.4731,2.4639,2.4577,2.4536,2.4705,2.4823,2.4894,0.0,0.0,0.0,0.0,0.0,0.0,0.0,0.0,0.0,0.0,0.0,0.0,0.0,0.0,0.0,0.0,0.0,0.0,0.0,0.0,0.0,0.0,0.0,0.0,0.0,0.0,0.0,0.0,0.0,0.0,0.0,0.0,0.0,0.0,0.0,0.0,0.0,0.0,0.0,0.0,0.0,2.2555,2.1716,0.0,0.0,0.0,0.0,0.0,0.0,0.0,0.0,0.0,0.0,0.0,0.0,0.0,0.0,2.0955,2.0921,2.1064,2.1426,2.17,2.2178,2.2805,2.3283,2.3453,2.3383,2.3637,0.0,2.2525,2.3239,0.0,0.0,0.0,0.0,0.0,0.0,0.0,0.0,0.0,0.0,0.0,0.0,0.0,0.0,0.0,0.0,0.0,0.0,0.0,0.0,0.0,2.0282,2.0218,2.0126,2.0108,2.0317,2.0831,2.0795,2.0948,2.1367,2.1482,2.1666,2.1937,2.2386,2.3029,2.3903,2.4404,2.4666,2.4746,2.462,2.4604,2.4636,2.4799,2.4994,2.5201,2.525,0.0,0.0,0.0,0.0,0.0,0.0,0.0,0.0,0.0,0.0,0.0,0.0,0.0,0.0,0.0,0.0,0.0,0.0,0.0,0.0,0.0,0.0,0.0,0.0,0.0,0.0,0.0,0.0,0.0,0.0,0.0,0.0,0.0,0.0,0.0,0.0,0.0,0.0,0.0,2.2768,2.2373,2.1694,2.1898,2.2085,0.0,0.0,0.0,0.0,0.0,0.0,0.0,0.0,0.0,2.1163,2.133,2.1155,2.0707,2.1013,2.1349,2.1735,2.1657,2.1935,2.2466,2.2466,2.2328,2.2081,2.2634,2.2476,2.1993,2.32,2.3952,2.4261,0.0,0.0,0.0,0.0,0.0,2.3696,0.0,0.0,0.0,0.0,0.0,0.0,0.0,0.0,0.0,0.0,0.0,0.0,2.0308,2.0169,2.0107,2.0125,2.0117,2.048,2.134,2.128,2.1529,2.231,2.2208,2.2401,2.294,2.3197,2.3725,2.4524,2.4556,2.4575,2.4526,2.4458,2.4407,2.4391,2.4561,2.479,2.508,2.5236,2.5318,2.5379,0.0,0.0,0.0,0.0,0.0,0.0,0.0,0.0,0.0,0.0,0.0,0.0,0.0,0.0,0.0,0.0,0.0,0.0,0.0,0.0,0.0,0.0,0.0,0.0,0.0,0.0,0.0,0.0,0.0,0.0,0.0,0.0,0.0,0.0,0.0,0.0,0.0,2.2426,2.1977,2.1475,2.1485,2.1661,0.0,0.0,0.0,0.0,0.0,0.0,2.2363,2.1943,2.151,2.1055,2.1231,2.1135,2.0718,2.1192,2.1602,2.1908,2.1684,2.1684,2.1908,2.1684,2.141,2.1118,2.1813,2.1908,2.1684,2.2875,2.3493,2.3709,2.358,2.3623,0.0,2.3608,2.358,2.3465,0.0,0.0,0.0,0.0,0.0,0.0,0.0,0.0,0.0,0.0,0.0,2.0088,2.0023,1.9896,1.9859,1.9899,1.9918,2.0333,2.1321,2.127,2.1498,2.2184,2.2741,2.2957,2.2812,2.375,2.4263,2.4318,2.4508,2.4493,2.4303,2.4248,2.4173,2.4135,2.4319,2.4526,2.4738,2.4936,2.512,2.5302,2.5313,0.0,0.0,0.0,0.0,0.0,0.0,0.0,0.0,0.0,0.0,0.0,0.0,0.0,0.0,0.0,0.0,0.0,0.0,0.0,0.0,0.0,0.0,0.0,0.0,0.0,0.0,0.0,0.0,0.0,0.0,0.0,0.0,0.0,0.0,0.0,0.0,0.0,0.0,2.073,2.1331,0.0,0.0,0.0,0.0,2.2778,2.2493,2.2293,2.2194,2.1887,2.1575,2.1397,2.1403,2.1369,2.1369,2.1396,2.1423,2.1458,2.186,2.186,2.1458,2.186,2.2035,2.2035,2.2081,2.2081,2.2081,2.2128,2.2175,2.2253,2.2667,2.2591,2.23,2.3201,2.3274,2.2979,0.0,0.0,0.0,0.0,0.0,0.0,0.0,0.0,2.0423,2.0372,2.018,2.0015,1.9936,1.9886,1.9863,1.9888,2.0494,2.1233,2.2105,2.2413,2.29,2.3701,2.3692,2.3713,2.3768,2.4117,2.4318,2.4353,2.4441,2.4597,2.4882,2.4641,2.4577,2.4663,2.4652,2.4538,2.4338,2.4757,2.504,2.5189,2.5279,2.5461,0.0,0.0,0.0,0.0,0.0,0.0,0.0,0.0,0.0,0.0,0.0,0.0,0.0,0.0,0.0,0.0,0.0,0.0,0.0,0.0,0.0,0.0,0.0,0.0,0.0,0.0,0.0,0.0,0.0,0.0,0.0,0.0,0.0,0.0,0.0,0.0,0.0,2.1395,2.1424,0.0,2.2071,2.2301,2.2604,2.308,2.2843,2.2684,2.2644,2.2304,2.2087,2.2095,2.1955,2.2002,2.2388,2.1746,2.1554,2.186,2.1396,2.1264,2.1423,2.1541,2.1492,2.1215,2.186,2.1908,2.1684,2.2002,2.2314,2.2649,2.3128,2.3216,2.3084,2.3128,2.3009,2.2889,0.0,0.0,0.0,0.0,0.0,0.0,0.0,0.0,2.0423,2.0372,2.0109,1.9934,1.9926,1.9828,1.9922,2.0304,2.0942,2.1803,2.2909,2.321,2.3677,2.4505,2.4229,2.4134,2.4229,2.4247,2.4413,2.4746,2.4746,2.5058,2.564,2.5257,2.5188,2.5298,2.5231,2.4864,2.4299,2.482,2.5061,2.5106,2.5199,2.5422,2.5703,0.0,0.0,0.0,0.0,0.0,0.0,0.0,0.0,0.0,0.0,0.0,0.0,0.0,0.0,0.0,0.0,0.0,0.0,0.0,0.0,0.0,0.0,0.0,0.0,0.0,0.0,0.0,0.0,0.0,0.0,0.0,0.0,0.0,0.0,0.0,2.0797,2.1476,2.1564,2.1732,2.2228,2.2465,2.2768,2.3258,2.2908,2.274,2.2844,2.2558,2.2374,2.2374,2.2175,2.2267,2.2649,2.1827,2.1636,2.2081,2.1492,2.1361,2.1636,2.1636,2.1458,2.1215,2.1813,2.1908,2.1684,2.2189,2.2558,2.2934,2.3054,2.3009,2.2875,2.2889,2.2799,2.2558,0.0,0.0,0.0,0.0,0.0,0.0,0.0,2.0547,2.0501,2.0481,2.0095,1.984,1.9967,1.9696,1.9956,2.1111,2.1229,2.195,2.3607,2.354,2.3733,2.4371,2.4266,2.417,2.4094,2.4189,2.4612,2.5403,2.5439,2.5803,2.6527,2.6116,2.5924,2.5936,2.6009,2.5506,2.467,2.5154,2.5262,2.5122,2.5101,2.534,2.5703,0.0,0.0,0.0,0.0,0.0,0.0,0.0,0.0,0.0,0.0,0.0,0.0,0.0,0.0,0.0,0.0,0.0,0.0,0.0,0.0,0.0,0.0,0.0,0.0,0.0,0.0,0.0,0.0,0.0,0.0,0.0,0.0,0.0,2.0376,2.0718,2.0988,2.0951,2.1691,2.2245,2.2289,2.2907,2.3319,2.3319,2.2694,2.242,2.2649,2.2558,2.236,2.2081,2.2081,2.2081,2.2081,2.1636,2.1636,2.2081,2.2081,2.2081,2.2035,2.2081,2.2081,2.2035,2.2081,2.2081,2.2128,2.2694,2.2934,2.2889,2.236,2.186,2.1602,2.2526,2.2558,2.2081,0.0,0.0,0.0,0.0,0.0,0.0,2.0593,2.0547,2.0432,2.0231,1.9969,1.9762,1.9656,1.9638,2.0026,2.0973,2.1764,2.2672,2.3767,2.4157,2.4321,2.4247,2.4302,2.4284,2.417,2.4759,2.5182,2.5403,2.597,2.6643,2.7364,2.6799,2.6665,2.6828,2.6543,2.6116,2.5589,2.6145,2.6127,2.5706,2.512,2.5218,2.5703,0.0,0.0,0.0,0.0,0.0,0.0,0.0,0.0,0.0,0.0,0.0,0.0,0.0,0.0,0.0,0.0,0.0,0.0,0.0,0.0,0.0,0.0,0.0,0.0,0.0,0.0,0.0,0.0,0.0,0.0,0.0,0.0,2.0939,2.1015,2.1034,2.1183,2.1441,2.212,2.2569,2.2584,2.3025,2.3319,2.3319,2.2934,2.2649,2.242,2.2049,2.1874,2.1874,2.1684,2.1779,2.2081,2.1636,2.1458,2.1589,2.1589,2.141,2.1082,2.1458,2.141,2.1118,2.1813,2.2081,2.2175,2.3054,2.3421,2.3377,2.3231,2.3098,2.292,2.2498,2.2002,2.1589,0.0,0.0,0.0,0.0,0.0,0.0,2.0593,2.0547,2.0412,2.0212,1.9969,1.9762,1.9642,1.9925,2.0519,2.1507,2.2493,2.3419,2.4257,2.4559,2.4613,2.4429,2.4391,2.4522,2.4783,2.5203,2.5733,2.6413,2.6869,2.749,2.8233,2.76,2.7442,2.7669,2.7307,2.6881,2.644,2.7071,2.7047,2.6559,2.6192,2.5913,2.5703,2.5703,2.5703,2.5681,2.5564,2.56,2.5663,2.5402,0.0,0.0,0.0,0.0,0.0,0.0,0.0,0.0,0.0,0.0,0.0,0.0,0.0,0.0,0.0,0.0,0.0,0.0,0.0,0.0,0.0,0.0,0.0,0.0,2.1139,2.1175,2.1092,2.1178,2.1365,2.173,2.2343,2.2694,2.2694,2.2889,2.3038,2.3038,2.2663,2.2388,2.2314,2.1921,2.1698,2.1793,2.1568,2.1554,2.1813,2.1361,2.1229,2.1423,2.1589,2.1541,2.1299,2.1779,2.1779,0.0,2.1846,2.2081,2.2175,2.2965,2.329,0.0,0.0,0.0,0.0,0.0,2.1908,2.1684,0.0,0.0,0.0,0.0,0.0,0.0,2.0591,2.0547,2.046,2.0321,2.0012,1.9812,1.9773,2.032,2.1148,2.2256,2.3183,2.4049,2.4818,2.4779,2.4707,2.4645,2.4603,2.489,2.556,2.5648,2.6376,2.7787,2.7879,2.8301,2.8994,2.8352,2.8201,2.842,2.8102,2.7719,2.7345,2.8017,2.8013,2.7604,2.7902,2.7136,2.5859,2.5859,2.5781,2.567,2.5402,2.5469,2.5616,2.5001,0.0,0.0,0.0,0.0,0.0,0.0,0.0,0.0,0.0,0.0,0.0,0.0,0.0,0.0,0.0,0.0,0.0,0.0,0.0,0.0,0.0,0.0,0.0,0.0,2.1062,2.1369,2.0845,2.1215,2.1602,2.1813,2.236,2.2649,2.2558,2.2694,2.2785,2.2663,2.2203,2.2016,2.2235,0.0,0.0,0.0,0.0,2.1326,2.1326,2.0898,2.0898,2.1326,2.1813,2.1988,2.1941,2.2466,2.2466,2.2035,2.2035,2.2035,2.2128,2.2694,2.2889,2.2934,2.3377,2.3201,2.2663,2.2189,2.1988,0.0,0.0,0.0,0.0,0.0,0.0,0.0,2.0591,2.0597,2.0508,2.0324,2.0097,1.989,1.9663,2.0268,2.1079,2.2006,2.3078,2.3996,2.4678,2.4823,2.4685,2.4303,2.5128,2.5557,2.5444,2.667,2.7475,2.7787,2.8448,2.8847,2.8994,2.8669,2.8507,2.8576,2.8422,2.8452,2.8587,2.9221,2.918,2.871,2.9101,2.824,2.6749,2.6757,2.6309,2.567,2.5402,2.5485,2.5614,2.4993,2.5056,2.5355,2.5229,2.529,0.0,0.0,0.0,0.0,0.0,0.0,0.0,0.0,0.0,0.0,0.0,0.0,0.0,0.0,0.0,0.0,0.0,0.0,0.0,2.1184,2.1097,2.0993,2.066,2.1444,2.1902,2.1554,2.2189,2.242,2.1746,2.283,2.3216,2.2356,2.2526,2.248,2.1935,2.165,0.0,2.118,2.1082,2.0997,2.0848,2.0749,2.0749,2.0848,0.0,0.0,2.0983,2.1458,2.165,2.1554,2.1554,2.1732,2.2128,2.2694,2.2889,2.2889,2.2979,2.2466,2.1698,2.1554,2.1313,2.1033,0.0,0.0,0.0,0.0,0.0,0.0,2.0591,2.0563,2.0444,2.0176,2.0011,1.9793,1.9488,2.0537,2.1454,2.1956,2.3341,2.4331,2.467,2.4632,2.4655,2.4801,2.5151,2.566,2.6289,2.7146,2.7807,2.819,2.8591,2.8791,2.8791,2.8482,2.843,2.8601,2.8714,2.892,2.9229,2.9836,2.9954,2.9726,3.0098,2.921,2.7602,2.7161,2.6356,2.5408,2.5145,2.5226,2.5397,2.4754,2.4966,2.5485,2.5249,2.5337,2.5449,0.0,0.0,0.0,0.0,0.0,0.0,0.0,0.0,0.0,0.0,0.0,0.0,0.0,0.0,2.2808,2.1813,0.0,2.1403,2.086,2.0841,2.0894,2.1006,2.1458,2.1841,2.2016,2.2296,2.2342,2.2063,2.2618,2.2768,2.2217,2.2402,2.2402,2.2044,2.1746,2.1568,2.1423,2.1277,2.1131,2.1033,2.0947,2.0848,2.0848,2.1229,2.1131,2.0699,2.118,2.1277,2.1033,2.1277,2.1554,2.1827,2.2558,2.2889,2.2889,2.2603,2.2374,2.2109,2.1874,2.1589,2.1348,0.0,0.0,0.0,0.0,0.0,0.0,0.0,2.0546,2.041,2.0106,1.9931,1.9722,1.9388,2.0823,2.1981,2.2439,2.3731,2.4561,2.4626,2.4403,2.4542,2.5134,2.5129,2.571,2.6983,2.7362,2.785,2.8507,2.8507,2.8551,2.8601,2.8334,2.836,2.87,2.8962,2.9281,2.9612,3.0171,3.0384,3.0364,3.0759,2.9822,2.8179,2.7686,2.6548,2.5168,2.4911,2.5064,2.5324,2.466,2.5142,2.5976,2.5687,2.5848,2.5998,2.537,2.584,0.0,0.0,0.0,0.0,0.0,0.0,0.0,0.0,2.3622,2.3365,2.1906,2.2232,2.238,2.1068,2.0982,2.093,2.0245,2.051,2.0894,2.1215,2.141,2.1793,2.2388,2.2217,2.217,2.242,2.2356,2.2278,2.2217,2.2263,2.2278,2.2184,2.1996,2.1841,2.1793,2.1616,2.1471,2.1423,2.118,2.1082,2.1082,2.1229,2.1131,2.0749,2.1082,2.1082,2.0848,2.1229,2.1423,2.1458,2.2296,2.2618,2.2558,2.2221,2.2328,2.2572,2.2002,2.1813,2.1718,0.0,0.0,0.0,0.0,0.0,0.0,0.0,0.0,2.0508,2.0294,2.0092,1.9871,1.9605,2.0901,2.2423,2.3999,2.3988,2.4059,2.4407,2.4247,2.419,2.4338,2.5541,2.6253,2.6302,2.7438,2.8067,2.8156,2.8156,2.8308,2.8601,2.8551,2.8694,2.8975,2.9308,2.9603,2.988,3.025,3.0292,3.0171,3.0693,2.9756,2.8139,2.8982,2.7595,2.5172,2.4898,2.5281,2.5823,2.5135,2.5903,2.7114,2.7081,2.7345,2.7598,2.735,2.7156,2.6887,2.6358,2.5227,2.4282,2.4596,2.4,2.308,0.0,0.0,2.1815,1.9938,1.9915,1.9978,1.9206,1.949,1.9888,1.9991,2.0446,2.0746,2.0709,2.1492,2.1996,2.1602,2.1506,2.1506,2.1554,2.2203,2.2526,2.2217,2.2495,2.2526,2.2231,2.2184,2.2044,2.1793,2.1746,2.1664,2.1423,2.1375,2.1375,2.1375,2.1131,2.1033,2.0947,2.0848,2.0997,2.1326,2.1375,2.1423,2.1423,2.1506,2.1554,2.1602,2.1955,2.186,2.1506,2.1033,2.0848,2.0848,0.0,0.0,0.0,0.0,0.0,0.0,0.0,0.0,0.0,2.0153,1.9927,1.9684,1.9442,2.0852,2.2409,2.3931,2.3959,2.3939,2.404,2.3901,2.4057,2.4572,2.5077,2.5661,2.6348,2.7068,2.7611,2.8102,2.8102,2.8281,2.8601,2.8404,2.8482,2.8797,2.928,2.9647,2.9941,3.0417,3.043,3.0132,3.0334,2.9457,2.8055,2.8507,2.7484,2.5884,2.6151,2.6469,0.0,2.6159,2.6825,2.7844,2.76,2.7803,2.8027,2.7462,2.7708,2.7899,2.6767,2.5369,2.422,2.4207,2.3366,2.2439,2.2048,2.1889,2.1308,1.9451,1.9448,1.9592,1.9028,1.9251,1.9708,0.0,2.0396,2.0409,2.097,2.1153,2.1299,2.1375,2.1118,2.1166,2.1793,2.2217,2.2356,2.2231,2.231,2.2356,2.2231,2.2184,2.2137,2.2044,2.2044,2.1996,2.1841,2.1712,2.1616,2.1616,2.1375,2.1229,2.1229,2.0997,2.1082,2.1423,2.1423,2.1541,2.1813,2.1813,2.1813,2.1813,2.1732,2.1541,2.1375,2.118,2.1082,2.1082,0.0,0.0,0.0,0.0,0.0,0.0,0.0,0.0,0.0,0.0,1.98,1.9688,1.9644,2.0854,2.2154,2.3343,2.3689,2.3837,2.3816,2.3714,2.3967,2.4675,2.4639,2.4966,2.5729,2.6141,2.6621,2.707,2.7234,2.7504,2.7807,2.7583,2.7684,2.8068,2.8594,2.9019,2.9342,2.9799,2.9881,2.9737,2.9632,2.9013,2.8162,2.8296,2.7699,2.6812,2.7119,2.7307,2.7416,2.7255,2.7944,2.881,2.8515,2.8625,2.871,2.799,2.8218,2.842,2.7165,2.5832,2.4729,2.4359,2.3325,2.2341,2.2104,2.1825,2.1185,1.9631,1.9604,1.9656,1.9251,1.9408,1.9914,2.0795,2.0396,2.0308,2.1118,2.1019,2.0957,2.1264,2.1202,2.1444,2.2217,2.2137,2.2091,2.2231,2.2278,2.2278,2.2278,2.2278,2.2231,2.2184,2.2184,2.2184,2.2184,2.1996,2.1902,2.1902,2.1664,2.152,2.152,2.118,2.1082,2.1229,2.1229,2.141,2.1718,2.1718,2.1718,2.167,2.1361,2.1229,2.1229,2.1229,2.1229,2.118,0.0,0.0,0.0,0.0,0.0,0.0,0.0,0.0,0.0,0.0,0.0,0.0,0.0,2.1043,2.173,2.2562,2.3113,2.3544,2.3876,2.3837,2.3919,2.4209,2.4468,2.435,2.3796,2.4614,2.4895,2.4518,2.5101,2.5544,2.5872,2.5872,2.6145,2.669,2.7012,2.7419,2.7862,2.7877,2.8255,2.8811,2.8482,2.8417,2.8537,2.9059,2.8709,2.7861,2.7226,2.7327,2.7845,2.837,2.93,3.0232,3.0227,3.0219,3.0132,2.9589,2.8866,2.8138,2.7783,2.6717,2.57,2.5329,2.4309,2.3126,2.2232,2.1815,2.1343,2.0346,1.9965,1.9759,1.9617,1.9926,2.0321,2.0759,2.066,2.061,2.0809,2.1264,2.1458,2.1042,2.1921,2.2555,0.0,2.1996,2.1841,2.237,2.2509,2.2509,2.2417,2.237,2.2324,2.2184,2.2184,2.2184,2.2184,2.2184,2.2184,2.2184,2.1949,2.1793,2.1746,2.1229,2.0898,2.0699,2.0699,2.0749,2.0749,2.0749,2.0749,2.0749,2.0749,2.0699,2.0699,2.0699,2.0699,2.0699,0.0,0.0,0.0,0.0,0.0,0.0,0.0,0.0,0.0,0.0,0.0,0.0,0.0,0.0,0.0,0.0,2.2986,2.3544,2.3566,2.3714,2.3878,2.4075,2.407,2.3946,2.3698,2.3891,2.4213,2.4607,2.4694,2.5143,2.585,2.5996,2.6274,2.6631,2.7078,2.7492,2.7807,2.7803,2.7717,2.7568,2.724,2.7199,2.7338,2.75,2.7887,2.8337,0.0,2.8689,2.8957,2.9235,2.9943,3.0648,3.0385,3.0394,3.0353,2.9592,2.8904,2.812,2.6813,2.6134,2.554,2.4318,2.3709,2.3126,2.2094,2.1722,2.1485,2.1135,2.0939,2.0948,2.1547,2.1418,2.1315,2.1472,2.0868,2.0484,2.0894,2.1091,2.114,2.1042,2.1334,0.0,0.0,0.0,0.0,2.2509,2.2555,2.2555,2.2555,2.2463,2.237,2.2324,2.2231,2.2044,2.1664,2.1664,2.1664,2.1664,2.1949,2.1888,2.152,2.1375,2.1033,2.0699,2.0699,2.0699,2.0699,2.0699,2.0699,2.0649,2.0372,2.0271,2.0271,2.0271,2.0067,1.9939,0.0,0.0,0.0,0.0,0.0,0.0,0.0,0.0,0.0,0.0,0.0,0.0,0.0,0.0,0.0,0.0,0.0,2.3194,2.3414,2.3361,2.3512,2.3937,2.3774,2.3513,2.3182,2.329,2.3532,2.3876,2.3977,2.4409,2.5223,2.5312,2.5587,2.6028,2.6381,2.6539,2.6511,2.6642,2.6521,2.6268,2.6214,2.6536,2.6974,2.704,2.766,0.0,2.9117,2.9469,2.9766,3.0044,3.0472,3.0839,3.0423,3.0214,2.9969,2.921,2.8764,2.8183,2.6684,2.632,2.6012,2.4875,2.4491,2.4168,2.327,2.282,2.2493,2.2154,2.1923,2.1923,2.2398,2.2122,2.1904,2.2104,2.1363,2.0953,2.15,2.1582,2.1534,2.1431,2.1575,2.1827,0.0,0.0,0.0,2.2675,2.2706,2.2706,2.2675,2.2523,2.2463,2.2463,2.2324,2.2137,2.1746,2.1746,2.1664,2.1423,2.1684,2.1492,2.0908,2.0858,2.0673,2.0435,2.0296,2.0334,2.0435,2.0283,2.0246,2.0195,1.9914,1.9798,1.9798,1.9798,1.9604,1.9525,0.0,0.0,0.0,0.0,0.0,0.0,0.0,0.0,0.0,0.0,0.0,0.0,0.0,0.0,0.0,0.0,0.0,0.0,2.3414,2.2874,2.2904,2.3837,2.3544,2.2992,2.2248,2.2781,2.2857,2.2409,2.2832,2.3356,2.3979,2.3871,2.4246,2.4982,2.5017,2.4723,2.4227,2.4578,2.4824,2.5005,2.5509,2.643,2.7513,2.7606,2.804,2.8624,2.9132,2.9669,3.0211,3.074,3.0904,3.0827,3.0435,2.9849,2.9198,2.8575,2.8458,2.8291,2.7444,2.7213,2.7117,2.6791,2.6452,2.6082,2.5431,2.4853,2.4194,2.3357,2.2937,2.2655,0.0,0.0,2.2104,2.2503,2.2058,2.1838,2.2455,2.2532,2.2441,0.0,0.0,0.0,0.0,0.0,0.0,2.2795,0.0,2.2857,2.2795,2.2675,2.2615,2.2615,2.2463,2.2417,2.237,2.2324,2.1996,2.1375,2.1237,2.0782,1.9991,1.9952,1.9952,1.9991,1.9668,1.9708,1.9991,1.9617,1.942,1.942,1.9393,1.9417,1.9417,1.9442,1.9454,1.9442,0.0,0.0,0.0,0.0,0.0,0.0,0.0,0.0,0.0,0.0,0.0,0.0,0.0,0.0,0.0,0.0,0.0,0.0,2.3182,2.2702,2.2793,2.3631,2.3124,2.2733,2.2583,2.2591,2.2539,2.2479,2.2235,2.2626,2.3554,2.3926,2.4307,2.4733,2.5286,2.5029,2.4258,2.5092,2.5037,2.4471,2.5363,2.643,2.7442,2.7074,2.8082,2.9653,2.9391,2.9866,3.0657,3.0838,3.0905,3.0817,3.0318,2.9937,2.9533,2.8814,2.8558,2.8291,2.7444,2.7213,2.7117,2.6791,2.664,2.635,2.5489,2.5088,2.4782,2.4256,2.3994,2.3952,2.4138,0.0,0.0,2.2335,2.1472,0.0,2.1643,2.1724,0.0,2.1623,0.0,2.2217,2.1813,2.2123,0.0,0.0,2.2902,2.2888,2.2857,2.2781,2.2749,2.2749,2.2629,2.237,2.1949,2.1444,2.114,2.0957,2.1215,2.0908,2.0169,2.0957,2.0858,2.0169,2.0472,2.0586,2.0485,2.0003,1.985,1.9836,1.957,1.9455,1.9502,1.9897,1.9894,1.969,0.0,0.0,0.0,0.0,0.0,0.0,0.0,0.0,0.0,0.0,0.0,0.0,0.0,0.0,0.0,0.0,0.0,0.0,0.0,2.2495,2.2548,2.3459,2.3165,2.2999,2.2972,2.3047,2.3053,2.2944,2.2686,2.2946,2.3706,2.4167,2.4513,2.4807,2.5425,2.5143,2.4258,2.4966,2.4849,0.0,0.0,2.6303,2.714,2.7147,2.8237,2.9711,2.9406,2.996,3.0801,3.0886,3.0778,3.0548,3.0079,2.9802,2.9489,2.8782,2.8551,2.8362,2.7444,2.7213,2.7149,2.6956,2.6825,2.659,2.6233,2.5903,2.5615,2.5243,2.5035,2.4918,2.4981,2.3971,2.3025,0.0,0.0,0.0,2.1913,2.2007,2.2021,0.0,2.2356,0.0,2.2095,2.2402,2.2661,0.0,2.2888,2.2888,2.2888,2.2841,2.2795,2.2826,2.2735,2.2537,2.2245,2.1506,2.1055,2.0795,2.066,2.0271,1.9617,2.0144,2.0144,1.9772,0.0,2.024,2.037,2.0064,2.0,2.0079,1.9785,1.9676,1.9712,1.9948,1.9901,1.9748,0.0,0.0,0.0,0.0,0.0,0.0,0.0,0.0,0.0,0.0,0.0,0.0,0.0,0.0,0.0,0.0,0.0,0.0,0.0,0.0,2.2317,2.3318,2.3414,2.341,2.3342,2.375,2.3837,2.3566,2.3522,2.3697,2.4068,2.4423,2.4713,2.4971,2.5468,2.5143,2.4227,2.4746,2.4718,2.4427,2.5514,2.6371,2.7006,0.0,2.8476,2.9406,2.9465,3.0065,3.0821,3.0871,3.0662,3.0307,2.9844,2.957,2.9279,2.8603,2.8476,2.8362,2.7504,2.7276,2.7276,2.7276,2.7053,2.6891,2.7149,2.6889,2.6471,2.6066,2.5864,2.5626,2.5169,2.3899,2.2996,2.3259,0.0,2.1669,2.25,2.2606,2.268,2.2783,2.2933,2.2933,2.2843,2.3037,2.3082,2.2947,2.2947,2.2947,2.2888,2.2826,2.2826,2.2888,2.2781,2.2704,2.2704,2.1855,2.1202,2.0696,1.9952,1.9393,1.8947,1.8988,1.9119,1.9429,0.0,0.0,2.0171,2.0062,2.0135,2.0263,2.01,2.0006,2.0017,1.979,1.9824,1.9884,0.0,0.0,0.0,0.0,0.0,0.0,0.0,0.0,0.0,0.0,1.8911,1.8556,0.0,0.0,0.0,0.0,0.0,0.0,0.0,0.0,0.0,2.3109,2.3118,2.3239,2.354,2.3795,2.3937,2.3996,2.361,2.3595,2.3928,2.4396,2.4629,2.4706,2.5382,2.5143,2.4288,2.5752,2.5849,2.5159,2.6726,2.7685,2.8197,2.8324,0.0,0.0,3.0399,3.0693,3.088,3.0901,3.085,3.0662,2.9941,2.9626,2.9414,2.8621,2.838,2.8228,2.776,2.7595,2.7595,2.7595,2.7565,2.7474,2.7244,2.7149,2.6873,2.6154,2.5974,2.5775,2.5208,2.4505,2.3643,2.2517,2.2118,2.1899,2.169,2.1643,2.1846,0.0,2.242,2.2466,2.2572,2.2994,0.0,0.0,0.0,0.0,2.2902,2.2902,2.2902,2.2888,2.2523,2.2278,2.2278,2.1091,2.0383,2.0283,1.9952,1.9735,1.9648,2.0529,2.0835,2.0692,0.0,0.0,2.1145,2.0791,2.0656,2.0704,2.0605,2.0528,2.0526,2.0158,2.0452,2.078,0.0,0.0,0.0,0.0,0.0,0.0,0.0,2.0336,2.0077,1.9653,1.8623,1.768,1.7057,1.8159,1.9022,0.0,0.0,0.0,0.0,0.0,0.0,2.3077,2.3194,2.3315,2.3422,2.3792,2.3937,2.3896,0.0,2.3828,2.4134,2.4555,2.4762,2.483,2.5427,2.5143,2.4249,2.4869,2.5152,2.5258,2.5885,2.7084,2.8503,2.8503,0.0,0.0,3.0626,3.0821,3.086,3.0899,3.0903,3.0762,2.9955,2.9682,2.9493,2.8691,2.8484,2.8344,2.7666,2.7683,2.78,2.7504,2.7582,2.7672,2.7491,2.7461,2.7258,2.6521,2.6297,2.612,2.5663,2.4902,2.4128,2.3415,2.2655,2.2151,2.2225,2.1771,2.1718,2.2632,2.2526,2.2558,0.0,2.3127,0.0,0.0,0.0,0.0,2.2888,2.2888,2.2888,2.2888,2.2629,2.2385,2.2184,2.1126,2.0484,2.0181,1.9995,1.9866,1.9848,2.0612,2.0897,2.084,0.0,0.0,2.1382,2.1367,2.1416,2.1512,2.14,2.1299,2.1272,2.0917,2.0752,2.0688,0.0,0.0,0.0,0.0,0.0,0.0,0.0,2.0506,2.0353,1.9953,1.8285,1.6724,1.5652,1.6865,1.771,0.0,0.0,0.0,0.0,0.0,0.0,0.0,0.0,0.0,2.3265,0.0,0.0,2.3671,2.3753,0.0,0.0,0.0,0.0,0.0,2.5488,2.5269,2.4485,2.4089,2.4602,0.0,0.0,2.6276,0.0,0.0,0.0,0.0,0.0,3.0801,3.0801,3.086,3.0899,3.0761,2.9952,2.9699,2.9548,2.884,2.8648,2.85,2.7754,2.7783,2.7943,2.7444,2.7582,2.776,2.7642,2.7595,2.7413,2.6825,2.6573,2.6367,2.6046,2.5303,2.4682,2.4451,2.3543,2.2892,2.301,2.2211,2.1974,2.2873,2.2632,0.0,2.3127,2.3275,0.0,0.0,0.0,0.0,0.0,2.2888,2.2888,2.2888,2.2629,2.2292,2.1983,2.1091,2.0461,2.0181,2.001,2.0024,2.0141,2.0586,2.0839,2.0971,0.0,0.0,0.0,2.1832,2.1987,2.1987,2.1937,2.18,2.1549,2.1135,2.0677,2.0291,0.0,0.0,0.0,0.0,0.0,0.0,0.0,2.0507,2.0357,1.9954,1.8319,1.6483,1.4656,1.6658,1.744,0.0,0.0,0.0,0.0,0.0,0.0,0.0,0.0,0.0,0.0,0.0,0.0,2.3522,0.0,0.0,0.0,0.0,0.0,0.0,0.0,2.5644,2.5519,2.4883,0.0,0.0,0.0,0.0,0.0,0.0,0.0,0.0,0.0,3.0801,3.0801,3.0801,3.086,3.076,2.9948,2.9699,2.961,2.9152,2.8786,2.8492,2.8353,2.83,2.8174,2.7847,2.795,2.7996,2.7369,2.7244,2.7149,2.6791,2.6452,2.6187,2.6026,2.5921,2.5524,2.4547,2.4689,2.4536,2.3332,2.2698,2.2395,2.2694,0.0,0.0,2.2709,0.0,0.0,0.0,0.0,0.0,0.0,2.2888,2.2888,2.2888,2.1874,2.1334,2.1286,2.0016,1.9572,2.0007,1.9867,2.0298,2.126,2.1308,2.1596,2.2053,0.0,0.0,0.0,2.2173,2.1788,2.1262,2.1726,2.1411,2.0635,1.9835,1.977,1.9901,0.0,0.0,0.0,0.0,0.0,0.0,2.0507,2.0507,2.0437,2.0282,1.7598,1.5401,1.4622,1.4863,1.4777,1.4113,0.0,0.0,0.0,0.0,0.0,0.0,0.0,0.0,0.0,0.0,2.3236,2.3259,2.3236,0.0,0.0,0.0,0.0,0.0,0.0,0.0,2.4772,2.4519,0.0,0.0,0.0,0.0,0.0,0.0,0.0,0.0,0.0,0.0,3.0801,3.0801,3.0703,3.0551,3.0358,3.0027,2.9586,2.8991,2.8816,2.8761,2.8299,2.8412,2.859,2.801,2.8045,2.8191,2.7904,2.7654,2.74,2.7085,2.6725,2.6417,2.6151,2.6115,2.599,2.554,2.5389,2.5121,2.4601,2.3773,2.3171,2.301,2.25,0.0,0.0,0.0,0.0,0.0,0.0,0.0,0.0,2.2888,2.2888,2.2888,2.2123,2.1527,2.1175,2.0605,2.0184,2.0037,2.0613,2.1029,2.1416,2.1728,2.1735,2.1526,0.0,0.0,0.0,2.14,2.1135,2.0549,2.0752,2.0624,2.0237,1.9704,1.9431,1.9166,0.0,0.0,0.0,0.0,0.0,2.0507,2.0507,2.0493,2.0502,2.0502,1.7657,1.5622,1.5622,1.4099,1.3094,1.3205,1.4814,0.0,0.0,0.0,0.0,0.0,0.0,0.0,0.0,0.0,2.2995,2.2995,2.2995,2.3495,0.0,0.0,0.0,0.0,0.0,0.0,0.0,0.0,0.0,0.0,0.0,0.0,0.0,0.0,0.0,0.0,0.0,0.0,0.0,0.0,0.0,3.0403,3.0428,3.0047,2.9526,2.9104,2.9026,2.8952,2.8438,2.8565,2.867,2.7946,2.8055,2.8273,2.8045,2.7876,2.7642,2.7276,2.6923,2.6607,2.6274,2.622,2.622,2.622,2.5881,2.5589,2.5443,2.4665,2.3941,2.3548,0.0,0.0,0.0,0.0,0.0,0.0,0.0,0.0,0.0,2.2888,2.2843,2.2706,2.203,2.1526,2.1133,2.0795,2.0543,2.0399,2.096,2.1272,2.1329,2.1498,2.1273,0.0,0.0,0.0,0.0,2.0677,2.0549,2.0096,2.0096,1.9977,1.9715,1.9431,1.91,1.87,0.0,0.0,0.0,0.0,0.0,0.0,2.0507,2.0491,2.0508,2.0508,1.8916,1.7772,1.7772,1.5035,1.3191,1.3191,1.7261,0.0,0.0,0.0,0.0,0.0,0.0,0.0,0.0,0.0,2.2712,2.2712,2.2712,2.3228,2.4207,2.4207,2.4747,0.0,0.0,0.0,0.0,0.0,0.0,0.0,0.0,0.0,0.0,0.0,0.0,0.0,0.0,0.0,0.0,0.0,0.0,0.0,0.0,2.9631,2.947,2.9795,2.9467,2.8993,2.8984,2.8767,2.8344,2.7672,2.7954,2.8201,2.7487,2.7547,2.7701,2.7276,2.6923,2.6607,2.6274,2.622,2.622,2.622,2.622,2.6043,2.554,2.5096,2.4649,0.0,0.0,0.0,0.0,0.0,0.0,0.0,0.0,0.0,0.0,0.0,2.2706,2.2231,2.1444,2.1009,2.1002,2.0195,2.0322,2.1392,2.0633,2.0579,2.106,2.042,0.0,0.0,0.0,0.0,0.0,2.0355,2.0107,2.0096,2.0096,1.9584,1.8808,1.8844,1.87,1.8442,0.0,0.0,0.0,0.0,0.0,0.0,0.0,2.0497,2.0506,2.0504,1.8843,1.765,1.765,1.6376,1.6072,1.739,1.5363,0.0,0.0,0.0,0.0,0.0,0.0,0.0,0.0,0.0,2.2712,2.2712,2.2712,2.321,2.4207,2.4207,2.4747,2.5707,2.5707,0.0,0.0,0.0,0.0,0.0,0.0,0.0,0.0,0.0,0.0,0.0,0.0,0.0,0.0,0.0,0.0,0.0,0.0,0.0,0.0,2.9836,2.957,2.9228,2.9048,2.903,2.886,2.8094,2.8174,2.8362,2.7869,2.78,2.7683,2.7334,2.6971,2.6607,2.6274,2.5954,2.5811,2.6132,2.5937,2.5775,2.5937,0.0,0.0,2.3486,0.0,0.0,0.0,0.0,0.0,0.0,0.0,0.0,0.0,0.0,2.1969,2.2184,2.1972,2.1557,2.1014,2.1101,2.1219,2.1404,2.1509,2.1436,2.106,2.0869,0.0,0.0,0.0,0.0,0.0,1.9243,1.9054,1.8664,1.8509,1.8385,1.8212,1.7998,1.7998,1.8134,0.0,0.0,0.0,0.0,0.0,0.0,0.0,2.05,2.0496,2.0506,1.9468,1.8737,1.8737,1.8111,1.8187,1.9397,1.6159,0.0,0.0,0.0,0.0,0.0,0.0,0.0,2.164,2.2334,2.2712,2.2712,2.2919,2.3411,2.4207,2.4406,2.4938,2.5707,2.5707,2.5707,0.0,0.0,0.0,0.0,0.0,0.0,2.6086,0.0,0.0,0.0,0.0,0.0,0.0,0.0,0.0,0.0,0.0,0.0,0.0,0.0,2.9623,2.9312,2.9293,2.9275,2.9132,2.8442,2.8471,2.8576,2.811,2.7701,2.737,2.698,2.659,2.6229,2.5885,2.5647,2.5631,2.6132,2.5811,2.554,0.0,0.0,0.0,0.0,0.0,0.0,0.0,0.0,0.0,0.0,0.0,0.0,0.0,0.0,2.1479,2.1589,2.1716,2.1498,2.0983,2.1457,2.1536,2.1315,2.1385,2.1008,2.0279,0.0,0.0,0.0,0.0,0.0,0.0,1.8519,1.8529,1.8327,1.7988,1.7862,1.794,1.7745,1.7813,1.794,0.0,0.0,0.0,0.0,0.0,0.0,0.0,2.039,2.0497,2.0497,2.0547,2.0591,2.0591,2.0097,1.9762,1.9762,0.0,0.0,0.0,0.0,0.0,0.0,0.0,0.0,1.9939,2.1595,2.251,2.251,2.3167,2.3739,2.4219,2.476,2.5247,2.5707,2.5707,2.5707,2.5765,2.6626,2.7503,2.8274,2.8028,2.6539,0.0,0.0,0.0,0.0,0.0,0.0,0.0,0.0,0.0,0.0,0.0,0.0,0.0,0.0,0.0,0.0,0.0,2.9495,2.9177,2.8615,2.873,2.8821,2.8147,2.7496,0.0,2.6471,2.6079,2.5717,2.5373,2.5373,2.5631,2.6132,2.5811,2.5335,0.0,2.4658,0.0,0.0,0.0,0.0,0.0,0.0,0.0,0.0,0.0,0.0,0.0,0.0,0.0,2.056,2.0862,2.1008,2.1031,2.1281,2.1315,2.1123,2.042,1.9704,1.8977,0.0,0.0,0.0,0.0,0.0,0.0,1.8269,1.8395,1.8844,1.8202,1.8008,1.8008,1.8008,1.794,1.7794,0.0,0.0,0.0,0.0,0.0,0.0,0.0,0.0,0.0,0.0,2.0509,2.0528,2.0528,2.1556,2.2246,0.0,0.0,0.0,0.0,0.0,0.0,0.0,0.0,0.0,1.9875,2.0336,2.054,2.054,2.2528,2.3739,2.4219,2.476,2.5247,2.5707,2.5707,2.5707,2.5765,2.6626,2.7503,2.8359,2.8946,2.9181,0.0,0.0,0.0,0.0,3.0095,3.0564,0.0,0.0,0.0,0.0,0.0,0.0,0.0,0.0,2.9588,2.9751,2.982,0.0,2.9045,2.8609,2.8652,2.8651,0.0,2.8084,2.7939,2.7352,2.7092,2.6855,2.6279,2.5684,2.5535,2.6293,2.5738,2.5121,2.4909,0.0,0.0,0.0,0.0,0.0,0.0,0.0,0.0,0.0,0.0,0.0,0.0,0.0,0.0,2.0003,2.0752,2.1163,2.1131,2.1416,2.146,2.1325,2.0484,1.9704,1.8977,0.0,0.0,0.0,0.0,0.0,1.8202,1.8076,1.8076,1.8202,1.792,1.7862,1.8008,1.7862,1.7501,1.7148,0.0,0.0,0.0,0.0,0.0,0.0,0.0,0.0,0.0,0.0,0.0,1.8881,1.8883,2.1415,0.0,0.0,0.0,0.0,0.0,0.0,0.0,0.0,0.0,1.7492,1.8543,1.9657,2.0225,2.0225,2.2886,2.4328,2.457,2.5087,2.5468,2.5707,2.5707,2.5707,2.5726,2.6195,2.7132,2.8342,2.881,0.0,0.0,0.0,0.0,0.0,2.7249,2.8425,0.0,3.0275,3.0801,3.0733,0.0,0.0,0.0,0.0,2.9787,2.9739,2.9869,2.9662,2.9321,2.8887,2.8824,2.8713,2.8102,2.7911,2.767,2.6977,2.677,2.6556,2.612,2.5189,2.4847,2.5957,2.4808,0.0,0.0,0.0,0.0,0.0,0.0,0.0,0.0,0.0,0.0,0.0,0.0,0.0,0.0,0.0,0.0,0.0,2.0508,2.1031,2.1256,2.1741,2.1628,2.0858,2.0355,1.9573,1.8519,0.0,0.0,0.0,0.0,0.0,1.8008,1.8008,1.8008,1.8008,1.7862,1.793,1.8008,1.7862,1.7432,1.6862,0.0,0.0,0.0,0.0,0.0,0.0,0.0,0.0,0.0,0.0,0.0,0.0,0.0,0.0,0.0,0.0,0.0,0.0,0.0,0.0,0.0,0.0,1.7728,1.7278,1.7669,1.9292,2.0331,2.0739,2.3599,2.4992,2.5017,2.5488,2.5765,2.5902,2.6039,2.6097,2.6097,2.6095,2.7013,2.8457,2.7909,0.0,0.0,0.0,0.0,0.0,0.0,0.0,0.0,2.9252,3.0381,3.0782,3.0753,0.0,0.0,0.0,0.0,0.0,2.9746,2.9769,2.9625,2.918,2.9027,2.8814,2.8055,2.7572,2.7057,2.6337,2.6183,2.5974,2.5309,2.4587,0.0,0.0,0.0,0.0,0.0,0.0,0.0,0.0,0.0,0.0,0.0,0.0,0.0,0.0,0.0,0.0,0.0,0.0,0.0,0.0,2.0232,2.0701,2.1156,2.1693,2.1376,2.0204,1.9901,1.9121,1.8008,1.8008,0.0,0.0,0.0,0.0,1.8008,1.8008,1.8008,1.8008,1.8008,1.8008,1.8008,1.8008,1.7442,1.6585,0.0,0.0,0.0,0.0,0.0,0.0,0.0,0.0,0.0,0.0,0.0,0.0,0.0,0.0,0.0,0.0,0.0,0.0,0.0,0.0,0.0,2.3841,1.9843,1.8588,2.0682,1.9018,1.9164,2.1274,2.3784,2.4992,2.5017,2.5488,2.6097,2.6822,2.7561,2.7893,2.7893,2.7842,2.843,2.9127,2.606,0.0,0.0,0.0,0.0,0.0,0.0,0.0,0.0,2.7357,2.8454,3.0751,3.0535,0.0,0.0,0.0,0.0,0.0,2.9457,2.9377,2.9295,2.8934,2.8713,2.8543,2.8282,2.8183,2.7798,2.6666,2.696,2.6686,2.4247,2.4869,2.5405,0.0,0.0,0.0,0.0,0.0,0.0,0.0,0.0,0.0,0.0,0.0,0.0,0.0,0.0,0.0,0.0,0.0,0.0,0.0,0.0,2.0517,2.0632,2.0234,1.9955,1.9694,1.8787,1.8202,1.8008,1.8008,1.8008,0.0,0.0,0.0,1.8008,1.8008,1.8008,1.8008,1.8008,1.8008,1.8008,1.8008,1.7088,1.5675,0.0,0.0,0.0,0.0,0.0,0.0,0.0,0.0,0.0,0.0,0.0,0.0,0.0,0.0,0.0,0.0,0.0,0.0,0.0,0.0,2.4447,2.5349,2.1969,2.0505,2.1389,2.0543,2.0644,2.1788,2.4203,2.5385,2.5385,2.607,2.6878,2.7717,2.8127,2.8303,2.8301,2.8229,2.8714,2.9226,0.0,0.0,0.0,0.0,0.0,0.0,0.0,0.0,0.0,0.0,2.9537,3.0777,3.0664,0.0,0.0,0.0,0.0,0.0,2.9607,2.9361,2.903,2.8529,2.842,2.8299,2.7672,2.7447,2.7282,2.6963,2.6852,2.6421,2.4954,0.0,2.3516,2.1797,0.0,0.0,0.0,0.0,0.0,0.0,0.0,0.0,0.0,0.0,0.0,0.0,0.0,0.0,0.0,0.0,0.0,0.0,0.0,0.0,1.9502,1.9297,1.9309,1.9562,1.8844,1.8327,1.8008,1.8008,1.8008,0.0,0.0,1.8008,1.8008,1.8008,1.8008,1.8008,1.8008,1.8008,1.7872,1.7088,1.6097,1.4966,0.0,0.0,0.0,0.0,0.0,0.0,0.0,0.0,0.0,0.0,0.0,0.0,0.0,0.0,0.0,0.0,0.0,0.0,0.0,2.3713,2.4911,2.3155,2.2984,2.2757,2.2405,2.2216,2.2373,2.2948,2.4797,2.5805,2.6019,2.6898,2.7776,2.8615,2.8791,2.8889,2.8886,2.8828,2.9191,2.9416,0.0,0.0,0.0,0.0,0.0,0.0,0.0,0.0,0.0,0.0,0.0,0.0,0.0,0.0,0.0,3.0658,3.0283,2.9877,2.9756,2.9364,2.8881,2.8316,2.8316,2.821,2.7261,2.6835,2.6649,2.6639,2.6199,2.5622,2.503,2.3466,0.0,2.0614,0.0,0.0,0.0,0.0,0.0,0.0,0.0,0.0,0.0,0.0,0.0,0.0,0.0,0.0,0.0,0.0,0.0,0.0,0.0,0.0,1.8594,1.8624,1.8895,1.9309,1.8977,1.8519,1.8008,1.8008,1.8008,1.8008,1.8008,1.8008,1.8008,1.8008,1.8008,1.8008,1.8008,1.7872,1.7588,1.6167,1.5242,1.4466,0.0,0.0,0.0,0.0,0.0,0.0,0.0,0.0,0.0,0.0,0.0,0.0,0.0,0.0,0.0,0.0,0.0,0.0,0.0,1.7954,2.2585,1.5607,2.1751,2.5351,2.5389,2.3229,2.3209,2.5445,2.5613,2.6117,2.6939,2.7795,2.8674,2.9533,3.0294,3.0626,3.0623,3.0607,3.0642,3.0097,2.318,0.0,0.0,0.0,0.0,0.0,0.0,0.0,0.0,0.0,0.0,0.0,0.0,0.0,3.0753,3.0504,3.0166,2.9836,2.9585,2.9267,2.8905,2.8471,2.8489,2.8378,2.763,2.7106,2.6452,2.5301,2.5018,2.4485,2.2834,2.2167,2.2198,0.0,0.0,0.0,0.0,0.0,0.0,0.0,0.0,0.0,0.0,0.0,0.0,0.0,0.0,0.0,0.0,0.0,0.0,0.0,0.0,0.0,1.8594,1.8312,1.8258,1.8607,1.8405,1.8212,1.8008,1.8008,1.8008,1.8008,1.8008,1.8008,1.8008,1.8008,1.8008,1.8008,1.8008,1.7579,1.6872,1.6026,1.5242,1.4466,0.0,0.0,0.0,0.0,0.0,0.0,0.0,0.0,0.0,0.0,0.0,0.0,0.0,0.0,0.0,0.0,0.0,0.0,0.0,0.9185,1.2598,1.4412,1.7188,2.0901,2.5598,2.4803,2.4782,2.5698,2.6232,2.6956,2.7835,2.8693,2.9552,3.0353,3.0654,3.0807,3.0804,3.076,3.0745,3.0315,2.539,2.2096,0.0,0.0,0.0,0.0,0.0,0.0,0.0,0.0,2.9102,3.0662,2.9923,3.0205,3.0786,3.0683,3.0437,3.0199,3.0098,2.9541,2.8959,2.8817,2.8691,2.829,2.7092,2.6097,2.5553,2.5927,2.4888,2.3751,2.3139,0.0,0.0,0.0,0.0,0.0,0.0,0.0,0.0,0.0,0.0,0.0,0.0,0.0,0.0,0.0,0.0,0.0,0.0,0.0,0.0,0.0,0.0,0.0,0.0,1.8217,1.8424,1.8674,1.8482,1.8405,1.8279,1.8279,1.8279,1.8212,1.8212,1.8144,1.8008,1.8008,1.8008,1.8008,1.8008,1.7226,1.6097,1.5807,1.4966,1.3912,0.0,0.0,0.0,0.0,0.0,0.0,0.0,0.0,0.0,0.0,0.0,0.0,0.0,0.0,0.0,0.0,0.0,0.0,0.241,0.6455,1.0587,1.4314,1.6739,2.0416,2.5563,2.5675,2.5662,2.5662,2.6554,2.7442,2.8323,2.9177,3.0016,3.0799,3.0798,3.079,3.0794,3.0725,3.0703,3.0386,2.6834,2.3935,0.0,0.0,0.0,0.0,0.0,0.0,0.0,0.0,3.0102,3.0661,2.9831,3.0134,3.0801,3.0801,3.0476,3.0121,3.0121,2.9511,2.8841,2.8741,2.8584,2.8021,2.6488,2.5533,2.5185,2.5891,2.4782,2.3616,2.3456,0.0,0.0,0.0,0.0,0.0,0.0,0.0,0.0,0.0,0.0,0.0,0.0,0.0,0.0,0.0,0.0,0.0,0.0,0.0,0.0,0.0,0.0,0.0,0.0,1.803,1.841,1.8875,1.8741,1.8617,1.8482,1.8482,1.8482,1.8337,1.8337,1.8202,1.8076,1.8008,1.8008,1.8008,1.8008,1.7088,1.5675,1.5675,1.476,1.3492,0.0,0.0,0.0,0.0,0.0,0.0,0.0,0.0,0.0,0.0,0.0,0.0,0.0,0.0,0.0,0.0,0.0,0.0,-0.5,1.1141,1.8968,1.4552,2.1474,2.5493,2.5601,2.5595,2.5601,2.5601,2.6539,2.7452,2.8323,2.9127,2.9965,3.0799,3.0802,3.0798,3.0794,3.0725,3.0703,3.0386,2.687,2.5436,2.5014,0.0,0.0,0.0,0.0,0.0,0.0,0.0,3.0739,3.0804,3.079,3.0788,3.0801,3.0801,3.018,2.9512,2.95,2.9064,2.8489,2.8166,2.8084,2.763,2.5911,2.5653,2.5601,2.4736,2.4538,2.4256,2.3475,2.2966,0.0,0.0,0.0,0.0,0.0,0.0,0.0,0.0,0.0,0.0,0.0,0.0,0.0,0.0,0.0,0.0,0.0,0.0,0.0,0.0,0.0,0.0,0.0,1.7668,1.8185,1.9075,1.9075,1.8875,1.8482,1.8482,1.8482,1.8482,1.8337,1.8269,1.8269,1.8076,1.8008,1.8008,1.8008,1.7019,1.5675,1.5675,1.476,1.3492,0.0,0.0,0.0,0.0,0.0,0.0,0.0,0.0,0.0,0.0,0.0,0.0,0.0,0.0,0.0,0.0,0.0,0.0,-0.6532,-0.0993,0.5062,1.1116,1.345,1.8074,2.5435,2.56,2.5605,2.5601,2.6486,2.739,2.8248,2.9102,2.9959,3.0802,3.075,3.0739,3.0725,3.0704,3.0711,3.062,2.9544,2.7638,2.5555,0.0,0.0,0.0,0.0,0.0,0.0,0.0,0.0,0.0,2.9805,3.0127,3.0799,3.0807,3.0621,3.0378,3.0185,2.9147,2.8104,2.8054,2.7539,2.6908,2.6387,2.627,2.5826,2.439,2.4051,2.3849,2.3374,0.0,0.0,0.0,0.0,0.0,0.0,0.0,0.0,0.0,0.0,0.0,0.0,0.0,0.0,0.0,0.0,0.0,0.0,0.0,0.0,0.0,0.0,0.0,0.0,0.0,1.8185,1.9075,1.9075,1.9075,1.8942,1.8808,1.8674,1.8684,1.8549,1.8414,1.8414,1.8269,1.8144,1.794,1.7432,1.6585,1.5675,1.51,1.433,1.3492,0.0,0.0,0.0,0.0,0.0,0.0,0.0,0.0,0.0,0.0,0.255,0.1483,0.0,0.0,0.0,-0.2922,-0.285,0.0,-0.274,-0.0045,0.4399,1.0807,1.326,1.7952,2.5444,2.5604,2.5599,2.5591,2.6466,2.7351,2.8212,2.9099,2.9976,3.0799,3.0722,3.0691,3.0697,3.0704,3.069,3.069,3.069,2.9417,2.7725,0.0,0.0,0.0,0.0,0.0,0.0,0.0,0.0,0.0,2.9948,3.0212,3.0716,3.0233,2.9913,2.9574,2.8906,2.7886,2.7004,2.6869,2.6718,2.6619,2.6619,2.6184,2.5354,2.3736,2.3556,2.3501,2.2981,0.0,0.0,0.0,0.0,0.0,0.0,0.0,0.0,0.0,0.0,0.0,0.0,0.0,0.0,0.0,0.0,0.0,0.0,0.0,0.0,0.0,0.0,0.0,0.0,0.0,0.0,1.9075,1.9075,1.9075,1.9065,1.8875,1.8808,1.8942,1.8674,1.8549,1.8482,1.8337,1.8212,1.8066,1.7217,1.6376,1.5604,1.4887,1.4258,1.3702,0.0,0.0,0.6373,0.6373,0.0,0.0,0.0,0.0,0.0,0.3796,0.198,0.0616,0.0,0.0,0.0,0.0,0.2346,0.3846,0.3991,0.9021,1.2157,1.2558,1.8117,2.2461,2.5143,2.5465,2.5601,2.5601,2.6387,2.7269,2.8203,2.8996,2.9877,3.0774,3.0467,3.0475,3.0678,3.0436,3.0477,3.069,3.069,3.069,3.069,3.069,0.0,0.0,0.0,0.0,0.0,0.0,0.0,0.0,3.0763,3.0798,3.057,2.9488,2.8683,2.7916,2.6726,2.6019,2.556,2.5169,2.5727,2.6354,2.6354,2.5566,2.4418,2.3024,0.0,2.3172,2.2342,0.0,0.0,0.0,0.0,0.0,0.0,0.0,0.0,0.0,0.0,0.0,0.0,0.0,0.0,0.0,0.0,0.0,0.0,0.0,0.0,0.0,0.0,0.0,0.0,0.0,0.0,0.0,1.9075,1.9075,1.9065,1.8875,1.8875,1.9065,1.8875,1.8674,1.8549,1.8414,1.8337,1.8202,1.7217,1.6376,1.5604,1.4824,1.433,1.4137,0.0,0.0,0.6067,0.6067,0.0,0.0,0.0,0.0,0.6696,0.6694,0.6426,0.6163,0.6095,0.4194,0.0,0.2886,0.3428,0.381,0.3843,0.7008,0.9943,1.2318,1.8062,2.1493,2.2116,2.4416,2.5601,2.5601,2.5782,2.6643,2.8126,2.8314,2.9227,3.0633,2.8457,2.8686,3.0555,2.8396,2.8727,3.069,3.069,3.069,3.069,3.069,3.069,0.0,0.0,0.0,0.0,0.0,0.0,0.0,3.072,3.075,3.073,3.0437,2.9601,2.8685,2.8097,2.6603,2.5113,2.475,2.4587,2.4547,2.4547,2.4362,2.4133,2.3958,2.3244,2.2572,0.0,0.0,0.0,0.0,0.0,0.0,0.0,0.0,0.0,0.0,0.0,0.0,0.0,0.0,0.0,0.0,0.0,0.0,0.0,0.0,0.0,0.0,0.0,0.0,1.7668,1.7668,1.8185,0.0,1.9075,1.9075,1.9065,1.8875,1.8808,1.8875,1.9008,1.8942,1.8741,1.8674,1.8539,1.8134,1.6784,1.6018,1.5604,1.4545,1.4122,1.4168,0.0,0.0,0.0,0.0,0.0,0.0,0.0,0.0,0.7348,0.7707,0.7811,0.7901,0.7901,0.6615,0.0,0.0,0.5757,0.5194,0.3865,0.6381,0.9261,1.2256,1.5346,1.8294,2.1149,2.2706,2.4188,2.5601,2.5601,2.6262,2.7524,2.7926,2.8806,3.0024,2.9021,2.9366,3.051,2.7761,2.8184,3.0594,2.9272,2.9533,3.069,3.069,3.069,3.069,3.069,0.0,0.0,0.0,0.0,0.0,0.0,0.0,3.0633,3.0055,2.9442,2.8651,2.7233,2.6021,2.5029,2.4483,2.3926,2.3492,2.3603,2.3548,2.3448,2.3301,2.2921,0.0,0.0,0.0,0.0,0.0,0.0,0.0,0.0,0.0,0.0,0.0,0.0,0.0,0.0,0.0,0.0,0.0,0.0,0.0,0.0,0.0,0.0,0.0,0.0,0.0,1.7668,1.7668,1.8185,1.9075,1.9075,1.9075,1.9075,1.9008,1.8875,1.8808,1.9008,1.9075,1.8942,1.8539,1.8337,1.7998,1.6515,1.5816,1.5613,1.4482,1.4346,1.4681,0.0,0.0,0.0,0.0,0.0,0.0,0.0,0.0,0.0,0.7788,0.7901,0.7901,0.7901,0.7901,0.7901,0.0,0.0,0.0,0.4638,0.6615,0.8997,1.1528,1.2141,1.4695,1.9564,2.0694,2.2397,2.483,2.535,2.597,2.6689,2.766,2.8566,2.9396,2.9325,2.955,2.9806,2.7005,2.7384,2.9713,2.7835,2.8486,3.0598,3.0598,3.0633,3.069,3.069,3.069,3.069,3.069,0.0,0.0,0.0,0.0,3.05,2.9574,2.9114,2.8451,2.6321,2.5425,2.4944,2.4182,2.345,2.2949,2.2996,2.298,2.2752,2.2324,0.0,0.0,0.0,0.0,0.0,0.0,0.0,0.0,0.0,0.0,0.0,0.0,0.0,0.0,0.0,0.0,0.0,0.0,0.0,0.0,0.0,0.0,0.0,0.0,0.0,1.6777,1.7544,1.7637,1.8143,1.8951,1.9034,1.9075,1.9075,1.8998,1.8942,1.8875,1.9008,1.9075,1.9065,1.8337,1.8008,1.7872,1.6394,1.5762,1.5551,1.4625,1.4665,1.5201,0.0,0.0,0.0,0.0,0.0,0.0,0.0,0.0,0.0,0.0,0.7901,0.7901,0.7901,0.7901,0.7901,0.7901,0.7901,0.7729,0.7374,0.0,0.0,0.8482,1.1003,1.2755,1.3545,1.8576,2.1401,2.1787,2.4341,2.5659,2.5815,2.7362,2.8566,2.9232,2.5386,2.4968,2.6953,2.3919,2.4176,2.6773,2.8384,2.9492,3.0175,3.0175,3.0406,3.069,3.069,3.069,3.069,3.069,3.069,0.0,0.0,0.0,3.0665,3.052,2.9726,2.8754,2.8139,2.6392,2.453,2.3492,2.3171,2.2933,0.0,0.0,2.2752,0.0,0.0,0.0,0.0,0.0,0.0,0.0,0.0,0.0,0.0,0.0,0.0,0.0,0.0,0.0,0.0,0.0,0.0,0.0,0.0,0.0,0.0,0.0,1.6384,1.6384,1.6384,0.0,1.7069,1.7472,1.7988,1.8475,1.8878,1.9075,1.9065,1.8607,1.8674,1.9075,1.9075,1.9075,1.9075,1.8472,1.8144,1.7872,1.6533,1.5692,1.5275,1.5133,1.5105,1.5356,0.0,0.0,0.0,0.0,0.0,0.0,0.0,0.0,0.0,0.0,0.0,0.8587,0.7949,0.7788,0.7735,0.7901,0.7901,0.7901,0.7901,0.7901,0.7901,0.7901,0.9155,1.0692,1.2371,1.4921,1.7904,2.1206,2.2497,2.3985,2.564,2.7324,2.8295,2.8625,2.7596,2.6934,2.6495,2.4905,2.4915,2.6061,2.6841,2.8325,3.0053,3.009,3.0355,3.0695,3.071,3.069,3.069,3.069,3.069,3.069,3.069,0.0,0.0,0.0,3.0231,2.9406,2.7907,2.6196,2.4571,2.3478,2.3171,2.3053,2.2817,2.2815,2.2859,0.0,0.0,0.0,0.0,0.0,0.0,0.0,0.0,0.0,0.0,0.0,0.0,0.0,0.0,0.0,0.0,0.0,0.0,0.0,0.0,0.0,0.0,1.5904,1.6029,1.6029,1.6259,0.0,1.6977,1.7441,1.8081,1.8764,1.8971,1.9075,1.9065,1.8875,1.8875,1.9065,1.8808,1.8674,1.8607,1.8056,1.7579,1.7097,1.6272,1.5709,1.5505,1.5275,1.5508,1.5946,0.0,0.0,0.0,0.0,0.0,0.0,0.0,0.0,0.0,0.0,0.0,0.9673,0.8999,0.0,0.0,0.0,0.8103,0.7901,0.7901,0.7901,0.7901,0.7901,0.7901,0.8968,1.1217,1.0839,1.3744,2.0065,1.9651,2.1563,2.564,2.7324,2.7736,2.713,2.8183,2.7823,2.6371,2.5278,2.5153,2.5669,2.5409,2.7121,2.9783,2.9309,2.9766,3.0673,3.0695,3.0703,3.0703,3.069,3.069,3.069,3.069,3.069,0.0,0.0,0.0,2.9778,2.7749,2.6446,2.533,2.4035,2.3621,2.339,0.0,0.0,0.0,0.0,0.0,0.0,0.0,0.0,0.0,0.0,0.0,0.0,0.0,0.0,0.0,0.0,0.0,0.0,0.0,0.0,0.0,0.0,0.0,0.0,1.54,1.572,1.5856,1.5856,1.6202,1.6539,1.6811,1.7389,1.8185,1.9075,1.9075,1.8998,1.8875,1.8875,1.8798,1.8664,1.8405,1.8202,1.8066,1.7442,1.6959,1.6533,1.6,1.5726,1.5664,1.5535,1.5867,1.6393,0.0,0.0,0.0,0.0,0.0,0.0,0.0,0.0,0.0,0.0,0.0,1.1189,1.1666,1.0521,0.9775,0.9783,0.8652,0.7901,0.7901,0.7901,0.7901,0.7901,0.7901,0.0,0.8106,0.6587,0.9482,1.7038,1.5441,1.8418,2.564,2.7324,2.6735,2.4274,2.3408,2.414,2.5838,2.2808,2.2847,2.4891,2.499,2.6783,2.9217,2.7186,2.8139,3.061,3.0673,3.07,3.0707,3.0703,3.069,3.069,3.069,3.069,3.0652,0.0,0.0,0.0,2.8484,2.7994,2.7274,2.531,2.4735,2.4085,0.0,0.0,0.0,0.0,0.0,0.0,0.0,0.0,0.0,0.0,0.0,0.0,0.0,0.0,0.0,0.0,0.0,0.0,0.0,0.0,0.0,0.0,0.0,0.0,1.5874,1.6192,1.6374,1.6374,1.6384,1.6394,1.6415,1.7284,1.8185,1.9075,1.9075,1.8808,1.8337,1.8337,1.8066,1.751,1.8066,1.7998,1.7373,1.6881,1.6603,1.6533,1.6,1.5576,1.5317,1.6037,1.6328,1.6378,0.0,0.0,0.0,0.0,0.0,0.0,0.0,0.0,0.0,0.0,0.0,0.0,0.0,1.1294,1.0597,0.9709,0.8429,0.7741,0.7901,0.7901,0.7848,0.7628,0.7794,0.7794,0.7628,0.4307,0.4859,0.9486,1.0831,1.3836,1.8491,2.5043,2.6716,2.4322,2.6467,2.5096,2.1415,2.4704,2.4745,2.2813,2.5821,2.7039,2.6843,2.5674,2.6451,2.8164,0.0,0.0,3.07,3.0653,3.0649,3.0646,3.0406,3.049,3.0642,3.0257,2.9939,2.9452,2.8349,2.7976,2.7564,2.6168,2.533,2.461,2.384,0.0,0.0,0.0,0.0,0.0,0.0,0.0,0.0,0.0,0.0,0.0,0.0,0.0,0.0,0.0,0.0,0.0,0.0,0.0,0.0,0.0,0.0,0.0,1.5177,1.5478,1.572,1.5972,1.6259,1.6653,1.7243,1.7513,1.8185,1.9075,1.9075,1.8808,1.8269,1.8269,1.7998,1.7373,1.7382,1.7245,1.6881,1.6673,1.6403,1.607,1.5867,1.5726,1.5627,1.6135,1.6502,1.6733,0.0,0.0,0.0,0.0,0.0,1.2122,1.2445,1.2493,1.2377,1.2213,0.0,0.0,0.0,0.0,1.1777,1.0396,0.9467,0.8835,0.8435,0.8435,0.8184,0.7521,0.7681,0.7735,0.7628,0.4227,0.4712,0.9239,1.0676,1.3681,1.8232,2.4957,2.6225,2.306,2.7772,2.651,2.117,2.5596,2.5974,2.3793,2.5926,2.674,2.6423,2.4,2.5009,0.0,0.0,0.0,0.0,2.5985,2.6022,2.6004,2.5584,2.7675,3.0224,2.9974,2.9768,2.9413,2.8604,2.8397,2.8149,2.7093,2.6364,2.5622,2.4724,0.0,0.0,0.0,0.0,0.0,0.0,0.0,0.0,0.0,0.0,0.0,0.0,0.0,0.0,0.0,0.0,0.0,0.0,0.0,0.0,0.0,0.0,0.0,1.4942,1.5235,1.5594,1.5904,1.6259,1.6736,1.743,1.7595,1.8102,1.8837,1.8992,1.8731,1.7998,1.8269,1.7862,1.6959,1.6968,1.6899,1.6682,1.6542,1.6272,1.5938,1.5938,1.5867,1.5857,1.6353,1.6696,1.6987,0.0,1.3208,1.3132,1.292,1.3296,1.361,1.3621,1.3573,1.3941,1.4971,0.0,0.0,0.0,0.0,0.0,1.2048,1.1902,1.1254,0.9694,0.9592,0.8958,0.7616,0.7568,0.7676,0.7848,0.6221,0.9012,1.6458,1.5024,1.8079,2.5331,2.7226,2.5226,2.0336,2.6597,2.7954,2.547,2.5062,2.6128,2.7876,2.5138,2.5881,2.7937,2.2098,0.0,0.0,2.9695,2.401,0.0,1.6653,0.0,0.0,0.0,0.0,2.9437,2.9627,2.9561,2.9407,0.0,0.0,0.0,2.8193,0.0,0.0,2.4563,0.0,0.0,0.0,0.0,0.0,0.0,0.0,0.0,0.0,0.0,0.0,0.0,0.0,0.0,0.0,0.0,0.0,0.0,0.0,0.0,0.0,0.0,1.5758,1.541,1.57,1.6066,1.6384,1.6384,1.6591,1.7036,1.7441,1.7947,1.8446,1.8913,1.8529,1.7442,1.8134,1.7647,1.6202,1.689,1.7107,1.6908,1.6482,1.6202,1.6132,1.6132,1.6,1.5891,1.6644,1.6918,1.703,1.3515,1.3467,1.342,1.318,1.3228,1.3362,1.3563,1.3296,1.3573,0.0,0.0,0.0,1.5647,1.4506,1.3611,1.3445,1.234,1.1594,1.1367,1.1545,1.0706,0.8756,0.9085,0.858,0.7079,0.5755,0.6132,0.8255,1.2324,1.5665,1.8434,2.5022,2.558,2.1327,2.6911,2.6908,2.2925,2.5959,2.6647,2.5816,2.6667,2.4648,0.0,0.0,0.0,0.0,0.0,1.9578,1.3437,0.0,1.4829,1.7581,0.0,2.7462,2.9248,2.9597,2.9561,2.9407,2.9407,0.0,0.0,0.0,0.0,0.0,2.6364,2.5697,0.0,0.0,0.0,0.0,0.0,0.0,0.0,0.0,0.0,0.0,0.0,0.0,0.0,0.0,0.0,0.0,0.0,0.0,0.0,0.0,0.0,1.6083,1.5758,1.5874,1.6171,1.6648,1.6488,1.6707,1.7343,1.7563,1.8072,1.8776,1.9251,1.8931,1.7978,1.8182,1.7774,1.689,1.6811,1.6968,1.7254,1.656,1.6272,1.6272,1.6132,1.6061,1.6086,1.6719,1.6918,1.703,1.381,1.3773,1.3668,1.3409,1.3457,1.36,1.3752,1.361,1.3847,0.0,0.0,0.0,1.578,1.5005,1.4552,1.4903,1.4085,1.3289,1.277,1.2977,1.2282,1.0398,0.9981,0.9292,0.8115,0.7961,0.848,0.9695,1.5065,1.8545,2.0334,2.5965,2.6549,2.3021,2.7446,2.6997,2.3187,2.6713,2.7438,2.6148,2.5217,0.0,0.0,1.7967,1.7329,0.0,0.0,0.0,1.4548,1.1222,1.2041,0.0,0.0,0.0,2.9038,0.0,2.9495,2.9407,2.9407,2.9344,2.9262,2.9262,0.0,0.0,2.6827,2.6281,2.5532,0.0,0.0,0.0,0.0,0.0,0.0,0.0,0.0,0.0,0.0,0.0,0.0,0.0,0.0,0.0,0.0,0.0,0.0,0.0,1.6641,1.6197,1.5931,1.5874,1.6171,1.6751,1.6545,1.6623,1.7059,1.7641,1.8154,1.8605,1.9404,1.9253,1.8182,1.8307,1.7833,1.6959,1.6821,1.6899,1.7185,1.6769,1.6482,1.6272,1.6202,1.607,1.6024,1.6636,1.6918,1.703,0.0,1.402,1.3962,1.3668,1.3847,1.4025,1.4061,1.4201,1.449,0.0,1.5198,1.5367,1.5944,1.5768,1.5824,1.6318,1.6362,1.5696,1.4098,1.4304,1.3828,1.233,1.0959,1.0242,1.0258,1.1763,1.3926,1.6713,2.078,2.4266,2.711,2.8558,2.7663,2.4986,2.8001,2.7641,2.4952,2.722,2.7946,2.7163,2.236,2.077,0.0,0.0,1.383,1.7399,1.7768,1.844,1.7936,0.9493,0.9686,0.0,0.0,0.0,0.0,0.0,2.9386,2.9365,2.9365,2.924,2.9089,2.9089,0.0,0.0,2.6782,2.6379,2.5882,0.0,0.0,0.0,0.0,0.0,0.0,0.0,0.0,0.0,0.0,0.0,0.0,0.0,0.0,0.0,0.0,0.0,1.8127,1.7379,1.6698,1.614,1.5874,1.5874,1.6171,1.6807,1.6591,1.6431,1.6488,1.756,1.8148,1.8262,1.953,1.9454,1.8307,1.8442,1.7833,1.6612,1.683,1.6908,1.6908,1.6908,1.67,1.6342,1.6342,1.614,1.5962,1.6644,1.6918,1.703,1.4337,1.4337,1.4244,1.3962,1.3962,1.414,1.4525,1.4294,1.4444,1.5513,1.5659,1.5768,1.6039,1.6355,1.6795,1.7352,1.7434,1.7105,1.6366,1.6747,1.607,1.4002,1.3924,1.3324,1.1978,1.5011,1.7531,1.9353,2.3229,2.6436,2.89,2.8898,2.7801,2.5925,2.7983,2.7414,2.504,2.725,0.0,2.3513,2.2485,0.0,1.9041,1.3357,0.8479,0.4583,0.4111,1.1361,1.9371,0.7253,1.2123,2.3525,0.0,0.0,0.0,2.9304,0.0,0.0,0.0,0.0,0.0,0.0,0.0,0.0,2.874,2.8537,2.8058,0.0,0.0,0.0,0.0,0.0,0.0,0.0,0.0,0.0,0.0,0.0,0.0,0.0,0.0,0.0,0.0,0.0,1.8452,1.8193,1.6989,1.6083,1.5526,1.5758,1.6275,1.7078,1.6864,1.6874,1.711,1.7429,1.7959,1.872,1.9514,1.9533,1.8844,1.8911,1.8172,1.683,1.6908,1.6908,1.6908,1.6908,1.6839,1.676,1.6421,1.6272,1.6228,1.671,1.6918,1.703,1.4373,1.4373,1.4384,1.4244,1.4291,1.4419,1.4686,1.472,1.496,1.5558,1.557,1.5736,1.6225,1.6604,1.713,1.7829,1.8307,1.8569,1.8643,1.8809,1.8559,1.7715,1.6754,1.5853,1.4968,1.6545,1.8464,2.0683,2.3862,2.6773,2.9392,2.9402,2.6194,2.0708,2.6348,2.5296,1.9729,2.5747,2.7203,2.5076,2.1006,0.0,1.3922,0.9169,0.5179,0.1951,0.0739,0.6518,1.4316,1.1392,1.6473,0.0,0.0,2.6151,2.8887,0.0,2.9112,2.898,0.0,0.0,0.0,2.9044,0.0,0.0,0.0,2.8402,2.8074,0.0,0.0,0.0,0.0,0.0,0.0,0.0,0.0,0.0,0.0,0.0,0.0,0.0,0.0,0.0,0.0,0.0,1.8344,1.7512,1.6765,1.6197,1.5864,1.5864,1.6275,1.719,1.7088,1.7032,1.7043,1.769,1.8346,1.9021,1.9794,1.9764,1.8977,1.8977,1.824,1.6908,1.6908,1.6908,1.6908,1.6908,1.6908,1.6839,1.6482,1.6272,1.6228,1.671,1.6994,1.7173,1.428,1.4337,1.4373,1.4373,1.4512,1.4662,1.4697,1.5062,1.5379,1.5468,1.513,1.5186,1.5947,1.593,1.6063,1.6608,1.714,1.7933,1.908,1.8943,1.9426,2.0828,1.9078,1.8073,1.8118,1.8166,1.9491,2.2113,2.4494,2.7028,2.9647,2.9803,2.5505,1.7911,2.3486,2.2447,1.6929,2.2847,0.0,2.5578,0.0,1.4343,1.1242,0.6604,0.4248,0.314,0.1134,0.3873,0.9587,1.6829,2.0509,2.2129,2.2576,2.5511,0.0,0.0,0.0,0.0,0.0,0.0,0.0,0.0,0.0,2.8713,0.0,0.0,0.0,2.7051,0.0,0.0,0.0,0.0,0.0,0.0,0.0,0.0,0.0,0.0,0.0,0.0,0.0,0.0,0.0,0.0,1.8278,1.6652,1.6641,1.6528,1.6255,1.6208,1.6503,1.7245,1.7301,1.72,1.6987,1.7877,1.8654,1.919,1.9897,1.9876,1.9243,1.9044,1.8307,1.7107,1.6968,1.6908,1.6908,1.6908,1.6908,1.6839,1.6482,1.6272,1.6228,1.6784,1.7136,1.7392,1.3858,1.414,1.4373,1.4373,1.443,1.4466,1.4662,1.4743,1.4971,1.5424,1.4312,1.3641,1.4204,1.2949,1.1893,1.1574,1.0867,0.0,1.4891,0.0,1.6049,2.0302,2.0202,2.0145,2.0316,2.1736,2.3325,2.5023,2.7036,2.8879,3.054,2.9811,2.8962,2.7638,1.9118,1.9613,2.6272,1.7934,1.5876,0.0,1.6273,1.7016,0.0,1.2096,0.7417,0.3842,0.1039,0.4869,1.2313,0.0,2.1765,2.2301,0.0,2.658,2.851,2.8767,0.0,0.0,0.0,0.0,0.0,0.0,2.9067,0.0,0.0,0.0,2.9097,2.8975,0.0,0.0,0.0,0.0,0.0,0.0,0.0,0.0,0.0,0.0,0.0,0.0,0.0,0.0,0.0,0.0,0.0,1.6789,1.749,1.739,1.6036,1.6652,1.7224,1.7656,1.7645,1.7656,1.7601,1.7712,1.826,1.919,1.9616,1.9884,1.9966,1.9309,1.8576,1.7833,1.7166,1.6908,1.6908,1.6908,1.6908,1.6908,1.6682,1.6542,1.6641,1.7229,1.7446,1.7552,1.3858,1.3962,1.4046,1.4046,1.4233,1.4419,1.4512,1.4743,1.5302,1.6336,1.5913,1.6083,1.7588,0.0,0.0,0.0,0.0,1.4924,0.0,0.0,1.859,2.1932,0.0,0.0,2.1828,2.4463,2.6008,2.6268,2.8593,2.9945,3.0345,2.9693,2.6304,2.0564,1.5793,0.0,1.6375,0.0,1.54,0.0,0.0,0.0,0.0,1.0617,0.5892,0.4304,0.4183,0.7357,1.2228,0.0,1.8981,0.0,0.0,0.0,0.0,0.0,0.0,0.0,0.0,0.0,0.0,0.0,0.0,0.0,2.9344,0.0,2.9365,0.0,0.0,0.0,0.0,0.0,0.0,0.0,0.0,0.0,0.0,0.0,0.0,0.0,0.0,0.0,0.0,0.0,0.0,0.0,0.0,1.7247,1.6197,1.6482,1.7,1.7656,1.7877,1.7877,1.7711,1.7865,1.8442,1.9499,1.9629,1.9828,2.0096,1.9309,1.8633,1.7969,1.7245,1.6908,1.6908,1.6908,1.6908,1.6908,1.683,1.6682,1.6702,1.7302,1.7587,1.7769,1.3752,1.381,1.3905,1.3952,1.4197,1.451,1.4782,1.5211,1.5948,1.7272,1.6995,0.0,1.8915,1.7545,0.0,0.0,1.4097,1.4221,0.0,0.0,1.8228,0.0,0.0,0.0,0.0,0.0,2.7532,2.7056,2.9486,3.0472,3.0096,2.9634,2.5465,1.8219,1.5116,1.3073,1.1945,0.0,1.4176,1.8791,1.8552,1.7848,1.6275,0.9518,0.583,0.4558,0.6638,0.9024,1.1571,1.3824,1.7491,0.0,1.9838,0.0,0.0,0.0,0.0,0.0,2.7851,0.0,0.0,0.0,0.0,0.0,0.0,0.0,0.0,0.0,0.0,0.0,0.0,0.0,0.0,2.9178,0.0,0.0,0.0,0.0,0.0,0.0,0.0,0.0,0.0,0.0,0.0,0.0,1.7943,0.0,1.6641,1.6595,1.6933,1.7755,1.7986,1.803,1.7822,1.7975,1.8531,1.947,1.962,1.9882,2.0167,1.9575,1.8911,1.824,1.7501,1.7107,1.6908,1.6908,1.6908,1.6908,1.6908,1.683,1.6763,1.7324,1.7647,1.7986,1.3409,1.3836,1.4222,1.4373,1.4384,1.476,0.0,0.0,0.0,0.0,0.0,0.0,0.0,0.0,0.0,0.0,0.0,0.4781,0.8597,0.0,1.1583,0.0,0.0,2.1494,0.0,0.0,0.0,2.7652,2.9639,3.0433,3.0096,2.9687,2.919,2.8192,1.8222,1.6977,2.1666,1.1505,0.8875,1.1448,1.0741,0.8528,0.6165,0.0,0.9358,0.4616,0.7072,0.0,0.0,1.7423,1.9162,0.0,0.0,0.0,0.0,0.0,0.0,0.0,0.0,0.0,0.0,2.8907,0.0,0.0,0.0,0.0,2.9492,0.0,0.0,0.0,0.0,0.0,2.9569,2.9251,2.8997,0.0,0.0,0.0,0.0,0.0,0.0,0.0,0.0,0.0,0.0,0.0,1.9393,0.0,1.7435,1.7257,1.7435,1.8084,1.8084,1.8084,1.8084,1.8084,1.8403,1.8919,1.9447,1.9953,2.0385,2.0145,1.9639,1.8911,1.824,1.7569,1.6908,1.6908,1.6908,1.6908,1.6908,1.6908,1.6954,1.7367,1.777,1.8108,1.3621,1.4062,1.4275,1.391,1.4408,0.0,0.0,1.6741,0.0,0.0,0.0,0.0,0.0,1.2565,1.0952,0.0,0.0,0.7519,0.9108,1.2004,0.0,0.0,0.0,2.1556,0.0,0.0,0.0,0.0,2.9658,3.0306,2.9761,2.959,2.9208,2.8278,1.8253,1.5682,0.0,0.0,0.0,0.0,0.0,0.9339,0.8307,0.0,0.0,0.672,0.857,1.0383,0.0,1.4317,1.6623,1.8467,1.7839,1.9542,2.1557,2.0121,2.144,0.0,0.0,0.0,2.637,2.6967,0.0,0.0,0.0,0.0,0.0,0.0,0.0,0.0,0.0,2.9569,2.9511,2.9349,2.9052,2.8803,0.0,0.0,0.0,0.0,0.0,0.0,0.0,0.0,0.0,2.0137,1.8979,1.8109,0.0,1.7112,1.7234,1.8259,1.8193,1.8084,1.8084,1.8084,1.8391,1.8896,1.9436,1.9941,2.0362,2.0209,1.9704,1.8977,1.8307,1.7569,1.6908,1.6908,1.6908,1.6908,1.6908,1.6908,1.6954,1.7348,1.7761,1.8145,1.4213,1.4555,1.4568,0.0,0.0,0.0,0.0,0.0,0.0,0.0,1.4552,0.0,1.3386,0.0,1.1046,0.0,0.8743,0.8265,0.9439,1.1741,0.0,0.9296,1.5936,0.0,0.0,0.0,0.0,0.0,0.0,3.0072,2.9781,2.9613,2.923,2.8433,2.1954,1.8271,1.6645,1.2357,0.9781,0.0,0.0,0.8511,0.0,0.0,0.9062,0.0,0.0,1.1852,1.3049,1.3562,1.5412,1.7286,1.584,1.7295,1.9241,1.7851,1.9108,2.1063,2.1614,2.3111,0.0,0.0,2.662,0.0,2.8654,0.0,0.0,0.0,0.0,0.0,0.0,0.0,2.9314,2.8893,2.8766,2.87,0.0,2.7971,0.0,0.0,0.0,0.0,0.0,0.0,2.2324,2.0633,1.9251,1.8335,0.0,0.0,1.7401,1.8367,1.8302,1.8247,1.8084,1.8193,1.8409,1.8744,1.9448,1.9957,2.0231,2.0448,2.0161,1.9365,1.8633,1.7969,1.7304,1.7038,1.6908,1.6908,1.6908,1.6908,1.6936,1.7193,1.7642,1.8163,1.5091,1.5216,0.0,0.0,1.5742,0.0,0.0,0.0,1.4991,0.0,1.3714,1.1744,1.2303,1.0118,0.865,0.865,0.6742,0.0,0.9039,0.9439,0.0,0.0,1.0009,0.9118,0.3234,0.0,0.0,0.0,0.0,2.9804,3.0096,2.9752,2.9424,2.9089,2.8746,0.0,1.6999,1.6999,1.26,0.5617,0.5822,0.5877,0.624,0.98,0.0,1.2547,1.2999,1.316,1.3518,1.508,1.5614,1.5672,1.5478,1.541,1.541,1.541,1.5459,1.6269,1.9856,2.0962,2.203,2.5782,0.0,0.0,0.0,0.0,2.6594,0.0,0.0,0.0,0.0,0.0,0.0,2.8013,2.826,2.8515,2.8237,2.7659,0.0,0.0,0.0,0.0,0.0,2.4236,2.3186,2.1116,2.018,1.9401,0.0,0.0,0.0,1.8422,1.8518,1.8452,1.8139,1.8452,1.8518,1.8433,1.9573,2.0006,1.9936,2.0935,2.0944,2.0107,1.9375,1.8643,1.7969,1.7235,1.6908,1.6908,1.6908,1.6908,1.6908,1.6954,1.7458,1.8163,1.5018,1.5415,1.5881,0.0,1.6746,1.7197,0.0,0.0,0.0,0.0,1.0606,0.848,0.6673,0.6343,0.6244,0.6244,0.5741,0.0,0.0,0.0,0.0,0.3723,0.9596,0.9798,0.3001,1.4988,0.0,1.8287,0.0,0.0,3.0016,2.9732,2.9427,2.9082,2.8795,2.4314,1.6999,1.6999,1.26,0.5617,0.5951,0.7397,0.0,0.0,1.1864,1.4846,1.3852,1.4273,1.5158,1.4114,1.4641,1.573,1.573,1.5604,1.541,1.5604,1.6327,1.7049,1.6885,1.9296,2.1955,2.2483,2.404,2.5782,0.0,0.0,0.0,0.0,0.0,0.0,0.0,0.0,0.0,2.8603,2.8608,2.8518,2.83,0.0,0.0,2.7582,0.0,0.0,0.0,2.4213,2.2965,2.1992,2.0191,0.0,0.0,0.0,0.0,1.8691,1.8625,1.856,1.8452,1.856,1.856,1.8583,1.9618,2.0053,2.01,2.1143,2.121,2.0473,2.0161,1.9288,1.8142,1.7833,1.7373,1.6908,1.6908,1.6908,1.6982,1.7587,1.7862,1.7929,1.5654,1.5949,0.0,1.6743,0.0,0.0,1.658,0.0,0.0,1.211,0.9556,0.0,0.6561,0.5847,0.5428,0.5428,0.5428,0.0,0.6974,0.0,0.0,0.4145,0.6991,0.605,0.0599,1.0532,0.0,1.4895,0.0,0.0,2.9177,2.9498,2.9524,2.9309,2.8897,2.4775,1.7792,1.1827,0.8371,0.653,0.3437,0.0,0.0,0.9086,1.0656,1.2586,1.1783,1.351,1.6056,1.4789,1.5061,1.5894,1.5914,1.5788,1.5662,1.573,1.6301,1.6993,1.7454,1.9358,2.1453,2.2396,2.2897,2.3696,2.5794,2.5357,2.4879,0.0,0.0,0.0,0.0,0.0,0.0,2.8576,2.8587,0.0,0.0,0.0,0.0,0.0,0.0,0.0,0.0,0.0,0.0,0.0,0.0,0.0,0.0,0.0,0.0,1.8798,1.8786,1.8721,1.8614,1.8721,1.8732,1.8691,1.9492,1.9983,2.0193,2.0885,2.1146,2.0921,2.0161,1.9299,1.8489,1.7833,1.7304,1.6908,1.6908,1.6839,1.6851,1.7211,1.7353,1.7308,1.6497,1.657,0.0,0.0,0.0,0.0,0.0,1.3485,0.0,1.2394,0.0,0.7501,0.86,0.6854,0.5554,0.5428,0.0,0.6485,0.8537,0.6607,0.5611,0.6057,0.3983,0.1248,-0.2071,0.471,0.0,0.0,0.0,0.0,2.8426,2.9327,2.9706,2.9586,2.9027,0.0,0.0,0.473,0.1822,0.516,-0.0591,0.0282,0.5297,0.8186,0.9012,0.8706,0.9058,1.2019,1.5671,1.5477,1.5545,1.5748,1.5904,1.5914,1.5914,1.5914,1.5914,1.6472,1.9115,1.9961,2.0721,2.3126,2.1999,2.1084,2.4201,2.3106,2.2203,2.4684,2.6016,0.0,0.0,0.0,0.0,2.8047,0.0,0.0,0.0,0.0,0.0,0.0,0.0,0.0,0.0,0.0,0.0,0.0,0.0,0.0,0.0,0.0,0.0,0.0,1.8893,0.0,1.8667,0.0,1.8774,1.8691,1.9264,1.9737,2.017,2.0489,2.088,2.1187,1.9694,1.8967,1.8767,1.7579,1.6968,1.6908,1.6908,1.6691,1.6492,1.6453,1.6269,1.6138,1.656,0.0,0.0,0.0,0.0,1.287,1.1912,1.0239,0.9068,0.9137,0.7177,0.5796,0.6052,0.6576,0.6453,0.5491,0.633,0.0,0.0,0.0,0.0,0.5508,0.5134,0.33,-0.0065,0.7198,1.1526,0.0,0.0,0.0,3.0079,3.0053,2.9888,2.9601,2.9265,0.0,0.9599,0.2417,0.0,-0.843,-0.4472,-0.225,-0.0545,0.6614,0.9081,0.9035,1.0678,1.1593,1.2034,1.1859,1.2731,1.4182,1.5806,1.6087,1.5914,1.6009,1.6019,1.6019,1.6564,1.8489,2.0145,1.9434,2.0673,2.1985,2.136,2.184,2.2542,2.3008,2.43,2.5357,2.5373,0.0,0.0,0.0,0.0,0.0,0.0,0.0,0.0,0.0,0.0,0.0,0.0,0.0,0.0,0.0,0.0,0.0,0.0,0.0,0.0,0.0,0.0,0.0,0.0,0.0,0.0,1.8224,1.9206,1.9631,1.9572,2.0455,2.0794,2.0655,1.9694,1.889,1.8345,1.7959,1.7432,1.6908,1.6908,1.6403,1.5769,1.6304,1.5258,1.3787,0.0,0.0,0.0,0.0,0.0,0.0,0.0,0.7668,0.0,0.857,0.7668,0.7057,0.7338,0.6681,0.6005,0.5425,0.5943,0.6005,0.5428,0.5428,0.4948,0.3862,0.4812,0.0,-0.1034,0.5139,0.9053,1.0433,0.0,0.0,2.8005,2.9427,2.9999,2.9525,2.2829,1.6011,0.0,0.0,0.0,-1.1195,-1.2129,-1.0566,-0.688,0.0268,0.2866,0.3312,0.7412,0.8775,0.896,1.1561,1.2989,1.3987,1.5806,1.6269,1.6144,1.6249,1.6192,1.6343,1.7125,1.8301,1.9345,1.9408,1.9837,2.0283,2.0273,2.0296,2.0708,2.2286,2.3213,2.4143,2.5422,2.5757,0.0,0.0,0.0,0.0,0.0,0.0,0.0,0.0,0.0,0.0,0.0,0.0,0.0,0.0,0.0,0.0,0.0,0.0,0.0,0.0,0.0,0.0,0.0,0.0,0.0,1.7655,1.8324,1.8726,1.9059,1.9446,1.9814,2.0009,1.9034,1.8422,1.8085,1.7638,1.7019,1.6333,1.6184,1.5613,1.4697,1.4699,1.3931,1.2995,0.0,1.5728,0.0,0.0,1.1121,0.0,0.7973,0.6032,0.565,0.7985,0.7968,0.7856,0.8365,0.6858,0.5686,0.5428,0.562,0.5686,0.5425,0.5428,0.4677,0.3121,0.4538,0.344,-0.0715,0.2564,0.5435,0.0,0.0,0.0,0.0,2.795,0.0,0.0,0.0,0.0,0.0,0.0,-1.6897,-1.4513,-1.943,-1.8473,-1.3411,-0.7198,-0.4839,-0.4224,0.0569,0.3123,0.4961,0.935,1.1908,1.3544,1.4857,1.5796,1.6316,1.5921,1.6114,1.6673,1.7878,1.8325,1.8589,1.9535,1.9022,1.8472,1.9292,1.8827,1.8894,2.1293,2.1985,2.2819,2.4926,2.5083,0.0,0.0,0.0,0.0,0.0,0.0,0.0,0.0,0.0,0.0,0.0,0.0,0.0,0.0,0.0,0.0,0.0,0.0,0.0,0.0,0.0,0.0,1.7567,0.0,1.6866,0.0,1.7434,1.7945,1.8466,1.85,1.8767,1.9233,1.823,1.7774,1.7706,1.7176,1.6482,1.5762,1.5604,1.4792,1.3778,1.3192,1.2797,1.2525,0.0,0.0,0.0,0.0,0.0,0.0,0.0,0.5905,0.4818,0.5401,0.5609,0.5679,0.5741,0.6515,0.6584,0.5491,0.6392,0.6584,0.5491,0.5428,0.5292,0.5153,0.5292,0.5153,0.4668,0.2157,0.2847,0.0,0.0,0.0,0.0,0.0,0.0,0.0,0.0,0.0,0.0,-1.6024,-2.1719,-2.7377,-2.3116,-2.1048,-1.9853,-1.3629,-1.1254,-1.1179,-1.0595,-0.6802,-0.1785,0.0101,0.5478,1.1417,1.1539,1.3782,1.6056,1.439,1.509,1.6431,1.6581,1.7598,1.8354,1.7124,1.7739,1.8301,1.7079,1.7739,1.8738,1.9037,2.0036,2.1504,2.3615,2.2746,2.209,0.0,0.0,0.0,0.0,0.0,0.0,0.0,0.0,0.0,0.0,0.0,0.0,0.0,0.0,0.0,0.0,0.0,0.0,0.0,0.0,1.8186,1.8744,1.662,0.0,1.6368,1.7324,1.7698,1.7647,1.8238,1.8442,1.8307,1.7373,1.6968,1.6978,1.6908,1.6482,1.5762,1.5604,1.4655,1.3348,1.3118,1.2444,1.1643,0.0,0.0,0.0,0.0,0.0,0.0,0.0,0.5011,0.4625,0.4758,0.5024,0.5292,0.5362,0.5815,0.5943,0.5428,0.5811,0.5943,0.5428,0.5428,0.5428,0.5428,0.4268,0.2644,0.0718,-0.0648,-0.0739,0.0,0.0,0.0,0.0,0.0,0.0,0.0,0.0,-0.6837,-1.3821,-2.1089,-2.6266,-2.9419,-2.7211,-2.6592,-2.6294,-2.0058,-1.7686,-1.7192,-1.3433,-1.0527,-0.7846,-0.4035,0.2811,1.0145,1.2261,1.3933,1.5197,1.5648,1.628,1.6864,1.6864,1.7191,1.7423,1.6797,1.6978,1.7158,1.6524,1.6866,1.7598,1.8489,2.0296,2.1893,2.2761,2.2966,2.2981,0.0,0.0,0.0,0.0,0.0,0.0,0.0,0.0,0.0,0.0,0.0,0.0,0.0,0.0,0.0,0.0,0.0,0.0,1.9697,0.0,1.718,1.7335,1.6073,1.5526,1.5758,1.6728,1.7096,1.7053,1.7598,1.7716,1.7373,1.7038,1.6908,1.6908,1.6908,1.6403,1.5542,1.4879,1.3932,1.2766,1.2195,1.1502,1.0926,0.9531,0.0,0.8782,0.0,0.6408,0.5967,0.4495,0.4431,0.4561,0.4558,0.4824,0.5024,0.5292,0.5362,0.5428,0.5428,0.5428,0.5428,0.5428,0.5428,0.5428,0.5428,0.4064,0.0,-0.0976,-0.2388,-0.3655,-0.484,0.2294,0.0,0.0,0.0,0.0,0.0,-0.8489,-1.3554,-1.669,-2.4682,-2.8403,-2.8965,-2.9424,-2.99,-2.9917,-2.5736,-2.4133,-2.3566,-1.9161,-1.6398,-1.4273,-1.0574,-0.2739,0.6113,1.0127,1.1062,1.1209,1.3887,1.5446,1.6327,1.6327,1.6652,1.692,1.6818,1.6705,1.6591,1.6545,1.6545,1.6922,1.8407,1.9712,2.0775,2.1503,2.2267,2.2728,0.0,0.0,0.0,0.0,0.0,0.0,0.0,2.1042,2.0904,2.0505,0.0,0.0,0.0,0.0,0.0,0.0,0.0,0.0,0.0,0.0,0.0,0.0,0.0,1.541,1.542,1.6309,1.6665,1.6704,1.7293,1.7254,1.6908,1.6908,1.6908,1.676,1.6551,1.5895,1.4887,1.3867,1.2947,1.2026,1.1204,1.0481,0.9899,0.7604,0.7352,0.6724,0.4688,0.4367,0.43,0.43,0.43,0.4367,0.4561,0.4625,0.4758,0.5087,0.5292,0.5428,0.5428,0.5428,0.5428,0.5428,0.5428,0.5428,0.0,0.0,0.4403,0.2384,-0.2178,-0.5531,-0.7443,0.0,0.0,-0.2905,0.0,0.0,-0.6191,-0.8222,-1.435,-2.3346,-2.6125,-2.7331,-2.7458,-2.8994,-2.9601,-2.9679,-3.0341,-3.0586,-3.0586,-3.0501,-2.6521,-2.13,-2.1441,-1.3138,-0.1864,0.3294,0.3691,0.311,0.7406,1.1348,1.4363,1.4363,1.5706,1.7134,1.6864,1.6976,1.7134,1.6874,1.6818,1.7146,1.846,1.75,1.7224,1.9649,1.9788,2.0078,2.1657,0.0,0.0,0.0,0.0,0.0,0.0,2.1955,2.1595,2.0333,0.0,0.0,0.0,0.0,0.0,0.0,0.0,0.0,1.8715,1.7829,0.0,1.739,1.6073,1.541,1.542,1.6309,1.6665,1.6704,1.7293,1.7254,1.6908,1.6908,1.676,1.6533,1.5824,1.4816,1.3593,1.2712,1.1725,1.0869,1.039,0.948,0.8412,0.5328,0.5266,0.5074,0.4431,0.43,0.43,0.43,0.43,0.43,0.4364,0.4495,0.4625,0.4758,0.5024,0.5223,0.0,0.5292,0.5428,0.0,0.5428,0.5428,0.5428,0.279,0.1059,0.0463,-0.5492,-0.8919,-0.9543,0.0,0.0,0.0,-0.4427,-0.7788,-1.5923,-1.7892,-2.0483,-2.3447,-2.564,-2.6842,-2.7337,-2.7822,-2.8332,-2.8858,-2.9656,-2.9941,-3.0019,-3.0511,-2.9418,-2.7192,-2.3651,-2.2178,-2.0178,-1.0668,-0.0929,0.7539,1.0322,1.2897,1.4907,1.4907,1.6208,1.7534,1.7423,1.7323,1.7211,1.7088,1.692,1.6909,1.7335,1.8043,1.8806,1.9636,2.0908,2.196,2.2452,0.0,0.0,0.0,0.0,0.0,0.0,0.0,2.0181,0.0,1.9927,0.0,0.0,0.0,0.0,0.0,0.0,0.0,0.0,1.7567,0.0,1.6832,1.5864,1.541,1.542,1.6166,1.6699,1.7063,1.7192,1.7176,1.6908,1.6403,1.6044,1.5745,1.4411,1.3389,1.2604,1.1615,1.059,0.9614,0.9032,0.8056,0.7115,0.43,0.43,0.43,0.43,0.43,0.43,0.43,0.43,0.43,0.43,0.4431,0.4495,0.4495,0.4758,0.0,0.4957,0.5156,0.5292,0.5292,0.5359,0.5014,0.4127,0.2586,0.0595,-0.1782,0.0,0.0,-0.9705,-0.8758,-0.915,-1.0833,-1.0833,-1.3408,-1.8187,-2.0197,-2.1482,-2.2309,-2.4264,-2.5812,-2.6917,-2.7183,-2.7592,-2.8087,-2.8848,-2.9343,-2.9653,-3.0111,-3.0453,-3.0191,-2.6878,-2.6408,-2.5555,-1.5993,-0.4849,0.4955,0.623,0.9628,1.3127,1.392,1.5387,1.688,1.7412,1.749,1.7379,1.7088,1.692,1.692,1.7213,1.8163,1.9275,2.0091,2.137,2.2434,2.2766,0.0,2.2231,0.0,0.0,0.0,0.0,0.0,0.0,0.0,1.9475,0.0,0.0,0.0,0.0,0.0,0.0,0.0,1.8004,1.6989,0.0,1.6363,1.571,1.541,1.542,1.6104,1.6702,1.7166,1.689,1.6673,1.6403,1.5683,1.5029,1.4355,1.302,1.1905,1.0965,0.9951,0.8918,0.7975,0.7498,0.6548,0.5442,0.43,0.43,0.0,0.0,0.43,0.0,0.43,0.43,0.43,0.43,0.43,0.43,0.43,0.4495,0.4628,0.4764,0.0,0.0,0.0,0.5156,0.4265,0.2113,0.3794,0.0,-0.3765,-0.326,-0.4745,-0.8516,-1.1093,-1.3045,-1.4387,-1.4387,-1.4446,-1.4675,-1.6588,-1.8461,-2.034,-2.2382,-2.4335,-2.6139,-2.6801,-2.7137,-2.7306,-2.8051,-2.8786,-2.946,-2.955,-3.0038,-3.0626,-3.0685,-2.6835,-2.103,-1.5216,-0.884,-0.3346,-0.2497,0.323,0.9681,1.1563,1.3617,1.5511,1.6733,1.7357,1.7545,1.6976,1.6807,1.7011,1.7763,1.7958,1.8672,2.0811,2.1274,2.1635,2.2737,2.237,2.1949,2.1746,0.0,0.0,0.0,0.0,0.0,0.0,1.9438,1.9044,0.0,0.0,0.0,0.0,0.0,0.0,1.6807,1.6202,1.5914,1.5914,1.5594,1.5439,1.5459,1.6038,1.66,1.7097,1.6254,1.5833,1.5613,1.4744,1.3708,1.2517,1.1483,1.0226,0.8912,0.7824,0.6803,0.6037,0.5826,0.4821,0.3398,0.0,0.0,0.43,0.43,0.43,0.43,0.43,0.43,0.43,0.43,0.43,0.43,0.43,0.4367,0.4367,0.4434,0.4697,0.4957,0.5087,0.4077,0.3336,0.293,0.0531,-0.1459,-0.2986,-0.5658,-0.7994,-1.0014,-1.0642,-1.165,-1.2976,-1.2976,-1.3777,-1.5284,-1.7213,-1.8606,-1.9572,-2.1629,-2.3335,-2.4681,-2.4863,-2.5551,-2.655,-2.7291,-2.7669,-2.8017,-2.9183,-2.9701,-2.9941,-3.0516,-2.9724,-2.8236,-2.6765,-1.8755,-0.8039,0.1393,0.6639,0.9379,0.9869,1.2522,1.5253,1.5568,1.669,1.7601,1.72,1.6976,1.6864,1.7067,1.7556,1.8419,1.9724,2.0699,2.1635,2.2737,2.237,2.1793,2.1251,0.0,0.0,0.0,1.9198,1.8987,1.891,1.8709,1.8762,0.0,0.0,0.0,0.0,0.0,1.7884,1.6545,1.6087,1.5914,1.5914,1.5594,1.5633,1.5999,1.59,1.599,1.6114,1.5321,1.4593,1.3924,1.2961,1.1851,1.065,0.903,0.791,0.6957,0.5737,0.4962,0.4138,0.2543,0.1507,0.0714,0.3892,0.4097,0.4233,0.4097,0.4164,0.43,0.43,0.43,0.43,0.43,0.43,0.43,0.43,0.43,0.4164,0.3825,0.4359,0.4486,0.3875,0.3203,0.2131,0.0597,-0.0531,-0.2192,-0.4458,-0.5487,-0.7297,-0.9832,-0.9642,-1.0266,-1.1589,-1.2219,-1.308,-1.4177,-1.5806,-1.7386,-1.8861,-1.9946,-2.1537,-2.3366,-2.3938,-2.4634,-2.5389,-2.6426,-2.7017,-2.7423,-2.8256,-2.8772,-2.9109,-2.9511,-2.9882,-2.9698,-2.6834,-2.1534,-1.4477,-0.4874,0.2681,0.8158,0.9075,1.1563,1.4231,1.578,1.6743,1.7211,1.692,1.6818,1.6909,1.7268,1.7763,1.8631,2.0091,2.0908,2.1635,2.2737,2.2263,2.1575,2.1126,2.0295,0.0,1.9158,1.8905,1.8744,1.8614,1.8464,1.8518,1.8738,0.0,0.0,1.8124,1.795,1.7479,1.6591,1.6144,1.5914,1.5914,1.5369,1.5109,1.5089,1.5076,1.4886,1.4657,1.3867,1.3055,1.2151,1.1205,1.0082,0.8798,0.7279,0.6067,0.502,0.3645,0.2631,0.1824,0.0354,-0.0803,-0.1875,0.3825,0.3894,0.3894,0.3756,0.3825,0.3964,0.3964,0.3964,0.3964,0.3964,0.3964,0.3964,0.3964,0.3964,0.3692,0.3084,0.3751,0.368,0.2335,0.2202,0.0732,-0.2389,-0.093,-0.1991,-0.6272,-0.4449,-0.515,-0.8581,-0.8264,-0.8954,-1.0586,-1.172,-1.2533,-1.2967,-1.4112,-1.5924,-1.8102,-1.8102,-1.961,-2.2016,-2.3122,-2.3716,-2.4035,-2.5141,-2.6117,-2.6835,-2.696,-2.7537,-2.8247,-2.8369,-2.8917,-2.8661,-2.3372,-2.1558,-2.035,-1.5065,-0.5387,0.4145,0.6748,0.9797,1.3025,1.6136,1.6909,1.6818,1.6545,1.6602,1.6909,1.7611,1.7915,1.8643,2.0453,2.0908,2.1383,2.2328,2.1908,2.1321,2.1077,0.0,1.9368,1.9223,1.8958,1.8744,1.8614,1.8464,1.8313,1.8139,1.803,0.0,0.0,1.7011,1.6797,1.6524,1.6019,1.5672,1.5488,1.4919,1.4354,1.381,1.3889,1.3658,1.3201,1.2331,1.1286,1.0151,0.9588,0.8452,0.6765,0.5687,0.452,0.3182,0.1501,0.0256,-0.0697,-0.1506,-0.2943,-0.4461,0.3756,0.2952,0.248,0.3151,0.2748,0.228,0.2415,0.2415,0.2415,0.2415,0.2415,0.2415,0.2415,0.2415,0.2415,0.228,0.2414,0.221,0.1536,0.0401,-0.0735,-0.1735,-0.3072,-0.4079,-0.4686,-0.4746,-0.5474,-0.6802,-0.6736,-0.814,-1.0913,-1.1169,-1.2578,-1.4982,-1.5177,-1.6063,-1.7368,-1.7368,-1.8572,-2.0558,-2.0726,-2.1509,-2.2556,-2.2747,-2.3594,-2.4772,-2.5377,-2.6411,-2.757,-2.8185,-2.8906,-2.9363,-2.8449,-2.5004,-2.1133,-2.0223,-1.4856,-0.8024,-0.2503,0.551,1.2778,1.4694,1.6182,1.7088,1.6818,1.6591,1.6488,1.6637,1.6694,1.7101,1.827,1.9224,2.0053,2.0617,2.1099,2.1175,0.0,0.0,1.9368,1.9223,1.8958,1.8744,1.8614,1.8464,1.8313,1.8139,1.7611,1.7157,1.6606,1.614,1.568,1.5186,1.5099,1.4619,1.3614,1.4115,1.4155,1.381,1.3116,1.2635,1.2412,1.0783,0.912,0.7668,0.8255,0.6703,0.375,0.3673,0.2858,0.1503,-0.0681,-0.1737,-0.2387,-0.4537,-0.6219,-0.7428,0.3153,0.2482,0.1945,0.2147,0.2012,0.1945,0.2012,0.2079,0.208,0.208,0.208,0.208,0.208,0.208,0.1946,0.1612,0.1544,0.1141,0.0067,-0.0602,-0.1405,-0.2345,-0.362,-0.4425,-0.4755,-0.5282,-0.5877,-0.6671,-0.7102,-0.8243,-1.0027,-1.1341,-1.2647,-1.3999,-1.4647,-1.541,-1.6255,-1.6255,-1.7136,-1.8649,-1.9382,-2.026,-2.1193,-2.1925,-2.3036,-2.4255,-2.4604,-2.5548,-2.6749,-2.7094,-2.771,-2.8391,-2.8832,-2.7498,-2.5841,-2.6275,-1.7252,-0.6282,-0.2346,0.534,1.2718,1.4384,1.6172,1.7368,1.692,1.6818,1.6761,1.6431,1.6488,1.6899,1.7807,1.8419,1.9184,2.0591,2.0617,0.0,0.0,2.0042,1.9356,1.8869,1.8667,1.829,1.7667,1.7556,1.739,1.7168,1.681,1.6404,1.6016,1.568,1.5167,1.4538,1.451,1.3865,1.2453,1.2745,1.2398,1.1464,1.124,1.0771,1.0179,0.8817,0.7766,0.6865,0.6005,0.3999,0.1271,0.0964,0.0165,-0.1191,-0.3177,-0.4361,-0.5144,-0.6838,-0.8066,-0.9122,0.2348,0.1812,0.1208,0.1143,0.1209,0.1276,0.1343,0.1477,0.1544,0.1544,0.1611,0.1612,0.1612,0.1476,0.1141,0.0605,0.047,-0.0201,-0.1476,-0.1738,-0.214,-0.2753,-0.3424,-0.4159,-0.4891,-0.5415,-0.6071,-0.6793,-0.7603,-0.8431,-0.9406,-1.1527,-1.2594,-1.2846,-1.3992,-1.4843,-1.541,-1.541,-1.6026,-1.7069,-1.8272,-1.9034,-1.9636,-2.081,-2.2093,-2.3251,-2.3251,-2.4349,-2.5742,-2.5742,-2.6411,-2.7378,-2.7961,-2.8791,-2.9682,-3.0267,-1.9406,-0.6538,-0.3566,0.3254,1.0207,1.3409,1.5598,1.6978,1.692,1.7032,1.6976,1.6488,1.6545,1.6909,1.7501,1.7807,1.8525,2.0053,0.0,0.0,0.0,1.9773,1.8963,1.8363,1.8159,1.7776,1.6877,1.6821,1.6652,1.6301,1.6073,1.5786,1.5429,1.5167,1.4647,1.3812,1.3674,1.2964,1.1458,1.1357,1.069,0.9472,0.9558,0.9064,0.8071,0.7387,0.6468,0.5315,0.3376,0.119,-0.0968,-0.1875,-0.2758,-0.3709,-0.5545,-0.7004,-0.8138,-0.8852,-1.0019,-1.131,0.1609,0.047,-0.0337,0.0403,-0.0067,-0.0539,-0.0337,-0.0202,-0.0135,-0.0135,0.0067,0.0135,0.0135,-0.0471,-0.0873,-0.0941,-0.1477,-0.221,-0.3008,-0.3671,-0.3476,-0.2213,-0.2753,-0.3493,-0.4367,-0.4891,-0.5547,-0.6461,-0.7186,-0.835,-0.9952,-1.1169,-1.2227,-1.3009,-1.4163,-1.4942,-1.541,-1.541,-1.5748,-1.6415,-1.7069,-1.7401,-1.7512,-1.8135,-1.9261,-2.0496,-2.0496,-2.2169,-2.4349,-2.4349,-2.562,-2.7221,-2.7345,-2.8357,-2.9535,-2.9652,-2.5101,-1.8739,-1.2824,-0.5245,0.2861,1.0581,1.3762,1.5436,1.6899,1.7043,1.6761,1.6431,1.6441,1.6431,1.6488,1.7357,1.7861,1.7413,0.0,0.0,1.8201,1.8061,1.7952,1.7776,1.76,1.7268,1.6821,1.6821,1.6652,1.6301,1.568,1.5157,1.4972,1.4282,1.345,1.2451,1.2143,1.1481,1.0441,1.0238,0.9938,0.9472,0.9045,0.8228,0.7218,0.7111,0.5076,0.156,0.0399,-0.1128,-0.2921,-0.4662,-0.5266,-0.5282,-0.7299,-0.9165,-1.0877,-1.0864,-1.2653,-1.504,0.0941,0.0067,-0.0674,-0.0337,-0.0606,-0.0742,-0.0674,-0.0942,-0.1075,-0.0942,-0.1277,-0.1412,-0.1344,-0.1544,-0.1745,-0.1745,-0.1946,-0.2213,-0.2477,-0.3207,-0.3939,-0.4737,-0.5008,-0.5279,-0.5613,-0.5811,-0.6268,-0.706,-0.8076,-0.9099,-1.0123,-1.1224,-1.1851,-1.2235,-1.3235,-1.3734,-1.3974,-1.4597,-1.5186,-1.5748,-1.5968,-1.6528,-1.7202,-1.7435,-1.8631,-2.0126,-1.9724,-2.1016,-2.3036,-2.3485,-2.4398,-2.5556,-2.6879,-2.7997,-2.9003,-2.998,-2.8795,-2.58,-1.957,-0.9067,0.2062,1.0247,1.3584,1.5244,1.6877,1.7043,1.6705,1.6431,1.6384,1.6384,1.6384,1.674,1.7146,1.7556,0.0,1.8004,1.8447,1.8244,1.782,1.7213,1.7045,1.6652,1.5758,1.57,1.5536,1.5186,1.4843,1.4538,1.435,1.3494,1.2553,1.1568,1.0639,0.9988,0.9668,0.914,0.8651,0.828,0.6973,0.615,0.5597,0.4128,0.2336,0.039,-0.1279,-0.3424,-0.5726,-0.6726,-0.7625,-0.85,-1.054,-1.2099,-1.3212,-1.4025,-1.5298,-1.6668,0.0067,-0.0404,-0.0943,-0.1144,-0.1212,-0.1279,-0.1547,-0.1812,-0.1945,-0.1812,-0.2149,-0.2348,-0.2214,-0.2347,-0.2414,-0.2414,-0.2683,-0.2883,-0.308,-0.3806,-0.4731,-0.5994,-0.6059,-0.6195,-0.64,-0.6597,-0.6994,-0.7521,-0.8474,-0.9233,-0.9679,-1.0732,-1.1224,-1.1176,-1.2058,-1.2626,-1.307,-1.3623,-1.435,-1.5128,-1.5294,-1.5921,-1.6641,-1.6866,-1.7881,-1.9187,-1.8501,-1.9724,-2.1574,-2.1713,-2.2845,-2.4406,-2.5644,-2.697,-2.8358,-2.9901,-3.0345,-2.9039,-2.3033,-1.2758,-0.1768,0.6401,1.0748,1.3466,1.5331,1.585,1.5938,1.5874,1.6134,1.6384,1.6384,1.6384,1.6637,1.7401,1.7202,1.7213,1.8015,1.782,1.729,1.6616,1.6503,1.6104,1.5088,1.497,1.4793,1.4258,1.4079,1.3769,1.3338,1.2581,1.1592,1.0482,0.9551,0.8827,0.8364,0.7861,0.736,0.6861,0.5384,0.4448,0.3973,0.1791,-0.0,-0.1574,-0.3396,-0.5715,-0.8213,-0.8598,-0.9596,-1.1031,-1.2893,-1.421,-1.5245,-1.6254,-1.7249,-1.8291,-0.1076,-0.1076,-0.1276,-0.1946,-0.208,-0.2347,-0.3082,-0.3013,-0.288,-0.288,-0.2616,-0.2417,-0.2417,-0.2883,-0.3215,-0.3215,-0.3892,-0.4628,-0.5276,-0.6001,-0.6063,-0.5325,-0.5325,-0.5661,-0.64,-0.7125,-0.7521,-0.7521,-0.8187,-0.8517,-0.8517,-0.9685,-1.0123,-1.0015,-1.0801,-1.1858,-1.294,-1.2671,-1.3295,-1.4565,-1.5128,-1.541,-1.5468,-1.6083,-1.6698,-1.709,-1.6528,-1.7955,-1.9964,-1.8718,-2.0914,-2.4085,-2.3508,-2.5162,-2.7614,-2.9148,-2.9601,-2.8418,-2.2935,-1.6886,-1.0146,-0.1948,0.4671,0.9737,1.205,1.3382,1.4236,1.465,1.5584,1.6384,1.6384,1.6384,1.6384,1.6384,1.6384,1.6384,1.6384,1.6384,1.6269,1.5914,1.5914,1.5682,1.5029,1.497,1.4606,1.3571,1.339,1.2842,1.1864,1.1469,1.0635,0.9131,0.8965,0.7999,0.6169,0.6169,0.6019,0.5544,0.4595,0.3503,0.2418,0.0701,-0.1733,-0.4758,-0.6305,-0.8122,-1.0124,-1.0172,-1.1037,-1.2492,-1.382,-1.5427,-1.6922,-1.7199,-1.8512,-2.0123,-0.0876,-0.1009,-0.1143,-0.1344,-0.1812,-0.2146,-0.2414,-0.3282,-0.3818,-0.3689,-0.402,-0.422,-0.3954,-0.409,-0.4287,-0.4613,-0.4882,-0.5543,-0.6798,-0.6597,-0.6531,-0.6854,-0.6854,-0.7186,-0.7852,-0.8117,-0.8187,-0.8187,-0.8382,-0.8517,-0.8517,-0.8823,-0.9011,-0.9017,-0.9945,-1.0438,-1.0683,-1.2181,-1.2931,-1.3166,-1.4291,-1.502,-1.541,-1.5584,-1.6026,-1.6528,-1.6358,-1.7047,-1.8182,-1.8714,-2.0034,-2.1787,-2.3996,-2.5888,-2.7614,-2.9148,-2.9601,-2.9347,-2.8238,-2.0181,-1.0146,-0.1948,0.558,1.1157,1.1913,1.4218,1.5898,1.4427,1.5477,1.6591,1.6431,1.6384,1.6384,1.6384,1.6384,1.6384,1.6384,1.6306,1.6134,1.5914,1.5798,1.5371,1.4401,1.4282,1.3855,1.2879,1.2512,1.1826,1.0571,1.0174,0.9342,0.8027,0.7149,0.607,0.4693,0.5016,0.4955,0.4516,0.2731,0.1327,0.0234,-0.2213,-0.4316,-0.6131,-0.8209,-0.9805,-1.0872,-1.212,-1.3315,-1.4566,-1.6085,-1.7557,-1.892,-1.9534,-2.0574,-2.1682,-0.0942,-0.1009,-0.121,-0.1478,-0.1812,-0.2213,-0.248,-0.3551,-0.4287,-0.4159,-0.4688,-0.509,-0.509,-0.5024,-0.5219,-0.5672,-0.5738,-0.6133,-0.6994,-0.6662,-0.6728,-0.7456,-0.7521,-0.7722,-0.8117,-0.8117,-0.8312,-0.8829,-0.8829,-0.8829,-0.8829,-0.8829,-0.8705,-0.8511,-0.9011,-0.9378,-0.9748,-1.0927,-1.1603,-1.2035,-1.3235,-1.3906,-1.4305,-1.4824,-1.541,-1.5911,-1.5911,-1.6301,-1.6957,-1.7476,-1.8833,-2.0718,-2.3623,-2.559,-2.7148,-2.8682,-2.9129,-2.9355,-3.0408,-2.34,-1.4,-0.6578,0.2513,0.97,1.0283,1.2353,1.4001,1.3698,1.4876,1.6046,1.6374,1.6009,1.5894,1.6316,1.6009,1.5884,1.6316,1.6134,1.5836,1.5536,1.5245,1.4697,1.3726,1.3606,1.3183,1.2212,1.1322,1.0485,0.9703,0.8931,0.8078,0.7101,0.6106,0.4941,0.3507,0.3117,0.2884,0.2728,0.0546,-0.0858,-0.1712,-0.4456,-0.6537,-0.8222,-0.9698,-1.1244,-1.2779,-1.3844,-1.5155,-1.6495,-1.807,-1.9525,-2.0904,-2.1831,-2.2774,-2.3608,-0.1076,-0.1076,-0.1276,-0.1879,-0.2079,-0.2347,-0.3082,-0.3751,-0.422,-0.4353,-0.4755,-0.5219,-0.5756,-0.5686,-0.5811,-0.64,-0.6531,-0.6597,-0.6597,-0.6531,-0.6793,-0.7456,-0.7456,-0.7456,-0.7521,-0.7591,-0.8107,-0.921,-0.921,-0.921,-0.921,-0.921,-0.8958,-0.8517,-0.8182,-0.8689,-0.9761,-0.9291,-0.9724,-1.092,-1.1905,-1.2411,-1.2655,-1.3872,-1.4725,-1.5362,-1.5352,-1.5806,-1.6197,-1.5748,-1.7588,-2.0482,-2.2469,-2.4414,-2.6269,-2.7905,-2.8398,-2.8733,-3.0281,-2.6152,-1.9894,-1.3663,-0.3262,0.5826,0.7618,0.8948,1.0358,1.2448,1.3811,1.4904,1.6009,1.5342,1.5031,1.6077,1.54,1.5099,1.6134,1.5846,1.5362,1.4914,1.4442,1.3786,1.3009,1.2826,1.2397,1.1421,0.9907,0.8995,0.9025,0.7792,0.6867,0.6448,0.5576,0.4275,0.2579,0.0936,0.0156,0.0313,-0.1717,-0.2961,-0.3585,-0.6218,-0.8546,-1.053,-1.0947,-1.2696,-1.5242,-1.5508,-1.6667,-1.8397,-1.9894,-2.1364,-2.2788,-2.3865,-2.497,-2.5786,-0.1076,-0.1076,-0.1143,-0.1276,-0.1745,-0.2347,-0.3082,-0.3349,-0.3885,-0.5024,-0.4755,-0.4686,-0.5223,-0.5219,-0.5617,-0.6539,-0.7526,-0.8052,-0.8052,-0.7521,-0.7326,-0.7521,-0.6929,-0.6929,-0.7456,-0.7987,-0.8382,-0.8705,-0.8705,-0.8705,-0.8705,-0.8705,-0.8641,-0.8517,-0.8452,-0.8376,-0.8495,-0.9111,-0.9412,-0.9527,-1.0524,-1.1589,-1.2533,-1.2793,-1.3674,-1.4734,-1.5245,-1.5806,-1.6368,-1.6698,-1.7659,-1.9057,-2.1046,-2.27,-2.4526,-2.7529,-2.8398,-2.8733,-3.0281,-2.6152,-1.9894,-1.3663,-0.6475,0.0451,0.5631,0.9662,1.1996,1.0871,1.2356,1.4031,1.456,1.4451,1.451,1.5128,1.5001,1.4942,1.5186,1.4815,1.451,1.4382,1.3914,1.3252,1.232,1.1538,1.0793,0.9964,0.9438,0.8714,0.7618,0.7003,0.6316,0.565,0.4301,0.2639,0.0622,-0.0934,-0.1715,-0.1873,-0.3653,-0.5093,-0.6386,-0.8466,-1.0141,-1.137,-1.3144,-1.4892,-1.6601,-1.7172,-1.8619,-2.0617,-2.1253,-2.2493,-2.3897,-2.4719,-2.5464,-2.6036,-0.11,-0.1371,-0.1638,-0.1615,-0.2147,-0.2614,-0.2681,-0.3282,-0.3885,-0.4287,-0.4622,-0.502,-0.555,-0.5547,-0.5881,-0.6609,-0.7587,-0.8112,-0.8052,-0.8112,-0.8112,-0.8112,-0.7652,-0.7652,-0.8172,-0.8376,-0.8641,-0.8894,-0.8894,-0.8894,-0.8894,-0.8894,-0.877,-0.8517,-0.8517,-0.8382,-0.8247,-0.8619,-0.8603,-0.8404,-0.94,-1.0084,-1.0711,-1.2028,-1.2915,-1.3734,-1.4932,-1.5575,-1.5968,-1.6585,-1.7258,-1.8246,-2.0481,-2.2177,-2.3904,-2.6977,-2.8118,-2.8656,-2.9859,-2.805,-2.3621,-1.4397,-0.9672,-0.4774,0.4777,0.8942,1.0677,1.0454,1.1581,1.2959,1.4016,1.3777,1.3708,1.4765,1.4519,1.4392,1.4834,1.435,1.3923,1.3795,1.3199,1.2405,1.1406,1.0415,0.9707,0.9438,0.8281,0.7482,0.7191,0.5998,0.5072,0.4678,0.3103,0.1247,-0.0778,-0.2489,-0.3988,-0.5059,-0.6074,-0.7055,-0.819,-1.0262,-1.1968,-1.3424,-1.4986,-1.6519,-1.798,-1.8986,-2.0381,-2.2046,-2.2964,-2.4309,-2.5835,-2.6416,-2.6829,-2.7116,-0.1557,-0.2042,-0.2446,-0.2391,-0.2845,-0.3038,-0.2567,-0.3429,-0.3951,-0.3618,-0.4556,-0.5422,-0.5947,-0.6075,-0.621,-0.6544,-0.7125,-0.7517,-0.7521,-0.8177,-0.8635,-0.877,-0.8641,-0.8705,-0.8958,-0.8705,-0.877,-0.921,-0.921,-0.9145,-0.9145,-0.9274,-0.9022,-0.8517,-0.8576,-0.8576,-0.8447,-0.8117,-0.7852,-0.7652,-0.8398,-0.8715,-0.8837,-1.1093,-1.2097,-1.2464,-1.4058,-1.4845,-1.5138,-1.5641,-1.636,-1.7531,-2.0202,-2.1867,-2.3366,-2.6405,-2.7823,-2.8581,-2.938,-3.0147,-2.7961,-1.6531,-1.2887,-0.898,0.3012,0.7026,0.8672,1.0236,1.094,1.1826,1.3545,1.3045,1.2915,1.4469,1.3837,1.3528,1.4529,1.3795,1.313,1.3078,1.2228,1.1365,1.0485,0.9566,0.9029,0.8885,0.7039,0.6231,0.6807,0.4991,0.3681,0.3198,0.1636,-0.0156,-0.2023,-0.421,-0.623,-0.8199,-0.8661,-0.9161,-0.9716,-1.1903,-1.3777,-1.5549,-1.6636,-1.7925,-1.9454,-2.0678,-2.2028,-2.3428,-2.4792,-2.6211,-2.7627,-2.816,-2.8395,-2.8474,-0.333,-0.3401,-0.3469,-0.3456,-0.3387,-0.3544,-0.4097,-0.3675,-0.3751,-0.4957,-0.4688,-0.4688,-0.5425,-0.5885,-0.6079,-0.602,-0.6544,-0.6999,-0.7456,-0.7712,-0.8107,-0.877,-0.8894,-0.8894,-0.8835,-0.877,-0.877,-0.8899,-0.8705,-0.8576,-0.8641,-0.9081,-0.9022,-0.8511,-0.8958,-0.8958,-0.8447,-0.8117,-0.7987,-0.7917,-0.7782,-0.8345,-0.9424,-0.9736,-1.0425,-1.1231,-1.1472,-1.2493,-1.3681,-1.374,-1.4653,-1.6233,-1.9407,-2.0563,-2.1583,-2.5999,-2.7823,-2.8581,-2.938,-3.0147,-2.8994,-2.1899,-1.6099,-1.0263,-0.3105,0.3512,0.8296,0.8737,0.9709,1.0856,1.229,1.229,1.2466,1.3761,1.2732,1.2227,1.3502,1.2112,1.1183,1.1888,1.0899,1.0028,0.9901,0.9527,0.8657,0.7179,0.6639,0.5956,0.5047,0.4471,0.3037,0.0621,-0.0701,-0.2177,-0.4028,-0.6329,-0.8168,-0.9468,-1.0924,-1.1699,-1.2016,-1.3763,-1.5168,-1.6277,-1.792,-1.958,-2.1214,-2.2142,-2.3677,-2.5496,-2.6662,-2.7475,-2.8152,-2.8924,-2.9365,-2.9686,-0.3721,-0.4006,-0.4281,-0.4292,-0.4528,-0.4706,-0.4635,-0.4661,-0.4763,-0.4975,-0.5114,-0.5256,-0.5606,-0.5676,-0.5745,-0.5679,-0.616,-0.6498,-0.6627,-0.7039,-0.7604,-0.8363,-0.8424,-0.8635,-0.9163,-0.9022,-0.8894,-0.8894,-0.8641,-0.8517,-0.8517,-0.877,-0.8894,-0.8958,-0.8894,-0.8894,-0.8894,-0.8441,-0.8187,-0.7987,-0.7852,-0.8037,-0.8474,-0.9238,-0.9476,-0.9572,-1.0664,-1.1475,-1.2303,-1.3731,-1.4141,-1.4662,-1.8118,-1.9703,-2.0919,-2.4122,-2.6352,-2.7961,-2.8729,-2.9498,-2.868,-2.285,-1.6724,-1.0488,-0.4315,0.2636,0.7912,0.8425,0.9139,1.0225,1.1864,1.1461,1.1253,1.2366,1.1396,1.0767,1.1549,1.0739,1.0242,1.0766,1.0021,0.9385,0.9057,0.8364,0.7422,0.6211,0.5188,0.4618,0.4619,0.241,0.0703,-0.0234,-0.3039,-0.4753,-0.5206,-0.7469,-0.9434,-1.1207,-1.2407,-1.3254,-1.3736,-1.4954,-1.6573,-1.8417,-1.9603,-2.1113,-2.284,-2.3951,-2.5339,-2.6755,-2.7691,-2.8361,-2.8949,-2.9586,-2.9844,-3.0087]},{"header":{"parameterUnit":"m.s-1","parameterCategory":1,"la1":30.6,"la2":28.766,"lo1":-90.7593,"lo2":-88.6598,"dy":0.0162,"dx":0.0183,"nx":116,"ny":114,"refTime":"2024-03-02T06:00:00:Z","depth":0,"parameterNumber":3,"parameterNumberName":"V-component_of_WINDS"},"data":[0.0,0.0,0.0,0.0,0.0,0.0,0.0,0.0,0.0,0.0,0.0,0.0,0.0,0.0,0.0,0.0,0.0,0.0,0.0,0.0,0.0,0.0,0.0,0.0,0.0,0.0,0.0,0.0,0.0,0.0,0.0,0.0,0.0,0.0,0.0,0.0,0.0,0.0,0.0,0.0,0.0,0.0,0.0,0.0,0.0,0.0,0.0,0.0,0.0,0.0,0.0,0.0,0.0,0.0,0.0,0.0,0.0,0.0,0.0,0.0,0.0,0.0,0.0,0.0,0.0,0.0,0.0,0.0,0.0,0.0,0.0,0.0,0.0,0.0,0.0,0.0,0.0,0.0,0.0,0.0,0.0,0.0,0.0,0.0,0.0,0.0,0.0,0.0,0.0,0.0,0.0,0.0,0.0,0.0,0.0,0.0,0.0,0.0,0.0,0.0,0.0,0.0,0.0,0.0,0.0,0.0,0.0,0.0,0.0,0.0,0.0,0.0,0.0,0.0,0.0,0.0,0.0,0.0,0.0,0.0,0.0,0.0,0.0,0.0,0.0,0.0,0.0,0.0,0.0,0.0,0.0,0.0,0.0,0.0,0.0,0.0,0.0,0.0,0.0,0.0,0.0,0.0,0.0,0.0,0.0,0.0,0.0,0.0,0.0,0.0,0.0,0.0,0.0,0.0,0.0,0.0,0.0,0.0,0.0,0.0,0.0,0.0,0.0,0.0,0.0,0.0,0.0,0.0,0.0,0.0,0.0,0.0,0.0,0.0,0.0,0.0,0.0,0.0,0.0,0.0,0.0,0.0,0.0,0.0,0.0,0.0,0.0,0.0,0.0,0.0,0.0,0.0,0.0,0.0,0.0,0.0,0.0,0.0,0.0,0.0,0.0,0.0,0.0,0.0,0.0,0.0,0.0,0.0,0.0,0.0,0.0,0.0,0.0,0.0,0.0,0.0,0.0,0.0,0.0,0.0,0.0,0.0,0.0,0.0,0.0,0.0,0.0,0.0,0.0,0.0,0.0,0.0,0.0,0.0,0.0,0.0,0.0,0.0,0.0,0.0,0.0,0.0,0.0,0.0,0.0,0.0,0.0,0.0,0.0,0.0,0.0,0.0,0.0,0.0,0.0,0.0,0.0,0.0,0.0,0.0,0.0,0.0,0.0,0.0,0.0,0.0,0.0,0.0,0.0,0.0,0.0,0.0,0.0,0.0,0.0,0.0,0.0,0.0,0.0,0.0,0.0,0.0,0.0,0.0,0.0,0.0,0.0,0.0,0.0,0.0,0.0,0.0,0.0,0.0,0.0,0.0,0.0,0.0,0.0,0.0,0.0,0.0,0.0,0.0,0.0,0.0,0.0,0.0,0.0,0.0,0.0,0.0,0.0,0.0,0.0,0.0,0.0,0.0,0.0,0.0,0.0,0.0,0.0,0.0,0.0,0.0,0.0,0.0,0.0,0.0,0.0,0.0,0.0,0.0,0.0,0.0,0.0,0.0,0.0,0.0,0.0,0.0,0.0,0.0,0.0,0.0,0.0,0.0,0.0,0.0,0.0,0.0,0.0,0.0,0.0,0.0,0.0,0.0,0.0,0.0,0.0,0.0,0.0,0.0,0.0,0.0,0.0,0.0,0.0,0.0,0.0,0.0,0.0,0.0,0.0,0.0,0.0,0.0,0.0,0.0,0.0,0.0,0.0,0.0,0.0,0.0,0.0,0.0,0.0,0.0,0.0,0.0,0.0,0.0,0.0,0.0,0.0,0.0,0.0,0.0,0.0,0.0,0.0,0.0,0.0,0.0,0.0,0.0,0.0,0.0,0.0,0.0,0.0,0.0,0.0,0.0,0.0,0.0,0.0,0.0,0.0,0.0,0.0,0.0,0.0,0.0,0.0,0.0,0.0,0.0,0.0,0.0,0.0,0.0,0.0,0.0,0.0,0.0,0.0,0.0,0.0,0.0,0.0,0.0,0.0,0.0,0.0,0.0,0.0,0.0,0.0,0.0,0.0,0.0,0.0,0.0,0.0,0.0,0.0,0.0,0.0,0.0,0.0,0.0,0.0,0.0,0.0,0.0,0.0,0.0,0.0,0.0,0.0,0.0,0.0,0.0,0.0,0.0,0.0,0.0,0.0,0.0,0.0,0.0,0.0,0.0,0.0,0.0,0.0,0.0,0.0,0.0,0.0,0.0,0.0,0.0,0.0,0.0,0.0,0.0,0.0,0.0,0.0,0.0,0.0,0.0,0.0,0.0,0.0,0.0,0.0,0.0,0.0,0.0,0.0,0.0,0.0,0.0,0.0,0.0,0.0,0.0,0.0,0.0,0.0,0.0,0.0,0.0,0.0,0.0,0.0,0.0,0.0,0.0,0.0,0.0,0.0,0.0,0.0,0.0,0.0,0.0,0.0,0.0,0.0,0.0,0.0,0.0,0.0,0.0,0.0,0.0,0.0,0.0,0.0,0.0,0.0,0.0,0.0,0.0,0.0,0.0,0.0,0.0,0.0,0.0,0.0,0.0,0.0,0.0,0.0,0.0,0.0,0.0,0.0,0.0,0.0,0.0,0.0,0.0,0.0,0.0,0.0,0.0,0.0,0.0,0.0,0.0,0.0,0.0,0.0,0.0,0.0,0.0,0.0,0.0,0.0,0.0,0.0,0.0,0.0,0.0,0.0,0.0,0.0,0.0,0.0,0.0,0.0,0.0,0.0,0.0,0.0,0.0,0.0,0.0,0.0,0.0,0.0,0.0,0.0,0.0,0.0,0.0,0.0,0.0,0.0,0.0,0.0,0.0,0.0,0.0,0.0,0.0,0.0,0.0,0.0,0.0,0.0,0.0,0.0,0.0,0.0,0.0,0.0,0.0,0.0,0.0,0.0,0.0,0.0,0.0,0.0,0.0,0.0,0.0,0.0,0.0,0.0,0.0,0.0,0.0,0.0,0.0,0.0,0.0,0.0,0.0,0.0,0.0,0.0,0.0,0.0,0.0,0.0,0.0,0.0,0.0,0.0,0.0,0.0,0.0,0.0,0.0,0.0,0.0,0.0,0.0,0.0,0.0,0.0,0.0,0.0,0.0,0.0,0.0,0.0,0.0,0.0,0.0,0.0,0.0,0.0,0.0,0.0,0.0,0.0,0.0,0.0,0.0,0.0,0.0,0.0,0.0,0.0,0.0,0.0,0.0,0.0,0.0,0.0,0.0,0.0,0.0,0.0,0.0,0.0,0.0,0.0,0.0,0.0,0.0,0.0,0.0,0.0,0.0,0.0,0.0,0.0,0.0,0.0,0.0,0.0,0.0,0.0,0.0,0.0,0.0,0.0,0.0,0.0,0.0,0.0,0.0,0.0,0.0,0.0,0.0,0.0,0.0,0.0,0.0,0.0,0.0,0.0,0.0,0.0,0.0,0.0,0.0,0.0,0.0,0.0,0.0,0.0,0.0,0.0,0.0,0.0,0.0,0.0,0.0,0.0,0.0,0.0,0.0,0.0,0.0,0.0,0.0,0.0,0.0,0.0,0.0,0.0,0.0,0.0,0.0,0.0,0.0,0.0,0.0,0.0,0.0,0.0,0.0,0.0,0.0,0.0,0.0,0.0,0.0,0.0,0.0,0.0,0.0,0.0,0.0,0.0,0.0,0.0,0.0,0.0,0.0,0.0,0.0,0.0,0.0,0.0,0.0,0.0,0.0,0.0,0.0,0.0,0.0,0.0,0.0,0.0,0.0,0.0,0.0,0.0,0.0,0.0,0.0,0.0,0.0,0.0,0.0,0.0,0.0,0.0,0.0,0.0,0.0,0.0,0.0,0.0,0.0,0.0,0.0,0.0,0.0,0.0,0.0,0.0,0.0,0.0,0.0,0.0,0.0,0.0,0.0,0.0,0.0,0.0,0.0,0.0,0.0,0.0,0.0,0.0,0.0,0.0,0.0,0.0,0.0,0.0,0.0,0.0,0.0,0.0,0.0,0.0,0.0,0.0,0.0,0.0,0.0,0.0,0.0,0.0,0.0,0.0,0.0,0.0,0.0,0.0,0.0,0.0,0.0,0.0,0.0,0.0,0.0,0.0,0.0,0.0,0.0,0.0,0.0,0.0,0.0,0.0,0.0,0.0,0.0,0.0,0.0,0.0,0.0,0.0,0.0,0.0,0.0,0.0,0.0,0.0,0.0,0.0,0.0,0.0,0.0,0.0,0.0,0.0,0.0,0.0,0.0,0.0,0.0,0.0,0.0,0.0,0.0,0.0,0.0,0.0,0.0,0.0,0.0,0.0,0.0,0.0,0.0,0.0,0.0,0.0,0.0,0.0,0.0,0.0,0.0,0.0,0.0,0.0,0.0,0.0,0.0,0.0,0.0,0.0,0.0,0.0,0.0,0.0,0.0,0.0,0.0,0.0,0.0,0.0,0.0,0.0,0.0,0.0,0.0,0.0,0.0,0.0,0.0,0.0,0.0,0.0,0.0,0.0,0.0,0.0,0.0,0.0,0.0,0.0,0.0,0.0,0.0,0.0,0.0,0.0,0.0,0.0,0.0,0.0,0.0,0.0,0.0,0.0,0.0,0.0,0.0,0.0,0.0,0.0,0.0,0.0,0.0,0.0,0.0,0.0,0.0,0.0,0.0,0.0,0.0,0.0,0.0,0.0,0.0,0.0,0.0,0.0,0.0,0.0,0.0,0.0,0.0,0.0,0.0,0.0,0.0,0.0,0.0,0.0,0.0,0.0,0.0,0.0,0.0,0.0,0.0,0.0,0.0,0.0,0.0,0.0,0.0,0.0,0.0,0.0,0.0,0.0,0.0,0.0,0.0,0.0,0.0,0.0,0.0,0.0,0.0,0.0,0.0,0.0,0.0,0.0,0.0,0.0,0.0,0.0,0.0,0.0,0.0,0.0,0.0,0.0,0.0,0.0,0.0,0.0,0.0,0.0,0.0,0.0,0.0,0.0,0.0,0.0,0.0,0.0,0.0,0.0,0.0,0.0,0.0,0.0,0.0,0.0,0.0,0.0,0.0,0.0,0.0,0.0,0.0,0.0,0.0,0.0,0.0,0.0,0.0,0.0,0.0,0.0,0.0,0.0,0.0,0.0,0.0,0.0,0.0,0.0,0.0,0.0,0.0,0.0,0.0,0.0,0.0,0.0,0.0,0.0,0.0,0.0,0.0,0.0,0.0,0.0,0.0,0.0,0.0,0.0,0.0,0.0,0.0,0.0,0.0,0.0,0.0,0.0,0.0,0.0,0.0,0.0,0.0,0.0,0.0,0.0,0.0,0.0,0.0,0.0,0.0,0.0,0.0,0.0,0.0,0.0,0.0,0.0,0.0,0.0,0.0,0.0,0.0,0.0,0.0,0.0,0.0,0.0,0.0,0.0,0.0,0.0,0.0,0.0,0.0,0.0,0.0,0.0,0.0,0.0,0.0,0.0,0.0,0.0,0.0,0.0,0.0,0.0,0.0,0.0,0.0,0.0,0.0,0.0,0.0,0.0,0.0,0.0,0.0,0.0,0.0,0.0,0.0,0.0,0.0,0.0,0.0,0.0,0.0,0.0,0.0,0.0,0.0,0.0,0.0,0.0,0.0,0.0,0.0,0.0,0.0,0.0,0.0,0.0,0.0,0.0,0.0,0.0,0.0,0.0,0.0,0.0,0.0,0.0,0.0,0.0,0.0,0.0,0.0,0.0,0.0,0.0,0.0,0.0,0.0,0.0,0.0,0.0,0.0,0.0,0.0,0.0,0.0,0.0,0.0,0.0,0.0,0.0,0.0,0.0,0.0,0.0,0.0,0.0,0.0,0.0,0.0,0.0,0.0,0.0,0.0,0.0,0.0,0.0,0.0,0.0,0.0,0.0,0.0,0.0,0.0,0.0,0.0,0.0,0.0,0.0,0.0,0.0,0.0,0.0,0.0,0.0,0.0,0.0,0.0,0.0,0.0,0.0,0.0,0.0,0.0,0.0,0.0,0.0,0.0,0.0,0.0,0.0,0.0,0.0,0.0,0.0,0.0,0.0,0.0,0.0,0.0,0.0,0.0,0.0,0.0,0.0,0.0,0.0,0.0,0.0,0.0,0.0,0.0,0.0,0.0,0.0,0.0,0.0,0.0,0.0,0.0,0.0,0.0,-1.5266,0.0,0.0,0.0,0.0,0.0,0.0,0.0,0.0,0.0,0.0,0.0,0.0,0.0,0.0,0.0,0.0,0.0,0.0,0.0,0.0,0.0,0.0,0.0,0.0,0.0,0.0,0.0,0.0,0.0,0.0,0.0,0.0,0.0,0.0,0.0,-0.4467,-0.492,-0.547,-0.6258,-0.5736,-0.5611,-0.5822,-0.5179,-0.4603,-0.4115,0.0,0.0,0.0,0.0,0.0,0.0,0.0,0.0,0.0,0.0,0.0,0.0,0.0,0.0,0.0,0.0,0.0,0.0,0.0,0.0,0.0,0.0,0.0,0.0,0.0,0.0,0.0,0.0,0.0,0.0,0.0,0.0,0.0,0.0,0.0,0.0,0.0,0.0,0.0,0.0,0.0,0.0,0.0,0.0,0.0,0.0,0.0,0.0,0.0,0.0,0.0,0.0,0.0,0.0,0.0,0.0,0.0,0.0,0.0,0.0,0.0,0.0,0.0,0.0,0.0,0.0,0.0,0.0,0.0,0.0,0.0,-1.5598,0.0,0.0,0.0,0.0,0.0,0.0,0.0,0.0,0.0,0.0,0.0,0.0,0.0,0.0,0.0,0.0,0.0,0.0,0.0,0.0,0.0,0.0,0.0,-0.2965,-0.4697,-0.4909,-0.4212,-0.3796,0.0,0.0,0.0,0.0,-0.3891,-0.4544,-0.501,-0.635,-0.6929,-0.6698,-0.7328,-0.7072,-0.5939,-0.5383,-0.4936,-0.4588,-0.4437,0.0,0.0,0.0,0.0,0.0,0.0,0.0,0.0,0.0,0.0,0.0,0.0,0.0,0.0,0.0,0.0,0.0,0.0,0.0,0.0,0.0,0.0,0.0,0.0,0.0,0.0,0.0,0.0,0.0,0.0,0.0,0.0,0.0,0.0,0.0,0.0,0.0,0.0,0.0,0.0,0.0,0.0,0.0,0.0,0.0,0.0,0.0,0.0,0.0,0.0,0.0,0.0,0.0,0.0,0.0,0.0,0.0,0.0,0.0,0.0,0.0,0.0,0.0,0.0,0.0,-1.8031,-1.8257,-1.8648,-1.9014,-1.7395,-1.7035,-1.7544,0.0,0.0,0.0,0.0,0.0,0.0,0.0,0.0,0.0,0.0,0.0,0.0,0.0,0.0,0.0,0.0,0.0,0.0,0.0,0.0,0.0,0.0,-0.281,-0.3524,-0.4539,-0.4535,-0.4268,-0.3741,-0.3656,-0.3697,-0.3917,-0.4357,-0.5221,-0.6666,-0.6462,-0.6844,-0.7878,-0.7292,-0.6722,-0.6166,-0.6602,-0.6528,-0.6061,-0.5421,-0.505,-0.4895,0.0,0.0,0.0,0.0,0.0,0.0,0.0,0.0,0.0,0.0,0.0,0.0,0.0,0.0,0.0,0.0,0.0,0.0,0.0,0.0,0.0,0.0,0.0,0.0,0.0,0.0,0.0,0.0,0.0,0.0,0.0,0.0,0.0,0.0,0.0,0.0,0.0,0.0,0.0,0.0,0.0,-1.1617,-1.3307,0.0,0.0,0.0,0.0,0.0,0.0,0.0,0.0,0.0,0.0,0.0,0.0,0.0,0.0,-1.8377,-1.8591,-1.9134,-1.998,-1.9711,-1.9794,-2.0176,-1.9623,-1.9419,-1.9534,-1.9226,0.0,-1.8734,-1.9157,0.0,0.0,0.0,0.0,0.0,0.0,0.0,0.0,0.0,0.0,0.0,0.0,0.0,0.0,0.0,0.0,0.0,0.0,0.0,0.0,0.0,-0.3167,-0.3976,-0.4508,-0.4412,-0.4272,-0.4096,-0.4278,-0.45,-0.4688,-0.5706,-0.6624,-0.75,-0.7328,-0.7372,-0.7651,-0.7287,-0.7015,-0.6804,-0.7176,-0.723,-0.7122,-0.6529,-0.5828,-0.4956,-0.4908,0.0,0.0,0.0,0.0,0.0,0.0,0.0,0.0,0.0,0.0,0.0,0.0,0.0,0.0,0.0,0.0,0.0,0.0,0.0,0.0,0.0,0.0,0.0,0.0,0.0,0.0,0.0,0.0,0.0,0.0,0.0,0.0,0.0,0.0,0.0,0.0,0.0,0.0,0.0,-1.1414,-1.2211,-1.349,-1.3158,-1.288,0.0,0.0,0.0,0.0,0.0,0.0,0.0,0.0,0.0,-1.8316,-1.8955,-1.9555,-2.0084,-2.047,-2.0797,-2.0989,-2.1097,-2.109,-2.1042,-2.1042,-2.1188,-2.1417,-2.0832,-2.0686,-2.0689,-1.9991,-1.9396,-1.904,0.0,0.0,0.0,0.0,0.0,-1.9708,0.0,0.0,0.0,0.0,0.0,0.0,0.0,0.0,0.0,0.0,0.0,0.0,-0.2224,-0.3602,-0.4504,-0.46,-0.446,-0.4353,-0.4342,-0.4718,-0.5119,-0.5459,-0.679,-0.7713,-0.8123,-0.8101,-0.7881,-0.7498,-0.7391,-0.7396,-0.7557,-0.7711,-0.7871,-0.7984,-0.7509,-0.6642,-0.5445,-0.5077,-0.4864,-0.4646,0.0,0.0,0.0,0.0,0.0,0.0,0.0,0.0,0.0,0.0,0.0,0.0,0.0,0.0,0.0,0.0,0.0,0.0,0.0,0.0,0.0,0.0,0.0,0.0,0.0,0.0,0.0,0.0,0.0,0.0,0.0,0.0,0.0,0.0,0.0,0.0,0.0,-1.2113,-1.314,-1.3946,-1.4356,-1.4337,0.0,0.0,0.0,0.0,0.0,0.0,-1.7472,-1.8088,-1.878,-1.9548,-2.0414,-2.1043,-2.1454,-2.1945,-2.1983,-2.1623,-2.1874,-2.1874,-2.1623,-2.1874,-2.217,-2.2449,-2.1718,-2.1623,-2.1874,-2.0597,-1.9888,-1.9631,-1.9786,-1.9734,0.0,-1.9722,-1.9786,-1.9952,0.0,0.0,0.0,0.0,0.0,0.0,0.0,0.0,0.0,0.0,0.0,-0.2734,-0.3531,-0.4093,-0.4539,-0.4961,-0.4966,-0.4741,-0.4241,-0.4764,-0.541,-0.61,-0.7116,-0.8017,-0.8643,-0.8294,-0.8059,-0.8078,-0.7551,-0.7664,-0.8368,-0.8468,-0.862,-0.8725,-0.8137,-0.7557,-0.6977,-0.6391,-0.58,-0.5148,-0.3727,0.0,0.0,0.0,0.0,0.0,0.0,0.0,0.0,0.0,0.0,0.0,0.0,0.0,0.0,0.0,0.0,0.0,0.0,0.0,0.0,0.0,0.0,0.0,0.0,0.0,0.0,0.0,0.0,0.0,0.0,0.0,0.0,0.0,0.0,0.0,0.0,0.0,0.0,-1.513,-1.5498,0.0,0.0,0.0,0.0,-1.6398,-1.695,-1.7812,-1.9124,-1.9621,-2.0563,-2.1965,-2.2067,-2.2128,-2.2128,-2.2156,-2.2184,-2.2123,-2.167,-2.167,-2.2123,-2.167,-2.1465,-2.1465,-2.1417,-2.1417,-2.1417,-2.1369,-2.1321,-2.121,-2.068,-2.0792,-2.1161,-2.008,-2.0054,-2.051,0.0,0.0,0.0,0.0,0.0,0.0,0.0,0.0,-0.0535,-0.1246,-0.2478,-0.3574,-0.4465,-0.4682,-0.486,-0.5005,-0.4826,-0.4659,-0.4598,-0.5692,-0.6513,-0.6908,-0.8042,-0.8572,-0.83,-0.8187,-0.8078,-0.7972,-0.7765,-0.823,-0.9241,-0.9707,-0.9868,-0.9653,-0.9463,-0.8931,-0.8143,-0.7333,-0.6534,-0.5584,-0.2378,-0.1167,0.0,0.0,0.0,0.0,0.0,0.0,0.0,0.0,0.0,0.0,0.0,0.0,0.0,0.0,0.0,0.0,0.0,0.0,0.0,0.0,0.0,0.0,0.0,0.0,0.0,0.0,0.0,0.0,0.0,0.0,0.0,0.0,0.0,0.0,0.0,0.0,0.0,-1.5544,-1.6738,0.0,-1.6859,-1.7739,-1.8142,-1.763,-1.8747,-1.9632,-2.0122,-2.0527,-2.096,-2.1431,-2.1575,-2.1527,-2.1153,-2.1841,-2.203,-2.167,-2.2156,-2.231,-2.2184,-2.2016,-2.2063,-2.2356,-2.167,-2.1623,-2.1874,-2.1527,-2.1175,-2.0845,-2.0283,-2.0181,-2.0333,-2.0283,-2.0446,-2.061,0.0,0.0,0.0,0.0,0.0,0.0,0.0,0.0,-0.0535,-0.1246,-0.2871,-0.4101,-0.4509,-0.5082,-0.5338,-0.511,-0.4883,-0.4884,-0.5131,-0.6273,-0.7126,-0.7492,-0.8521,-0.8844,-0.8402,-0.8349,-0.8347,-0.834,-0.834,-0.8812,-0.9778,-1.0527,-1.0692,-1.0479,-1.0387,-1.0046,-0.951,-0.8486,-0.7543,-0.6435,-0.2593,-0.061,0.0,0.0,0.0,0.0,0.0,0.0,0.0,0.0,0.0,0.0,0.0,0.0,0.0,0.0,0.0,0.0,0.0,0.0,0.0,0.0,0.0,0.0,0.0,0.0,0.0,0.0,0.0,0.0,0.0,0.0,0.0,0.0,0.0,0.0,0.0,0.0,-1.7451,-1.6703,-1.7934,-1.8643,-1.808,-1.9018,-1.9445,-1.8918,-2.0089,-2.0746,-2.066,-2.0944,-2.114,-2.114,-2.1321,-2.1224,-2.0845,-2.1732,-2.1921,-2.1417,-2.2063,-2.2217,-2.1921,-2.1921,-2.2123,-2.2356,-2.1718,-2.1623,-2.1874,-2.1334,-2.0944,-2.056,-2.0396,-2.0446,-2.0597,-2.061,-2.0709,-2.0944,0.0,0.0,0.0,0.0,0.0,0.0,0.0,0.0,-0.0537,-0.0536,-0.2824,-0.4262,-0.3836,-0.5277,-0.6006,-0.5264,-0.5195,-0.5371,-0.5831,-0.6473,-0.7143,-0.7919,-0.8474,-0.8857,-0.9008,-0.8864,-0.8958,-0.9183,-0.9196,-0.9455,-0.9918,-1.0751,-1.1205,-1.1277,-1.0906,-1.0892,-1.1048,-0.9845,-0.8822,-0.768,-0.4426,-0.1883,0.0,0.0,0.0,0.0,0.0,0.0,0.0,0.0,0.0,0.0,0.0,0.0,0.0,0.0,0.0,0.0,0.0,0.0,0.0,0.0,0.0,0.0,0.0,0.0,0.0,0.0,0.0,0.0,0.0,0.0,0.0,0.0,0.0,0.0,-1.6796,-1.7695,-1.8487,-1.8617,-1.9107,-1.9423,-1.9461,-1.9912,-2.0182,-2.0182,-2.0795,-2.1091,-2.0845,-2.0944,-2.1126,-2.1417,-2.1417,-2.1417,-2.1417,-2.1921,-2.1921,-2.1417,-2.1417,-2.1417,-2.1465,-2.1417,-2.1417,-2.1465,-2.1417,-2.1417,-2.1369,-2.0795,-2.056,-2.061,-2.1126,-2.167,-2.1983,-2.1006,-2.0944,-2.1417,0.0,0.0,0.0,0.0,0.0,0.0,0.0719,0.0,-0.0847,-0.1814,-0.3386,-0.4699,-0.5497,-0.5771,-0.5837,-0.5718,-0.5225,-0.5026,-0.5323,-0.636,-0.7494,-0.8527,-0.8309,-0.8362,-0.8857,-0.9011,-0.9103,-0.9183,-0.9452,-0.9829,-1.0299,-1.1445,-1.1802,-1.1526,-1.2027,-1.1833,-1.1193,-1.0365,-0.9704,-0.8851,-0.5626,-0.2595,0.0,0.0,0.0,0.0,0.0,0.0,0.0,0.0,0.0,0.0,0.0,0.0,0.0,0.0,0.0,0.0,0.0,0.0,0.0,0.0,0.0,0.0,0.0,0.0,0.0,0.0,0.0,0.0,0.0,0.0,0.0,0.0,0.0,-1.9271,-1.7949,-1.9022,-1.984,-1.9647,-2.0092,-2.0411,-2.0424,-2.0281,-2.0182,-2.0182,-2.056,-2.0845,-2.1091,-2.1479,-2.1684,-2.1684,-2.1874,-2.1779,-2.1417,-2.1921,-2.2123,-2.1969,-2.1969,-2.217,-2.2509,-2.2123,-2.217,-2.2449,-2.1718,-2.1417,-2.1321,-2.0396,-2.0003,-2.0055,-2.0194,-2.0346,-2.0547,-2.0979,-2.1527,-2.1969,0.0,0.0,0.0,0.0,0.0,0.0,0.0719,0.0,-0.0847,-0.1813,-0.3386,-0.4699,-0.5401,-0.5902,-0.6029,-0.5763,-0.5452,-0.5353,-0.5544,-0.6523,-0.7408,-0.8055,-0.7984,-0.8146,-0.8594,-0.8987,-0.9303,-0.9548,-0.978,-1.0073,-1.0486,-1.1858,-1.2218,-1.1745,-1.2517,-1.2321,-1.1291,-0.9853,-0.8593,-0.7428,-0.5567,-0.2895,0.0,0.0,0.0,0.0336,0.3026,0.2296,0.0224,0.1554,0.0,0.0,0.0,0.0,0.0,0.0,0.0,0.0,0.0,0.0,0.0,0.0,0.0,0.0,0.0,0.0,0.0,0.0,0.0,0.0,0.0,0.0,0.0,0.0,-1.9973,-2.0808,-2.0192,-2.0721,-2.1088,-2.0711,-2.0744,-2.0795,-2.0795,-2.061,-2.0472,-2.0472,-2.0858,-2.1153,-2.1175,-2.1636,-2.1888,-2.1793,-2.2044,-2.203,-2.1718,-2.2217,-2.237,-2.2184,-2.1969,-2.2016,-2.2249,-2.1779,-2.1779,0.0,-2.1657,-2.1417,-2.1321,-2.0497,-2.0156,0.0,0.0,0.0,0.0,0.0,-2.1623,-2.1874,0.0,0.0,0.0,0.0,0.0,0.0,0.0764,0.009,-0.058,-0.1109,-0.2991,-0.4302,-0.4474,-0.5875,-0.6516,-0.5756,-0.5834,-0.5996,-0.6303,-0.6756,-0.7085,-0.73,-0.7639,-0.8027,-0.849,-0.9019,-0.9535,-1.0114,-1.0147,-1.0301,-1.0624,-1.2035,-1.2336,-1.1772,-1.2512,-1.2269,-1.1048,-0.8632,-0.6467,-0.4619,-0.4732,-0.2852,0.0113,0.0,0.0,0.084,0.7284,0.5939,0.1567,0.486,0.0,0.0,0.0,0.0,0.0,0.0,0.0,0.0,0.0,0.0,0.0,0.0,0.0,0.0,0.0,0.0,0.0,0.0,0.0,0.0,0.0,0.0,0.0,0.0,-2.1527,-2.2128,-2.2649,-2.2356,-2.1983,-2.1718,-2.1126,-2.0845,-2.0944,-2.0795,-2.0696,-2.0858,-2.1348,-2.1541,-2.1286,0.0,0.0,0.0,0.0,-2.2278,-2.2278,-2.2706,-2.2706,-2.2278,-2.1718,-2.1513,-2.1561,-2.1042,-2.1042,-2.1465,-2.1465,-2.1465,-2.1369,-2.0795,-2.061,-2.056,-2.0055,-2.0258,-2.0858,-2.1334,-2.1513,0.0,0.0,0.0,0.0,0.0,0.0,0.0,0.0764,0.0584,0.0045,-0.1065,-0.2512,-0.3821,-0.4857,-0.6052,-0.6798,-0.6781,-0.6238,-0.6206,-0.6902,-0.6593,-0.702,-0.8427,-0.7923,-0.8058,-0.901,-0.9641,-1.0,-1.0114,-1.0354,-1.0571,-1.0624,-1.1365,-1.1663,-1.1545,-1.1919,-1.1064,-0.9289,-0.7761,-0.5672,-0.3525,-0.4414,-0.2595,0.07,0.0175,0.0,0.084,0.7284,0.8775,0.7466,0.5655,0.6073,0.6794,0.349,0.1768,0.0,0.0,0.0,0.0,0.0,0.0,0.0,0.0,0.0,0.0,0.0,0.0,0.0,0.0,0.0,0.0,0.0,0.0,0.0,-2.1463,-2.2038,-2.2512,-2.2844,-2.2109,-2.1712,-2.203,-2.1334,-2.1091,-2.1841,-2.0646,-2.0271,-2.1215,-2.1006,-2.1055,-2.165,-2.1935,0.0,-2.2417,-2.2509,-2.2615,-2.2752,-2.2843,-2.2843,-2.2752,0.0,0.0,-2.2601,-2.2123,-2.1935,-2.203,-2.203,-2.1827,-2.1369,-2.0795,-2.061,-2.061,-2.051,-2.1042,-2.1888,-2.203,-2.2263,-2.2555,0.0,0.0,0.0,0.0,0.0,0.0,0.0764,0.0359,-0.0446,-0.1987,-0.3125,-0.4388,-0.5865,-0.6822,-0.7283,-0.7134,-0.6748,-0.6691,-0.7074,-0.7063,-0.7538,-0.86,-0.8783,-0.9276,-1.0157,-1.0488,-1.0674,-1.0821,-1.0975,-1.1052,-1.1052,-1.1725,-1.1849,-1.1483,-1.0593,-0.9466,-0.8106,-0.5462,-0.3811,-0.2862,-0.2171,-0.0701,0.0904,0.0593,0.1266,0.2839,0.6037,0.8257,0.9369,0.7746,0.8172,0.8775,0.5309,0.2384,-0.0167,0.0,0.0,0.0,0.0,0.0,0.0,0.0,0.0,0.0,0.0,0.0,0.0,0.0,0.0,-1.8635,-1.9469,0.0,-2.1685,-2.2369,-2.2546,-2.2603,-2.2526,-2.2123,-2.1746,-2.1541,-2.1251,-2.1202,-2.1492,-2.0908,-2.0772,-2.1361,-2.1166,-2.1166,-2.1568,-2.1841,-2.2044,-2.2184,-2.2324,-2.2463,-2.2555,-2.2661,-2.2752,-2.2752,-2.237,-2.2463,-2.2888,-2.2417,-2.2324,-2.2555,-2.2324,-2.203,-2.1732,-2.0944,-2.061,-2.061,-2.0894,-2.114,-2.1444,-2.1684,-2.1969,-2.2203,0.0,0.0,0.0,0.0,0.0,0.0,0.0,0.0134,-0.0891,-0.2602,-0.3604,-0.478,-0.644,-0.7374,-0.773,-0.7291,-0.7482,-0.7509,-0.7295,-0.7753,-0.8211,-0.8532,-0.9583,-1.0453,-1.1108,-1.1264,-1.1465,-1.1663,-1.1663,-1.1608,-1.1483,-1.2027,-1.1965,-1.1233,-0.9271,-0.7914,-0.6836,-0.3304,-0.1659,-0.1259,0.0403,0.1563,0.2156,0.1269,0.2439,0.4608,0.5012,0.7187,0.9784,0.9714,0.9714,0.9262,0.6763,0.3116,-0.0965,-0.4473,-0.4731,0.0,0.0,0.0,0.0,0.0,0.0,0.0,0.0,-1.6387,-1.7447,-1.871,-1.9497,-2.0329,-2.1439,-2.1823,-2.2249,-2.3187,-2.2979,-2.2603,-2.2356,-2.217,-2.1793,-2.1153,-2.1361,-2.141,-2.1091,-2.1215,-2.1326,-2.1361,-2.1313,-2.1326,-2.1423,-2.1616,-2.1746,-2.1793,-2.1996,-2.2137,-2.2184,-2.2417,-2.2509,-2.2509,-2.237,-2.2463,-2.2843,-2.2509,-2.2509,-2.2752,-2.237,-2.2184,-2.2123,-2.1251,-2.0908,-2.0944,-2.1272,-2.1188,-2.0957,-2.1527,-2.1718,-2.1813,0.0,0.0,0.0,0.0,0.0,0.0,0.0,0.0,0.0089,-0.1241,-0.2556,-0.3818,-0.5162,-0.6842,-0.7886,-0.7798,-0.8731,-0.8876,-0.7871,-0.8349,-0.8745,-0.8738,-0.9486,-1.0143,-1.076,-1.1788,-1.235,-1.2389,-1.2389,-1.2089,-1.1483,-1.1608,-1.1303,-1.0618,-0.8612,-0.6698,-0.4866,-0.2713,0.0198,0.3304,0.1743,0.3325,0.6174,0.2408,0.2111,0.3874,0.5806,0.8214,1.0433,1.0155,1.0073,0.9735,0.7447,0.4515,0.1024,-0.354,-0.534,-0.6393,-0.8691,-1.143,-1.3879,-1.4999,-1.6112,-1.763,0.0,0.0,-2.0792,-2.2936,-2.3214,-2.3288,-2.393,-2.3749,-2.3493,-2.3406,-2.3009,-2.274,-2.2799,-2.2063,-2.1616,-2.1983,-2.2077,-2.2077,-2.203,-2.1348,-2.1006,-2.1361,-2.1068,-2.1006,-2.1375,-2.1423,-2.1568,-2.1793,-2.1841,-2.1949,-2.2184,-2.2231,-2.2231,-2.2231,-2.2463,-2.2555,-2.2661,-2.2752,-2.2615,-2.2278,-2.2231,-2.2184,-2.2184,-2.2077,-2.203,-2.1983,-2.1575,-2.167,-2.2077,-2.2555,-2.2752,-2.2752,0.0,0.0,0.0,0.0,0.0,0.0,0.0,0.0,0.0,-0.2207,-0.3514,-0.4771,-0.6083,-0.7231,-0.8156,-0.8829,-0.9197,-0.9249,-0.8928,-0.9295,-0.9537,-0.9617,-1.0195,-1.1025,-1.2077,-1.2193,-1.2366,-1.2512,-1.2512,-1.2151,-1.1483,-1.1911,-1.1725,-1.0982,-0.7845,-0.583,-0.4475,-0.1395,0.1528,0.4101,0.3255,0.4666,0.7125,0.5348,0.5592,0.6936,0.7068,0.8346,0.0,1.0436,1.077,1.041,0.701,0.3537,-0.0061,-0.3737,-0.4823,-0.5803,-1.0275,-1.3774,-1.6414,-1.7187,-1.8503,-1.9853,-2.0831,-2.1138,-2.1778,-2.3806,-2.3909,-2.3767,-2.4245,-2.4094,-2.3696,0.0,-2.3054,-2.3068,-2.2586,-2.2388,-2.2249,-2.2231,-2.2449,-2.2402,-2.1793,-2.1361,-2.1215,-2.1375,-2.1264,-2.1215,-2.1375,-2.1423,-2.1471,-2.1568,-2.1568,-2.1616,-2.1746,-2.1902,-2.1996,-2.1996,-2.2231,-2.237,-2.237,-2.2615,-2.2509,-2.2184,-2.2184,-2.2016,-2.1718,-2.1718,-2.1718,-2.1718,-2.1827,-2.2016,-2.2231,-2.2417,-2.2509,-2.2509,0.0,0.0,0.0,0.0,0.0,0.0,0.0,0.0,0.0,0.0,-0.4073,-0.5229,-0.6956,-0.7745,-0.8504,-0.9431,-0.9511,-0.951,-0.9562,-0.9762,-0.9866,-0.9782,-1.0586,-1.1576,-1.2828,-1.2609,-1.2555,-1.2839,-1.2627,-1.2174,-1.1518,-1.1994,-1.1609,-1.0424,-0.7063,-0.4921,-0.3668,0.0585,0.3075,0.4246,0.5158,0.6565,0.8075,0.7516,0.8601,1.0158,0.8227,0.8676,1.0047,0.9451,1.0309,1.1059,0.7975,0.2882,-0.2386,-0.4684,-0.5805,-0.735,-1.2024,-1.5216,-1.7396,-1.8107,-1.9572,-2.0833,-2.0885,-2.1261,-2.2034,-2.3709,-2.3782,-2.3739,-2.4094,-2.3967,-2.3523,-2.2694,-2.3054,-2.3157,-2.2449,-2.254,-2.2572,-2.231,-2.2342,-2.2109,-2.1361,-2.1471,-2.152,-2.1375,-2.1326,-2.1326,-2.1326,-2.1326,-2.1375,-2.1423,-2.1423,-2.1423,-2.1423,-2.1616,-2.1712,-2.1712,-2.1949,-2.2091,-2.2091,-2.2417,-2.2509,-2.237,-2.237,-2.217,-2.1813,-2.1813,-2.1813,-2.186,-2.2217,-2.237,-2.237,-2.237,-2.237,-2.2417,0.0,0.0,0.0,0.0,0.0,0.0,0.0,0.0,0.0,0.0,0.0,0.0,0.0,-0.8183,-0.8835,-0.9173,-0.993,-1.0115,-0.9465,-0.951,-0.9302,-0.8692,-1.0135,-1.1419,-1.2322,-1.295,-1.3377,-1.366,-1.2859,-1.2184,-1.1519,-1.1519,-1.0365,-0.8096,-0.6112,-0.4037,-0.1643,0.3423,0.4982,0.437,0.7499,0.937,1.0105,0.8059,0.9606,1.2477,0.9176,0.9543,1.0898,0.6485,0.7919,1.1605,1.1452,0.3577,-0.5789,-0.6492,-0.9379,-1.2528,-1.3252,-1.4809,-1.6294,-1.7004,-1.8401,-1.9927,-2.1005,-2.1438,-2.1909,-2.3098,-2.348,-2.3653,-2.3797,-2.3538,-2.3172,-2.2754,-2.2844,-2.2889,-2.2709,-2.231,-2.2123,-2.2466,-2.1636,-2.1033,0.0,-2.1616,-2.1746,-2.1229,-2.1082,-2.1082,-2.118,-2.1229,-2.1277,-2.1423,-2.1423,-2.1423,-2.1423,-2.1423,-2.1423,-2.1423,-2.1664,-2.1793,-2.1841,-2.237,-2.2706,-2.2888,-2.2888,-2.2843,-2.2843,-2.2843,-2.2843,-2.2843,-2.2843,-2.2888,-2.2888,-2.2888,-2.2888,-2.2888,0.0,0.0,0.0,0.0,0.0,0.0,0.0,0.0,0.0,0.0,0.0,0.0,0.0,0.0,0.0,0.0,-1.0174,-1.0115,-1.0064,-0.9762,-0.9406,-0.9001,-0.9664,-1.085,-1.2468,-1.277,-1.3078,-1.35,-1.3338,-1.2604,-1.1374,-1.0371,-0.924,-0.7952,-0.5019,-0.3011,-0.1579,0.3537,0.6272,0.7516,1.073,1.2611,1.3408,1.2751,1.1981,1.1091,0.0,0.843,0.7691,0.7154,0.9012,1.1611,1.1588,0.4204,-0.4875,-0.7173,-0.9882,-1.252,-1.4634,-1.5625,-1.6507,-1.8325,-1.9199,-1.9927,-2.1151,-2.1533,-2.1769,-2.2271,-2.2455,-2.2366,-2.1736,-2.189,-2.2072,-2.1946,-2.2575,-2.295,-2.2603,-2.242,-2.2374,-2.2466,-2.2189,0.0,0.0,0.0,0.0,-2.1082,-2.1033,-2.1033,-2.1033,-2.1131,-2.1229,-2.1277,-2.1375,-2.1568,-2.1949,-2.1949,-2.1949,-2.1949,-2.1664,-2.1698,-2.2091,-2.2231,-2.2555,-2.2888,-2.2888,-2.2888,-2.2888,-2.2888,-2.2888,-2.2933,-2.3127,-2.3216,-2.3216,-2.3216,-2.3392,-2.3553,0.0,0.0,0.0,0.0,0.0,0.0,0.0,0.0,0.0,0.0,0.0,0.0,0.0,0.0,0.0,0.0,0.0,-1.0754,-1.0364,-1.034,-1.0041,-0.9309,-0.9666,-1.0716,-1.2521,-1.2319,-1.2447,-1.2963,-1.2816,-1.1839,-0.9936,-0.9088,-0.7762,-0.5949,-0.3708,-0.1507,0.081,0.542,0.8045,0.9431,1.3213,1.4408,1.4042,1.4378,1.2825,0.0,0.9041,0.7347,0.5517,0.5298,0.435,0.3309,0.3332,-0.1121,-0.685,-0.907,-1.0683,-1.2328,-1.4868,-1.5504,-1.594,-1.7662,-1.8289,-1.8713,-1.9699,-2.0189,-2.0611,-2.1116,-2.1356,-2.1356,-2.0886,-2.1178,-2.1431,-2.1253,-2.2025,-2.2469,-2.1974,-2.1866,-2.1913,-2.2095,-2.1955,-2.1732,0.0,0.0,0.0,-2.0961,-2.0898,-2.0898,-2.0961,-2.1095,-2.1131,-2.1131,-2.1277,-2.1471,-2.1841,-2.1841,-2.1949,-2.2184,-2.1874,-2.2063,-2.2618,-2.2663,-2.2859,-2.3098,-2.3246,-2.3187,-2.3098,-2.3231,-2.329,-2.3334,-2.3523,-2.3595,-2.3595,-2.3595,-2.3782,-2.3897,0.0,0.0,0.0,0.0,0.0,0.0,0.0,0.0,0.0,0.0,0.0,0.0,0.0,0.0,0.0,0.0,0.0,0.0,-1.0364,-1.1156,-1.1048,-0.951,-1.0115,-1.109,-1.2396,-1.1733,-1.1584,-1.2104,-1.1633,-1.0156,-0.7733,-0.7814,-0.5933,-0.2405,-0.2244,0.0432,0.5039,0.8764,1.0092,1.0166,1.4802,1.4802,1.2106,1.3168,1.2119,0.9856,0.7942,0.6306,0.4515,0.1141,-0.4895,-1.1068,-1.1455,-1.1458,-1.1354,-1.1909,-1.1934,-1.2228,-1.3983,-1.4469,-1.4647,-1.5235,-1.5894,-1.6457,-1.6993,-1.7727,-1.8649,-1.9686,-2.0204,-2.0578,0.0,0.0,-2.1253,-2.0801,-2.1301,-2.1554,-2.0939,-2.0828,-2.0926,0.0,0.0,0.0,0.0,0.0,0.0,-2.0888,0.0,-2.0762,-2.0888,-2.0961,-2.0997,-2.0997,-2.1131,-2.118,-2.1229,-2.1277,-2.1616,-2.2231,-2.2282,-2.268,-2.3406,-2.3465,-2.3465,-2.3406,-2.3754,-2.3696,-2.3406,-2.3797,-2.3982,-2.3982,-2.4055,-2.4085,-2.4085,-2.4116,-2.4131,-2.4116,0.0,0.0,0.0,0.0,0.0,0.0,0.0,0.0,0.0,0.0,0.0,0.0,0.0,0.0,0.0,0.0,0.0,0.0,-1.1057,-1.163,-1.1364,-0.9909,-1.0721,-1.1396,-1.1818,-1.176,-1.1859,-1.2015,-1.258,-1.1778,-0.9636,-0.7315,-0.55,-0.4028,-0.1159,0.186,0.499,0.7972,1.0243,1.2201,1.5391,1.4802,1.2218,1.4019,1.0991,0.5898,0.6921,0.5065,0.2009,0.1144,-0.0877,-0.3989,-0.9778,-1.1717,-1.1783,-1.1423,-1.1538,-1.2228,-1.3983,-1.4469,-1.4647,-1.5235,-1.5536,-1.5911,-1.6871,-1.7323,-1.7759,-1.8696,-1.9,-1.9052,-1.8943,0.0,0.0,-2.101,-2.1946,0.0,-2.1833,-2.1724,0.0,-2.1908,0.0,-2.1361,-2.1718,-2.1458,0.0,0.0,-2.0712,-2.0699,-2.0762,-2.0875,-2.0938,-2.0938,-2.101,-2.1229,-2.1664,-2.2109,-2.2374,-2.2572,-2.2356,-2.2618,-2.3304,-2.2572,-2.2663,-2.3304,-2.3038,-2.2963,-2.3053,-2.3421,-2.3551,-2.364,-2.4713,-2.5126,-2.5188,-2.5697,-2.6044,-2.6248,0.0,0.0,0.0,0.0,0.0,0.0,0.0,0.0,0.0,0.0,0.0,0.0,0.0,0.0,0.0,0.0,0.0,0.0,0.0,-1.215,-1.1926,-1.0261,-1.0679,-1.1032,-1.1266,-1.0931,-1.0872,-1.119,-1.1747,-1.1006,-0.904,-0.6476,-0.4709,-0.3542,-0.0499,0.2366,0.499,0.8172,1.074,0.0,0.0,1.5339,1.3457,1.4132,1.0698,0.5708,0.6857,0.4611,0.1076,0.0876,0.047,-0.1067,-0.7152,-1.0334,-1.184,-1.1556,-1.1608,-1.2112,-1.3983,-1.4469,-1.4588,-1.4942,-1.5177,-1.5507,-1.584,-1.6265,-1.6714,-1.7512,-1.7775,-1.7938,-1.7984,-1.9153,-2.0192,0.0,0.0,0.0,-2.1534,-2.1438,-2.1452,0.0,-2.1215,0.0,-2.1431,-2.1166,-2.0947,0.0,-2.0699,-2.0699,-2.0699,-2.0838,-2.0888,-2.0825,-2.0924,-2.1109,-2.1388,-2.2077,-2.248,-2.2694,-2.2844,-2.3216,-2.3797,-2.3275,-2.3275,-2.3668,0.0,-2.4014,-2.3956,-2.4667,-2.492,-2.4906,-2.5784,-2.6112,-2.6158,-2.6592,-2.6895,-2.7056,0.0,0.0,0.0,0.0,0.0,0.0,0.0,0.0,0.0,0.0,0.0,0.0,0.0,0.0,0.0,0.0,0.0,0.0,0.0,0.0,-1.2434,-1.0626,-1.0364,-1.0423,-1.0761,-0.9777,-0.951,-1.0064,-1.0167,-0.9334,-0.7647,-0.5695,-0.4025,-0.2514,-0.0167,0.2366,0.5039,0.8521,1.0941,1.2716,1.5255,1.5533,1.4359,0.0,1.0505,0.6857,0.66,0.4159,0.1076,0.0674,0.0334,-0.0595,-0.4593,-0.8479,-1.1681,-1.1994,-1.1941,-1.2112,-1.3863,-1.435,-1.435,-1.435,-1.4765,-1.5059,-1.4588,-1.4982,-1.5671,-1.6446,-1.6797,-1.7123,-1.7788,-1.9181,-2.0167,-1.9953,0.0,-2.1669,-2.089,-2.0805,-2.0782,-2.0785,-2.0649,-2.0649,-2.0749,-2.0562,-2.0511,-2.0662,-2.0662,-2.0662,-2.0699,-2.0825,-2.0825,-2.0699,-2.0875,-2.0987,-2.0987,-2.1759,-2.2342,-2.2785,-2.3465,-2.4055,-2.4581,-2.4524,-2.4471,-2.4426,0.0,0.0,-2.5358,-2.6383,-2.672,-2.6647,-2.6917,-2.7036,-2.7052,-2.7363,-2.7411,-2.7367,0.0,0.0,0.0,0.0,0.0,0.0,0.0,0.0,0.0,0.0,-0.6327,-0.8117,0.0,0.0,0.0,0.0,0.0,0.0,0.0,0.0,0.0,-1.1209,-1.078,-1.0468,-1.0174,-0.9614,-0.9309,-0.9211,-0.9961,-0.9894,-0.9006,-0.6139,-0.462,-0.419,-0.0665,0.2366,0.4941,0.69,0.9154,1.1532,1.3325,1.291,1.1178,1.1015,0.0,0.0,0.2793,0.1743,0.1078,0.1012,0.074,-0.0334,-0.4475,-0.8495,-1.166,-1.2002,-1.212,-1.2421,-1.339,-1.3683,-1.3683,-1.3683,-1.3743,-1.3923,-1.441,-1.4588,-1.505,-1.6343,-1.6627,-1.6899,-1.7733,-1.8466,-1.9403,-2.0815,-2.1266,-2.152,-2.1785,-2.1833,-2.1657,0.0,-2.1091,-2.1042,-2.0957,-2.0523,0.0,0.0,0.0,0.0,-2.0712,-2.0712,-2.0712,-2.0699,-2.1095,-2.1326,-2.1326,-2.242,-2.3039,-2.3128,-2.3465,-2.4154,-2.5149,-2.4358,-2.4611,-2.5667,0.0,0.0,-2.565,-2.6138,-2.6319,-2.6381,-2.7344,-2.7742,-2.7866,-2.8922,-2.9074,-2.8865,0.0,0.0,0.0,0.0,0.0,0.0,0.0,0.1199,-0.0175,-0.2109,-0.4903,-0.7733,-1.0555,-1.1736,-1.2235,0.0,0.0,0.0,0.0,0.0,0.0,-1.1318,-1.0754,-1.0442,-1.049,-0.9673,-0.9309,-0.9413,0.0,-0.9266,-0.8075,-0.5556,-0.4088,-0.3379,-0.0388,0.2366,0.4934,0.7367,0.9467,1.1312,1.3763,1.2991,1.0374,1.0374,0.0,0.0,0.1873,0.1076,0.1078,0.1079,0.0944,-0.0067,-0.5013,-0.8863,-1.1618,-1.1884,-1.1872,-1.2104,-1.3494,-1.3502,-1.326,-1.3863,-1.3752,-1.3571,-1.3932,-1.3992,-1.4341,-1.57,-1.6036,-1.6322,-1.7067,-1.7927,-1.8766,-1.9648,-2.0578,-2.1205,-2.1183,-2.1677,-2.1813,-2.0921,-2.1006,-2.0944,0.0,-2.0372,0.0,0.0,0.0,0.0,-2.0699,-2.0699,-2.0699,-2.0699,-2.101,-2.1242,-2.1423,-2.236,-2.295,-2.3216,-2.4041,-2.4752,-2.529,-2.5228,-2.5576,-2.6199,0.0,0.0,-2.6641,-2.7226,-2.7411,-2.741,-2.8015,-2.8264,-2.8357,-2.9055,-2.9364,-2.9409,0.0,0.0,0.0,0.0,0.0,0.0,0.0,0.202,0.1245,-0.0566,-0.397,-0.7622,-1.132,-1.2767,-1.3528,0.0,0.0,0.0,0.0,0.0,0.0,0.0,0.0,0.0,-1.0972,0.0,0.0,-0.9865,-0.9718,0.0,0.0,0.0,0.0,0.0,-0.0056,0.2044,0.4207,0.7711,0.9321,0.0,0.0,1.3606,0.0,0.0,0.0,0.0,0.0,0.1076,0.1076,0.1078,0.1079,0.0201,-0.5147,-0.9009,-1.1639,-1.1725,-1.1575,-1.1732,-1.3312,-1.3252,-1.2956,-1.3983,-1.3752,-1.339,-1.3631,-1.3683,-1.4043,-1.5177,-1.5575,-1.5921,-1.6513,-1.739,-1.8097,-1.8342,-1.9494,-2.0343,-2.0268,-2.117,-2.15,-2.0686,-2.0921,0.0,-2.0372,-2.0233,0.0,0.0,0.0,0.0,0.0,-2.0699,-2.0699,-2.0699,-2.101,-2.134,-2.1602,-2.242,-2.3127,-2.3629,-2.4711,-2.54,-2.578,-2.6349,-2.6672,-2.6842,0.0,0.0,0.0,-2.8324,-2.8525,-2.8525,-2.8589,-2.8668,-2.8858,-2.909,-2.9393,-2.9661,0.0,0.0,0.0,0.0,0.0,0.0,0.0,0.2201,0.1468,-0.0523,-0.381,-0.7253,-1.0697,-1.2326,-1.381,0.0,0.0,0.0,0.0,0.0,0.0,0.0,0.0,0.0,0.0,0.0,0.0,-1.0167,0.0,0.0,0.0,0.0,0.0,0.0,0.0,0.1008,0.1561,0.6204,0.0,0.0,0.0,0.0,0.0,0.0,0.0,0.0,0.0,0.1076,0.1076,0.1076,0.1078,0.0336,-0.4009,-0.8236,-1.1589,-1.1631,-1.1703,-1.1802,-1.2182,-1.2305,-1.2544,-1.3208,-1.3033,-1.2981,-1.4172,-1.441,-1.4588,-1.5235,-1.5894,-1.6363,-1.6581,-1.6673,-1.7135,-1.8247,-1.8186,-1.8489,-1.9927,-2.0617,-2.0975,-2.0795,0.0,0.0,-2.0809,0.0,0.0,0.0,0.0,0.0,0.0,-2.0699,-2.0699,-2.0699,-2.1684,-2.2189,-2.2235,-2.3436,-2.4387,-2.504,-2.5201,-2.598,-2.7211,-2.7272,-2.7642,-2.8227,0.0,0.0,0.0,-2.8381,-2.8653,-2.8997,-2.87,-2.8936,-2.947,-2.9968,-3.0011,-2.9924,0.0,0.0,0.0,0.0,0.0,0.0,0.2201,0.2201,0.1923,0.1107,-0.3821,-0.7805,-0.9181,-1.3324,-1.634,-1.7044,0.0,0.0,0.0,0.0,0.0,0.0,0.0,0.0,0.0,0.0,-1.0897,-1.0846,-1.0897,0.0,0.0,0.0,0.0,0.0,0.0,0.0,0.3371,0.5268,0.0,0.0,0.0,0.0,0.0,0.0,0.0,0.0,0.0,0.0,0.1076,0.1076,0.0067,-0.1467,-0.2589,-0.6314,-1.0477,-1.1347,-1.1206,-1.0968,-1.2158,-1.1841,-1.1406,-1.2765,-1.2781,-1.2552,-1.3086,-1.3563,-1.4112,-1.4706,-1.5352,-1.5951,-1.642,-1.6477,-1.6637,-1.7146,-1.7368,-1.7754,-1.837,-1.9337,-2.0054,-2.0357,-2.089,0.0,0.0,0.0,0.0,0.0,0.0,0.0,0.0,-2.0699,-2.0699,-2.0699,-2.1458,-2.2002,-2.2314,-2.3599,-2.4594,-2.519,-2.603,-2.6796,-2.7411,-2.7811,-2.8325,-2.8826,0.0,0.0,0.0,-2.892,-2.909,-2.9483,-2.9364,-2.9454,-2.9722,-3.0054,-3.0208,-3.0377,0.0,0.0,0.0,0.0,0.0,0.2201,0.2201,0.2154,0.2064,0.2064,-0.3113,-0.6833,-0.6833,-1.3147,-1.7377,-1.7366,-1.8212,0.0,0.0,0.0,0.0,0.0,0.0,0.0,0.0,0.0,-1.1528,-1.1528,-1.1528,-0.9314,0.0,0.0,0.0,0.0,0.0,0.0,0.0,0.0,0.0,0.0,0.0,0.0,0.0,0.0,0.0,0.0,0.0,0.0,0.0,0.0,0.0,-0.2526,-0.2462,-0.5501,-0.9239,-1.0378,-1.0421,-1.0395,-1.1779,-1.1469,-1.1149,-1.281,-1.2712,-1.2367,-1.2781,-1.3147,-1.3631,-1.435,-1.5001,-1.5594,-1.6259,-1.6384,-1.6384,-1.6384,-1.6807,-1.7179,-1.7324,-1.8251,-1.9129,-1.9672,0.0,0.0,0.0,0.0,0.0,0.0,0.0,0.0,0.0,-2.0699,-2.0749,-2.0898,-2.1554,-2.2194,-2.2861,-2.4028,-2.5032,-2.5876,-2.6949,-2.7597,-2.7922,-2.8529,-2.9013,0.0,0.0,0.0,0.0,-2.9393,-2.9483,-2.9793,-2.9793,-2.9897,-3.007,-3.0208,-3.0418,-3.0666,0.0,0.0,0.0,0.0,0.0,0.0,0.2201,0.1973,0.1794,0.1794,-0.1364,-0.3656,-0.3656,-1.0973,-1.5931,-1.5931,-1.5271,0.0,0.0,0.0,0.0,0.0,0.0,0.0,0.0,0.0,-1.2076,-1.2076,-1.2076,-0.986,-0.5589,-0.5589,-0.3258,0.0,0.0,0.0,0.0,0.0,0.0,0.0,0.0,0.0,0.0,0.0,0.0,0.0,0.0,0.0,0.0,0.0,0.0,0.0,0.0,-0.6298,-0.7965,-0.8403,-0.9361,-1.0338,-1.0478,-1.1115,-1.2104,-1.3347,-1.2887,-1.2482,-1.3855,-1.3734,-1.3511,-1.435,-1.5001,-1.5594,-1.6259,-1.6384,-1.6384,-1.6384,-1.6384,-1.6591,-1.7146,-1.7654,-1.824,0.0,0.0,0.0,0.0,0.0,0.0,0.0,0.0,0.0,0.0,0.0,-2.0898,-2.1375,-2.2109,-2.3028,-2.4159,-2.4938,-2.601,-2.738,-2.7884,-2.8455,-2.912,-2.9572,0.0,0.0,0.0,0.0,0.0,-2.9617,-2.981,-2.9793,-2.9793,-3.0156,-3.0692,-3.0601,-3.0666,-3.0845,0.0,0.0,0.0,0.0,0.0,0.0,0.0,0.2109,0.202,0.1839,-0.1276,-0.3471,-0.3471,-0.8344,-1.1098,-0.9839,-1.6331,0.0,0.0,0.0,0.0,0.0,0.0,0.0,0.0,0.0,-1.2076,-1.2076,-1.2076,-0.9852,-0.5589,-0.5589,-0.3258,0.0898,0.0898,0.0,0.0,0.0,0.0,0.0,0.0,0.0,0.0,0.0,0.0,0.0,0.0,0.0,0.0,0.0,0.0,0.0,0.0,0.0,0.0,-0.7647,-0.8759,-0.9779,-1.0358,-1.0351,-1.0647,-1.2435,-1.2397,-1.2112,-1.307,-1.326,-1.3502,-1.4154,-1.4874,-1.5594,-1.6259,-1.6694,-1.6842,-1.6488,-1.6684,-1.6899,-1.6684,0.0,0.0,-1.9533,0.0,0.0,0.0,0.0,0.0,0.0,0.0,0.0,0.0,0.0,-2.1589,-2.1423,-2.2359,-2.332,-2.4174,-2.5712,-2.6796,-2.7396,-2.8031,-2.8576,-2.912,-2.9257,0.0,0.0,0.0,0.0,0.0,-3.0351,-3.0493,-3.0757,-3.0804,-3.0902,-3.1072,-3.1173,-3.1173,-3.1095,0.0,0.0,0.0,0.0,0.0,0.0,0.0,0.1884,0.1703,0.1569,-0.0425,-0.1845,-0.1845,-0.5494,-0.7487,-0.6349,-1.3801,0.0,0.0,0.0,0.0,0.0,0.0,0.0,-1.3131,-1.2444,-1.2076,-1.2076,-1.124,-0.9045,-0.5589,-0.4744,-0.2456,0.0898,0.0898,0.0898,0.0,0.0,0.0,0.0,0.0,0.0,1.1275,0.0,0.0,0.0,0.0,0.0,0.0,0.0,0.0,0.0,0.0,0.0,0.0,0.0,-0.8146,-0.9524,-0.9518,-0.9512,-0.9818,-1.1564,-1.1648,-1.1545,-1.2589,-1.3287,-1.387,-1.4573,-1.5352,-1.6073,-1.6729,-1.7056,-1.7045,-1.6488,-1.6842,-1.7146,0.0,0.0,0.0,0.0,0.0,0.0,0.0,0.0,0.0,0.0,0.0,0.0,0.0,0.0,-2.2049,-2.1969,-2.2985,-2.3981,-2.4896,-2.6379,-2.7441,-2.8031,-2.8638,-2.9182,-2.9645,0.0,0.0,0.0,0.0,0.0,0.0,-3.0821,-3.0838,-3.0958,-3.1157,-3.1252,-3.123,-3.1363,-3.1325,-3.123,0.0,0.0,0.0,0.0,0.0,0.0,0.0,0.156,0.1119,0.1119,0.0897,0.0764,0.0764,-0.2512,-0.4699,-0.4699,0.0,0.0,0.0,0.0,0.0,0.0,0.0,0.0,-1.4754,-1.3168,-1.2286,-1.2286,-0.9953,-0.7713,-0.5536,-0.3315,-0.1157,0.0898,0.0898,0.0898,0.09,0.0872,0.096,0.1234,0.4189,0.7987,0.0,0.0,0.0,0.0,0.0,0.0,0.0,0.0,0.0,0.0,0.0,0.0,0.0,0.0,0.0,0.0,0.0,-0.8667,-0.9621,-1.0913,-1.0885,-1.0919,-1.2458,-1.3485,0.0,-1.5206,-1.5981,-1.6701,-1.7357,-1.7357,-1.7045,-1.6488,-1.6842,-1.7413,0.0,-1.8163,0.0,0.0,0.0,0.0,0.0,0.0,0.0,0.0,0.0,0.0,0.0,0.0,0.0,-2.2934,-2.3893,-2.4925,-2.5971,-2.6995,-2.8031,-2.9074,-2.9572,-3.0054,-3.0518,0.0,0.0,0.0,0.0,0.0,0.0,-3.1015,-3.0918,-3.0601,-3.1055,-3.119,-3.119,-3.119,-3.123,-3.1291,0.0,0.0,0.0,0.0,0.0,0.0,0.0,0.0,0.0,0.0,0.1254,0.1256,0.1256,0.0517,0.0,0.0,0.0,0.0,0.0,0.0,0.0,0.0,0.0,0.0,-1.4841,-1.4372,-1.4183,-1.4183,-1.0565,-0.7713,-0.5536,-0.3315,-0.1157,0.0898,0.0898,0.0898,0.09,0.0872,0.096,0.1052,0.1834,0.281,0.0,0.0,0.0,0.0,0.2898,0.1936,0.0,0.0,0.0,0.0,0.0,0.0,0.0,0.0,-0.8345,-0.7972,-0.7712,0.0,-1.0072,-1.0982,-1.1142,-1.1358,0.0,-1.2504,-1.2732,-1.3862,-1.4405,-1.4963,-1.6104,-1.7,-1.7224,-1.6192,-1.6955,-1.7754,-1.785,0.0,0.0,0.0,0.0,0.0,0.0,0.0,0.0,0.0,0.0,0.0,0.0,0.0,0.0,-2.3421,-2.4732,-2.5559,-2.5863,-2.7535,-2.8607,-2.8951,-2.9528,-3.0054,-3.0518,0.0,0.0,0.0,0.0,0.0,-3.1055,-3.1151,-3.1151,-3.1055,-3.1196,-3.1252,-3.119,-3.1252,-3.1411,-3.1582,0.0,0.0,0.0,0.0,0.0,0.0,0.0,0.0,0.0,0.0,0.0,0.3372,0.3245,0.2156,0.0,0.0,0.0,0.0,0.0,0.0,0.0,0.0,0.0,-1.7115,-1.612,-1.4281,-1.3323,-1.3323,-0.8273,-0.5227,-0.4056,-0.1864,-0.0222,0.0898,0.0898,0.0898,0.0898,0.0915,0.0947,0.099,0.1006,0.0,0.0,0.0,0.0,0.0,0.6041,0.4439,0.0,0.1852,0.1076,0.0738,0.0,0.0,0.0,0.0,-0.6945,-0.7553,-0.7517,-0.8226,-0.9175,-1.0229,-1.0634,-1.1094,-1.2512,-1.2793,-1.3124,-1.4495,-1.4915,-1.5332,-1.6322,-1.7556,-1.797,-1.6616,-1.8024,0.0,0.0,0.0,0.0,0.0,0.0,0.0,0.0,0.0,0.0,0.0,0.0,0.0,0.0,0.0,0.0,0.0,-2.5213,-2.5971,-2.5786,-2.7578,-2.8701,-2.9241,-2.9617,-3.014,-3.0821,0.0,0.0,0.0,0.0,0.0,-3.119,-3.119,-3.119,-3.119,-3.1252,-3.1213,-3.119,-3.1252,-3.1449,-3.1714,0.0,0.0,0.0,0.0,0.0,0.0,0.0,0.0,0.0,0.0,0.0,0.0,0.0,0.0,0.0,0.0,0.0,0.0,0.0,0.0,0.0,0.0,-1.5479,-1.6831,-1.619,-1.3446,-1.1738,-1.1085,-0.5178,-0.2296,-0.2244,-0.0111,0.09,0.0905,0.0909,0.0911,0.0911,0.0968,0.1002,0.1056,0.1829,0.0,0.0,0.0,0.0,0.0,0.0,0.0,0.0,0.3268,0.1725,0.1075,0.0738,0.0,0.0,0.0,0.0,0.0,-0.7762,-0.7907,-0.8285,-0.9551,-1.0066,-1.0773,-1.2712,-1.3374,-1.401,-1.5514,-1.581,-1.6151,-1.7313,-1.8193,0.0,0.0,0.0,0.0,0.0,0.0,0.0,0.0,0.0,0.0,0.0,0.0,0.0,0.0,0.0,0.0,0.0,0.0,0.0,0.0,-2.5435,-2.6259,-2.5894,-2.7641,-2.8889,-2.9673,-2.9924,-3.0452,-3.119,-3.119,0.0,0.0,0.0,0.0,-3.119,-3.119,-3.119,-3.119,-3.119,-3.119,-3.119,-3.119,-3.1466,-3.186,0.0,0.0,0.0,0.0,0.0,0.0,0.0,0.0,0.0,0.0,0.0,0.0,0.0,0.0,0.0,0.0,0.0,0.0,0.0,0.0,0.0,-0.415,-1.1056,-1.3259,-0.981,-1.2528,-1.2267,-0.8812,-0.4462,-0.2296,-0.2244,-0.0111,0.0911,0.0878,0.0962,0.0974,0.0974,0.1276,0.1241,0.1399,0.5718,0.0,0.0,0.0,0.0,0.0,0.0,0.0,0.0,0.6002,0.4379,0.0805,-0.0866,0.0,0.0,0.0,0.0,0.0,-0.8726,-0.9192,-0.9448,-1.0388,-1.1094,-1.1677,-1.2297,-1.2474,-1.3036,-1.4781,-1.4486,-1.4945,-1.8354,-1.7739,-1.7136,0.0,0.0,0.0,0.0,0.0,0.0,0.0,0.0,0.0,0.0,0.0,0.0,0.0,0.0,0.0,0.0,0.0,0.0,0.0,0.0,-2.6378,-2.6289,-2.863,-2.9865,-3.0038,-3.0658,-3.1055,-3.119,-3.119,-3.119,0.0,0.0,0.0,-3.119,-3.119,-3.119,-3.119,-3.119,-3.119,-3.119,-3.119,-3.1637,-3.2317,0.0,0.0,0.0,0.0,0.0,0.0,0.0,0.0,0.0,0.0,0.0,0.0,0.0,0.0,0.0,0.0,0.0,0.0,0.0,0.0,-0.1121,-0.0387,-0.6144,-0.9022,-0.8318,-0.8986,-0.8446,-0.6558,-0.2544,-0.0554,-0.0554,0.0455,0.0939,0.0968,0.0982,0.0988,0.105,0.1356,0.1442,0.1724,0.0,0.0,0.0,0.0,0.0,0.0,0.0,0.0,0.0,0.0,0.317,0.1209,0.0134,0.0,0.0,0.0,0.0,0.0,-0.7519,-0.8977,-1.0351,-1.1454,-1.1772,-1.2158,-1.3571,-1.376,-1.3826,-1.4563,-1.4808,-1.5408,-1.7311,0.0,-1.9128,-2.1233,0.0,0.0,0.0,0.0,0.0,0.0,0.0,0.0,0.0,0.0,0.0,0.0,0.0,0.0,0.0,0.0,0.0,0.0,0.0,0.0,-2.7089,-2.9293,-3.0309,-3.0123,-3.0601,-3.0958,-3.119,-3.119,-3.119,0.0,0.0,-3.119,-3.119,-3.119,-3.119,-3.119,-3.119,-3.119,-3.1269,-3.1637,-3.2109,-3.2651,0.0,0.0,0.0,0.0,0.0,0.0,0.0,0.0,0.0,0.0,0.0,0.0,0.0,0.0,0.0,0.0,0.0,0.0,0.0,0.2127,0.1578,0.223,-0.1406,-0.4321,-0.6108,-0.5436,-0.4654,-0.3686,-0.0595,0.0901,0.0909,0.0939,0.097,0.0999,0.1005,0.1009,0.1072,0.1511,0.1658,0.2121,0.0,0.0,0.0,0.0,0.0,0.0,0.0,0.0,0.0,0.0,0.0,0.0,0.0,0.0,0.0,-0.0602,-0.2783,-0.5,-0.6461,-0.8698,-1.087,-1.202,-1.202,-1.2266,-1.4419,-1.4798,-1.4772,-1.5148,-1.582,-1.656,-1.7202,-1.9002,0.0,-2.2595,0.0,0.0,0.0,0.0,0.0,0.0,0.0,0.0,0.0,0.0,0.0,0.0,0.0,0.0,0.0,0.0,0.0,0.0,0.0,0.0,-2.7697,-2.9518,-3.0385,-3.0309,-3.0518,-3.0821,-3.119,-3.119,-3.119,-3.119,-3.119,-3.119,-3.119,-3.119,-3.119,-3.119,-3.119,-3.1269,-3.1406,-3.2074,-3.2502,-3.2876,0.0,0.0,0.0,0.0,0.0,0.0,0.0,0.0,0.0,0.0,0.0,0.0,0.0,0.0,0.0,0.0,0.0,0.0,0.0,0.4021,0.2424,0.4996,0.2671,0.0996,0.0277,-0.3265,-0.3262,0.0444,0.0783,0.0912,0.0882,0.0971,0.1001,0.1031,0.1058,0.1069,0.1136,0.1872,0.1941,0.2435,1.1939,0.0,0.0,0.0,0.0,0.0,0.0,0.0,0.0,0.0,0.0,0.0,0.0,0.0,0.0738,-0.1198,-0.3171,-0.5127,-0.7035,-0.9018,-1.0807,-1.1648,-1.1655,-1.1973,-1.37,-1.4337,-1.5042,-1.6906,-1.7356,-1.8035,-2.0114,-2.0761,-2.07,0.0,0.0,0.0,0.0,0.0,0.0,0.0,0.0,0.0,0.0,0.0,0.0,0.0,0.0,0.0,0.0,0.0,0.0,0.0,0.0,0.0,-2.7697,-2.9022,-3.0089,-3.0814,-3.0935,-3.1072,-3.119,-3.119,-3.119,-3.119,-3.119,-3.119,-3.119,-3.119,-3.119,-3.119,-3.119,-3.1389,-3.1731,-3.2144,-3.2502,-3.2876,0.0,0.0,0.0,0.0,0.0,0.0,0.0,0.0,0.0,0.0,0.0,0.0,0.0,0.0,0.0,0.0,0.0,0.0,0.0,0.7741,0.5841,0.5174,0.4445,0.3124,0.1174,-0.0325,-0.0378,0.1122,0.0973,0.0941,0.0972,0.1002,0.1032,0.106,0.1338,0.1412,0.148,0.2218,0.242,0.2852,0.9556,1.3807,0.0,0.0,0.0,0.0,0.0,0.0,0.0,0.0,0.5131,0.2211,0.374,0.2775,0.0941,0.0201,-0.1395,-0.3041,-0.3762,-0.6617,-0.9409,-0.9712,-1.0656,-1.2081,-1.4405,-1.5914,-1.6594,-1.5966,-1.7508,-1.9147,-1.9762,0.0,0.0,0.0,0.0,0.0,0.0,0.0,0.0,0.0,0.0,0.0,0.0,0.0,0.0,0.0,0.0,0.0,0.0,0.0,0.0,0.0,0.0,0.0,0.0,-2.9013,-2.9919,-3.0773,-3.0912,-3.0935,-3.1032,-3.1032,-3.1032,-3.1072,-3.1072,-3.1112,-3.119,-3.119,-3.119,-3.119,-3.119,-3.1562,-3.2109,-3.2231,-3.2651,-3.3178,0.0,0.0,0.0,0.0,0.0,0.0,0.0,0.0,0.0,0.0,0.0,0.0,0.0,0.0,0.0,0.0,0.0,0.0,1.2544,1.0084,0.7692,0.5494,0.476,0.3554,0.1788,0.157,0.1457,0.1457,0.1217,0.1018,0.0989,0.1146,0.1179,0.1143,0.1614,0.1748,0.1681,0.2418,0.2686,0.3127,0.7885,1.1609,0.0,0.0,0.0,0.0,0.0,0.0,0.0,0.0,0.403,0.248,0.3994,0.2902,0.1076,0.1076,-0.0865,-0.3033,-0.3033,-0.6205,-0.958,-0.9756,-1.0829,-1.2549,-1.5216,-1.6661,-1.7148,-1.61,-1.7759,-1.9467,-1.9508,0.0,0.0,0.0,0.0,0.0,0.0,0.0,0.0,0.0,0.0,0.0,0.0,0.0,0.0,0.0,0.0,0.0,0.0,0.0,0.0,0.0,0.0,0.0,0.0,-2.8853,-2.9606,-3.0651,-3.0733,-3.0831,-3.0912,-3.0912,-3.0912,-3.0975,-3.0975,-3.1055,-3.1151,-3.119,-3.119,-3.119,-3.119,-3.1637,-3.2317,-3.2317,-3.2766,-3.3393,0.0,0.0,0.0,0.0,0.0,0.0,0.0,0.0,0.0,0.0,0.0,0.0,0.0,0.0,0.0,0.0,0.0,0.0,1.5503,1.0619,0.7376,0.6403,0.3738,0.2399,0.2691,0.2127,0.179,0.179,0.1507,0.1259,0.0989,0.1399,0.1439,0.1143,0.1884,0.1951,0.1681,0.2418,0.2686,0.3127,0.7832,0.9764,1.0297,0.0,0.0,0.0,0.0,0.0,0.0,0.0,0.2487,0.2154,0.1748,0.1412,0.1076,0.1076,-0.211,-0.5603,-0.5667,-0.8471,-1.1655,-1.232,-1.2504,-1.3253,-1.5956,-1.6186,-1.6231,-1.789,-1.8324,-1.8696,-1.9698,-1.9964,0.0,0.0,0.0,0.0,0.0,0.0,0.0,0.0,0.0,0.0,0.0,0.0,0.0,0.0,0.0,0.0,0.0,0.0,0.0,0.0,0.0,0.0,0.0,-2.8412,-2.9102,-3.0526,-3.0526,-3.0651,-3.0912,-3.0912,-3.0912,-3.0912,-3.0975,-3.1015,-3.1015,-3.1151,-3.119,-3.119,-3.119,-3.1674,-3.2317,-3.2317,-3.2766,-3.3393,0.0,0.0,0.0,0.0,0.0,0.0,0.0,0.0,0.0,0.0,0.0,0.0,0.0,0.0,0.0,0.0,0.0,0.0,2.0406,1.8196,1.47,0.9749,0.8944,0.6534,0.2169,0.2296,0.224,0.179,0.1736,0.1675,0.1728,0.1844,0.1898,0.1884,0.2353,0.2487,0.2418,0.2889,0.3025,0.3151,0.4613,0.7019,0.9618,0.0,0.0,0.0,0.0,0.0,0.0,0.0,0.0,0.0,0.4322,0.3166,0.1143,0.1412,0.0468,-0.0862,-0.2045,-0.5534,-0.9132,-1.035,-1.2478,-1.4458,-1.5311,-1.5397,-1.5982,-1.813,-1.8706,-1.9056,-1.9788,0.0,0.0,0.0,0.0,0.0,0.0,0.0,0.0,0.0,0.0,0.0,0.0,0.0,0.0,0.0,0.0,0.0,0.0,0.0,0.0,0.0,0.0,0.0,0.0,0.0,-2.9102,-3.0526,-3.0526,-3.0526,-3.0609,-3.0692,-3.0773,-3.079,-3.0871,-3.0952,-3.0952,-3.1015,-3.1112,-3.123,-3.1449,-3.186,-3.2317,-3.2568,-3.2957,-3.3393,0.0,0.0,0.0,0.0,0.0,0.0,0.0,0.0,0.0,0.0,2.2827,2.341,0.0,0.0,0.0,2.4238,2.3637,0.0,2.1171,2.0449,1.7643,1.2162,1.0595,0.739,0.2058,0.2465,0.2521,0.2183,0.2025,0.1973,0.1973,0.2162,0.2228,0.2221,0.2688,0.282,0.2753,0.3092,0.3226,0.3226,0.3226,0.4791,0.6913,0.0,0.0,0.0,0.0,0.0,0.0,0.0,0.0,0.0,0.4009,0.3109,0.1274,-0.0264,-0.1306,-0.2587,-0.5227,-0.8526,-1.1462,-1.2672,-1.3983,-1.4984,-1.4984,-1.5656,-1.6861,-1.9135,-1.9418,-1.9545,-2.0332,0.0,0.0,0.0,0.0,0.0,0.0,0.0,0.0,0.0,0.0,0.0,0.0,0.0,0.0,0.0,0.0,0.0,0.0,0.0,0.0,0.0,0.0,0.0,0.0,0.0,0.0,-3.0526,-3.0526,-3.0526,-3.051,-3.0651,-3.0692,-3.0609,-3.0773,-3.0871,-3.0912,-3.0975,-3.1072,-3.1134,-3.1545,-3.1967,-3.2351,-3.2666,-3.2988,-3.3286,0.0,0.0,1.9615,1.9615,0.0,0.0,0.0,0.0,0.0,2.299,2.3216,2.3508,0.0,0.0,0.0,2.4316,2.436,2.2981,1.9618,1.9456,1.7856,1.4133,0.9939,0.6124,0.2754,0.2676,0.2691,0.2691,0.2483,0.2266,0.2096,0.2473,0.2483,0.2287,0.2465,0.2599,0.2751,0.2596,0.28,0.3226,0.3226,0.3226,0.3226,0.3226,0.0,0.0,0.0,0.0,0.0,0.0,0.0,0.0,0.1882,0.1951,0.1468,-0.245,-0.5251,-0.7939,-1.176,-1.4497,-1.6441,-1.7379,-1.6469,-1.5369,-1.5369,-1.6682,-1.8484,-2.037,0.0,-2.0143,-2.1202,0.0,0.0,0.0,0.0,0.0,0.0,0.0,0.0,0.0,0.0,0.0,0.0,0.0,0.0,0.0,0.0,0.0,0.0,0.0,0.0,0.0,0.0,0.0,0.0,0.0,0.0,0.0,-3.0526,-3.0526,-3.051,-3.0651,-3.0651,-3.051,-3.0651,-3.0773,-3.0871,-3.0952,-3.0975,-3.1055,-3.1545,-3.1967,-3.2351,-3.2716,-3.2957,-3.3104,0.0,0.0,1.9692,1.9692,0.0,0.0,0.0,0.0,2.2787,2.3153,2.3776,2.4269,2.4447,2.4408,0.0,2.4381,2.4389,2.4056,2.3279,2.3285,2.1568,1.7674,1.1232,0.7348,0.6551,0.4031,0.2691,0.2691,0.2653,0.2683,0.277,0.2851,0.2943,0.2815,-0.1056,-0.0563,0.2808,-0.1116,-0.0439,0.3226,0.3226,0.3226,0.3226,0.3226,0.3226,0.0,0.0,0.0,0.0,0.0,0.0,0.0,0.2485,0.2353,0.2082,0.1395,-0.1292,-0.4543,-0.6875,-1.1156,-1.5389,-1.733,-1.8028,-1.8247,-1.8247,-1.8525,-1.8855,-1.8887,-1.994,-2.0957,0.0,0.0,0.0,0.0,0.0,0.0,0.0,0.0,0.0,0.0,0.0,0.0,0.0,0.0,0.0,0.0,0.0,0.0,0.0,0.0,0.0,0.0,0.0,0.0,-2.8412,-2.8412,-2.9102,0.0,-3.0526,-3.0526,-3.051,-3.0651,-3.0692,-3.0651,-3.0568,-3.0609,-3.0733,-3.0773,-3.0855,-3.1095,-3.1733,-3.2127,-3.2351,-3.2862,-3.3068,-3.3176,0.0,0.0,0.0,0.0,0.0,0.0,0.0,0.0,2.2954,2.3721,2.4221,2.45,2.45,2.4473,0.0,0.0,2.4448,2.4435,2.4403,2.4454,2.2779,1.8962,1.5147,1.1487,0.796,0.619,0.4428,0.2691,0.2691,0.276,0.2893,0.2997,0.3028,0.3023,0.038,0.0705,0.2871,-0.2246,-0.1477,0.3013,0.0575,0.1031,0.3226,0.3226,0.3226,0.3226,0.3226,0.0,0.0,0.0,0.0,0.0,0.0,0.0,0.2344,0.0459,-0.135,-0.3836,-0.8652,-1.2134,-1.5039,-1.7706,-1.9117,-1.9799,-1.9544,-1.9672,-1.9851,-1.9813,-2.0458,0.0,0.0,0.0,0.0,0.0,0.0,0.0,0.0,0.0,0.0,0.0,0.0,0.0,0.0,0.0,0.0,0.0,0.0,0.0,0.0,0.0,0.0,0.0,0.0,0.0,-2.8412,-2.8412,-2.9102,-3.0526,-3.0526,-3.0526,-3.0526,-3.0568,-3.0651,-3.0692,-3.0568,-3.0526,-3.0609,-3.0855,-3.0975,-3.1173,-3.1896,-3.2248,-3.2369,-3.2912,-3.2993,-3.2973,0.0,0.0,0.0,0.0,0.0,0.0,0.0,0.0,0.0,2.4331,2.45,2.45,2.45,2.45,2.45,0.0,0.0,0.0,2.4427,2.4473,2.3136,2.0069,1.9336,1.6178,1.013,0.8731,0.6634,0.3655,0.3,0.273,0.2805,0.2907,0.3065,0.3025,0.1344,0.1096,0.1497,-0.4036,-0.3423,0.0908,-0.2926,-0.168,0.2542,0.2542,0.2815,0.3226,0.3226,0.3226,0.3226,0.3226,0.0,0.0,0.0,0.0,0.2534,-0.0968,-0.2227,-0.3998,-1.097,-1.3876,-1.5587,-1.8472,-1.994,-2.0573,-2.0256,-2.0421,-2.0848,-2.1277,0.0,0.0,0.0,0.0,0.0,0.0,0.0,0.0,0.0,0.0,0.0,0.0,0.0,0.0,0.0,0.0,0.0,0.0,0.0,0.0,0.0,0.0,0.0,0.0,0.0,-2.6849,-2.8213,-2.8362,-2.9036,-3.0328,-3.046,-3.0526,-3.0526,-3.0551,-3.0609,-3.0651,-3.0568,-3.0526,-3.051,-3.0975,-3.119,-3.1269,-3.2002,-3.2318,-3.242,-3.2848,-3.2938,-3.2973,0.0,0.0,0.0,0.0,0.0,0.0,0.0,0.0,0.0,0.0,2.45,2.45,2.45,2.45,2.45,2.45,2.45,2.4513,2.45,0.0,0.0,2.3787,2.0694,1.8559,1.7573,1.1328,0.7842,0.7396,0.4237,0.2697,0.2713,0.2936,0.3065,0.2686,-0.6036,-0.7514,-0.3848,-1.1281,-1.1467,-0.6613,-0.5261,-0.284,-0.0197,-0.0197,0.1195,0.3226,0.3226,0.3226,0.3226,0.3226,0.3226,0.0,0.0,0.0,0.3088,0.2536,0.0065,-0.3149,-0.6174,-1.2028,-1.7741,-1.9799,-2.041,-2.0649,0.0,0.0,-2.0848,0.0,0.0,0.0,0.0,0.0,0.0,0.0,0.0,0.0,0.0,0.0,0.0,0.0,0.0,0.0,0.0,0.0,0.0,0.0,0.0,0.0,0.0,0.0,-2.622,-2.622,-2.622,0.0,-2.745,-2.8097,-2.8787,-2.9566,-3.0212,-3.0526,-3.051,-3.0814,-3.0773,-3.0526,-3.0526,-3.0526,-3.0526,-3.0895,-3.1112,-3.1269,-3.193,-3.2352,-3.2573,-3.2639,-3.3146,-3.389,0.0,0.0,0.0,0.0,0.0,0.0,0.0,0.0,0.0,0.0,0.0,2.4081,2.4464,2.4515,2.4532,2.45,2.45,2.45,2.45,2.45,2.45,2.45,2.2948,2.1098,1.905,1.5862,1.219,0.8087,0.6504,0.4662,0.2695,0.2932,0.3036,0.2882,-0.1507,-0.3845,-0.4731,-0.9622,-1.0384,-0.8342,-0.8786,-0.557,-0.059,-0.0657,0.0994,0.3362,0.3228,0.3226,0.3226,0.3226,0.3226,0.3226,0.3226,0.0,0.0,0.0,0.1188,-0.225,-0.7608,-1.3204,-1.8016,-1.9876,-2.041,-2.0485,-2.0544,-2.0633,-2.0673,0.0,0.0,0.0,0.0,0.0,0.0,0.0,0.0,0.0,0.0,0.0,0.0,0.0,0.0,0.0,0.0,0.0,0.0,0.0,0.0,0.0,0.0,-2.6468,-2.6415,-2.6415,-2.6274,0.0,-2.73,-2.8047,-2.8936,-3.0029,-3.0361,-3.0526,-3.051,-3.0651,-3.0651,-3.051,-3.0692,-3.0773,-3.0814,-3.1117,-3.1389,-3.1654,-3.2108,-3.2387,-3.2507,-3.2573,-3.3068,-3.3811,0.0,0.0,0.0,0.0,0.0,0.0,0.0,0.0,0.0,0.0,0.0,2.3497,2.3909,0.0,0.0,0.0,2.4393,2.45,2.45,2.45,2.45,2.45,2.45,2.3211,2.0445,1.9158,1.5535,0.9517,0.824,0.5929,0.2695,0.2932,0.2305,0.1007,-0.0123,-0.2434,-0.5665,-0.9577,-1.0872,-1.0502,-1.2462,-0.8551,-0.1561,-0.2242,0.0,0.3563,0.3362,0.3295,0.3295,0.3226,0.3226,0.3226,0.3226,0.3226,0.0,0.0,0.0,-0.2933,-0.915,-1.3402,-1.6686,-1.8948,-1.9645,-1.9889,0.0,0.0,0.0,0.0,0.0,0.0,0.0,0.0,0.0,0.0,0.0,0.0,0.0,0.0,0.0,0.0,0.0,0.0,0.0,0.0,0.0,0.0,0.0,0.0,-2.6674,-2.6555,-2.652,-2.652,-2.631,-2.6468,-2.7035,-2.7964,-2.9102,-3.0526,-3.0526,-3.0551,-3.0651,-3.0651,-3.0675,-3.0757,-3.0935,-3.1055,-3.1134,-3.1466,-3.1728,-3.193,-3.2267,-3.2422,-3.2474,-3.2753,-3.3265,-3.3987,0.0,0.0,0.0,0.0,0.0,0.0,0.0,0.0,0.0,0.0,0.0,2.2814,2.253,2.3087,2.3455,2.3473,2.4099,2.45,2.45,2.45,2.45,2.45,2.45,0.0,2.4227,1.9545,1.5858,1.3311,0.8603,0.5064,0.2695,0.2932,0.0408,-0.4499,-0.9162,-1.0061,-0.8583,-1.6119,-1.793,-1.5781,-1.5844,-1.1231,-0.4432,-0.6652,-0.2833,0.3758,0.3563,0.3498,0.3431,0.3295,0.3226,0.3226,0.3226,0.3226,0.2817,0.0,0.0,0.0,-0.8505,-1.0676,-1.3229,-1.6752,-1.7725,-1.8565,0.0,0.0,0.0,0.0,0.0,0.0,0.0,0.0,0.0,0.0,0.0,0.0,0.0,0.0,0.0,0.0,0.0,0.0,0.0,0.0,0.0,0.0,0.0,0.0,-2.6418,-2.6293,-2.6203,-2.6203,-2.622,-2.6236,-2.627,-2.7661,-2.9102,-3.0526,-3.0526,-3.0692,-3.0975,-3.0975,-3.1134,-3.1428,-3.1134,-3.1173,-3.1504,-3.1748,-3.1894,-3.193,-3.2267,-3.2473,-3.2661,-3.3248,-3.404,-3.4924,0.0,0.0,0.0,0.0,0.0,0.0,0.0,0.0,0.0,0.0,0.0,0.0,0.0,2.2653,2.2987,2.344,2.4137,2.4551,2.45,2.45,2.4517,2.4566,2.4534,2.4534,2.4566,2.1905,1.8958,1.5787,1.1665,0.8028,0.4868,0.3687,0.035,-0.4563,-0.4667,-0.8764,-1.5416,-1.3483,-1.4942,-1.8474,-1.7253,-1.3703,-0.9506,-1.2453,-0.834,-0.1045,0.0,0.0,0.3498,0.356,0.3424,0.2883,0.1195,0.1865,0.2479,-0.0991,-0.4074,-0.7003,-1.0109,-1.1517,-1.2707,-1.5184,-1.6686,-1.7798,-1.8626,0.0,0.0,0.0,0.0,0.0,0.0,0.0,0.0,0.0,0.0,0.0,0.0,0.0,0.0,0.0,0.0,0.0,0.0,0.0,0.0,0.0,0.0,0.0,-2.6825,-2.6674,-2.6555,-2.645,-2.6274,-2.6651,-2.7595,-2.8163,-2.9102,-3.0526,-3.0526,-3.0692,-3.1015,-3.1015,-3.1173,-3.1504,-3.1521,-3.1596,-3.1748,-3.1858,-3.202,-3.2232,-3.2354,-3.2422,-3.2579,-3.3266,-3.4022,-3.4886,0.0,0.0,0.0,0.0,0.0,2.2443,2.2221,2.2194,2.2214,2.2261,0.0,0.0,0.0,0.0,2.2384,2.3079,2.3581,2.3949,2.4155,2.4155,2.4283,2.4599,2.4549,2.4532,2.4566,2.2,1.9075,1.5843,1.1754,0.8099,0.4928,0.373,-0.0515,-0.694,-0.3472,-0.7602,-1.6839,-1.2832,-1.3593,-1.7526,-1.8069,-1.5206,-1.108,-1.4997,-1.12,0.0,0.0,0.0,0.0,0.4699,0.4823,0.4119,0.1453,0.0181,-0.0791,-0.3481,-0.5719,-0.795,-1.0552,-1.1257,-1.166,-1.3508,-1.484,-1.6088,-1.7232,0.0,0.0,0.0,0.0,0.0,0.0,0.0,0.0,0.0,0.0,0.0,0.0,0.0,0.0,0.0,0.0,0.0,0.0,0.0,0.0,0.0,0.0,0.0,-2.6956,-2.6791,-2.6607,-2.6468,-2.6274,-2.6783,-2.803,-2.8296,-2.8969,-3.0145,-3.0394,-3.0716,-3.1173,-3.1015,-3.1252,-3.1728,-3.1746,-3.1783,-3.1875,-3.1948,-3.2108,-3.2319,-3.2319,-3.2354,-3.2511,-3.3529,-3.4231,-3.4828,0.0,2.1982,2.2073,2.2265,2.202,2.1781,2.1797,2.1827,2.157,2.0893,0.0,0.0,0.0,0.0,0.0,2.2306,2.2384,2.2695,2.3404,2.3446,2.38,2.4528,2.4564,2.453,2.4517,1.9582,1.5928,1.3688,0.8587,0.4971,0.283,0.3102,-0.2318,-1.2039,-0.6755,-0.736,-1.256,-1.5059,-1.4782,-1.3147,-1.8432,-1.5705,-0.9077,-1.4419,0.0,0.0,-0.1361,0.1258,0.0,0.6268,0.0,0.0,0.0,0.0,-0.7067,-0.65,-0.7852,-0.9484,0.0,0.0,0.0,-1.1606,0.0,0.0,-1.7359,0.0,0.0,0.0,0.0,0.0,0.0,0.0,0.0,0.0,0.0,0.0,0.0,0.0,0.0,0.0,0.0,0.0,0.0,0.0,0.0,0.0,0.0,-2.6487,-2.6691,-2.6521,-2.6347,-2.622,-2.622,-2.6551,-2.7263,-2.8047,-2.8721,-2.9376,-3.0121,-3.0838,-3.1466,-3.1095,-3.1351,-3.2144,-3.1765,-3.1671,-3.18,-3.2001,-3.2144,-3.2179,-3.2179,-3.2267,-3.2581,-3.4126,-3.4688,-3.4916,2.184,2.1869,2.1899,2.2044,2.2015,2.1911,2.1811,2.202,2.1827,0.0,0.0,0.0,2.0392,2.091,2.1365,2.1516,2.2034,2.2391,2.2551,2.2416,2.2829,2.3895,2.3668,2.3897,2.4689,1.9745,1.6848,1.6202,0.9414,0.5896,0.5504,0.4075,-0.2069,-1.164,-0.6461,-0.92,-1.7511,-1.4762,-1.4243,-1.5359,-1.7318,-1.7744,0.0,0.0,0.0,0.0,0.0,-0.8462,0.0088,0.0,0.1265,0.3617,0.0,-0.54,-0.9012,-0.6901,-0.7852,-0.9484,-0.9484,0.0,0.0,0.0,0.0,0.0,-1.4315,-1.567,0.0,0.0,0.0,0.0,0.0,0.0,0.0,0.0,0.0,0.0,0.0,0.0,0.0,0.0,0.0,0.0,0.0,0.0,0.0,0.0,0.0,-2.6245,-2.6487,-2.6418,-2.626,-2.6007,-2.6132,-2.6478,-2.7092,-2.797,-2.8642,-2.919,-2.9929,-3.0593,-3.114,-3.1021,-3.1257,-3.1765,-3.1785,-3.1746,-3.1614,-3.1982,-3.2108,-3.2108,-3.2179,-3.2214,-3.2442,-3.409,-3.4688,-3.4916,2.1678,2.1724,2.1768,2.1882,2.1853,2.1764,2.1691,2.1781,2.1631,0.0,0.0,0.0,2.0289,2.0652,2.0879,2.0701,2.1079,2.1475,2.1787,2.1597,2.1932,2.2949,2.3092,2.344,2.4079,2.0081,1.729,1.582,0.9971,0.6431,0.507,0.4113,-0.1333,-1.019,-0.5959,-0.9362,-1.8034,-1.4203,-1.3382,-1.4945,-1.7822,0.0,0.0,-2.3951,-2.3743,0.0,0.0,0.0,-0.4587,-0.5811,-0.4146,0.0,0.0,0.0,-1.0212,0.0,-0.8527,-0.9484,-0.9484,-0.9676,-0.9862,-0.9862,0.0,0.0,-1.3817,-1.4869,-1.6266,0.0,0.0,0.0,0.0,0.0,0.0,0.0,0.0,0.0,0.0,0.0,0.0,0.0,0.0,0.0,0.0,0.0,0.0,0.0,-2.5872,-2.6175,-2.6383,-2.6418,-2.626,-2.5917,-2.6096,-2.6346,-2.6648,-2.769,-2.8359,-2.8649,-2.9597,-3.0368,-3.1021,-3.0925,-3.1201,-3.1728,-3.1802,-3.1783,-3.1651,-3.1873,-3.2001,-3.2108,-3.2144,-3.2232,-3.2494,-3.4108,-3.4688,-3.4916,0.0,2.1589,2.1603,2.1768,2.1631,2.1493,2.1446,2.1354,2.1182,0.0,2.0728,2.0579,2.0135,2.0273,2.0254,1.9884,1.9848,2.0181,2.1,2.0812,2.0991,2.1793,2.247,2.287,2.2905,2.0272,1.7197,1.3778,1.0191,0.6559,0.3089,0.3317,-0.0845,-0.83,-0.5697,-0.8914,-1.605,-1.3646,-1.281,-1.3543,-1.8929,-1.9624,0.0,0.0,-2.4445,-2.1972,-1.9561,-1.4999,-0.9942,-0.9288,-0.8799,0.0,0.0,0.0,0.0,0.0,-0.9548,-0.9612,-0.9612,-0.9926,-1.0301,-1.0301,0.0,0.0,-1.424,-1.4773,-1.5552,0.0,0.0,0.0,0.0,0.0,0.0,0.0,0.0,0.0,0.0,0.0,0.0,0.0,0.0,0.0,0.0,0.0,-2.495,-2.5406,-2.5835,-2.621,-2.6418,-2.6418,-2.626,-2.5881,-2.6043,-2.6168,-2.6132,-2.7301,-2.7945,-2.7987,-2.9091,-3.01,-3.0925,-3.0845,-3.1201,-3.1912,-3.1819,-3.18,-3.18,-3.18,-3.191,-3.2073,-3.2073,-3.2196,-3.2546,-3.4126,-3.4688,-3.4916,2.1356,2.1356,2.1419,2.1603,2.1603,2.1464,2.1134,2.1291,2.1214,2.0494,2.0407,2.0273,1.9984,1.9752,1.9406,1.8936,1.886,1.908,1.9591,1.9266,1.9582,2.0758,2.074,2.1015,2.1721,1.8956,1.5994,1.287,0.9503,0.6347,0.3421,0.1262,-0.2677,-0.7926,-0.7629,-1.0661,-1.5875,-1.3586,0.0,-1.6236,-1.741,0.0,-2.1148,-2.4729,-2.7308,-2.8936,-2.8356,-2.3165,-1.6111,-1.3018,-1.1256,-1.0783,0.0,0.0,0.0,-0.9734,0.0,0.0,0.0,0.0,0.0,0.0,0.0,0.0,-1.0746,-1.1169,-1.2127,0.0,0.0,0.0,0.0,0.0,0.0,0.0,0.0,0.0,0.0,0.0,0.0,0.0,0.0,0.0,0.0,0.0,-2.471,-2.4926,-2.5668,-2.6245,-2.6624,-2.6487,-2.6173,-2.568,-2.5844,-2.586,-2.5728,-2.6711,-2.7392,-2.7753,-2.8394,-2.9371,-3.0601,-3.0559,-3.1004,-3.1819,-3.18,-3.18,-3.18,-3.18,-3.1837,-3.1856,-3.2054,-3.2108,-3.2371,-3.4072,-3.4688,-3.4916,2.1309,2.1309,2.1325,2.1419,2.1388,2.1277,2.1071,2.1023,2.0877,2.046,2.0475,2.0323,1.9859,2.0053,1.9968,1.9372,1.9461,1.9482,1.9221,1.9224,1.9302,1.9503,2.0234,2.0848,2.1278,1.895,1.6121,1.2861,0.9762,0.6613,0.3414,0.0834,-0.1717,-0.4119,-0.6937,-0.9584,-1.1913,-1.2212,-1.3195,-1.4845,-1.802,0.0,-2.4235,-2.7207,-2.9371,-3.0798,-3.0792,-2.768,-2.3021,-1.9244,-1.6617,0.0,0.0,-1.4052,-1.08,0.0,-1.0238,-1.0548,0.0,0.0,0.0,-1.0428,0.0,0.0,0.0,-1.1403,-1.1989,0.0,0.0,0.0,0.0,0.0,0.0,0.0,0.0,0.0,0.0,0.0,0.0,0.0,0.0,0.0,0.0,0.0,-2.4791,-2.5362,-2.5815,-2.6175,-2.6401,-2.6401,-2.6173,-2.5605,-2.5696,-2.5733,-2.5749,-2.6351,-2.6945,-2.7547,-2.8008,-2.9027,-3.0518,-3.0518,-3.0965,-3.18,-3.18,-3.18,-3.18,-3.18,-3.18,-3.1837,-3.2001,-3.2108,-3.2371,-3.4072,-3.4651,-3.4824,2.1371,2.1356,2.1309,2.1309,2.1214,2.1135,2.1087,2.0827,2.0595,2.0527,2.073,2.0616,1.9958,2.0667,2.0934,2.0328,2.07,2.0539,1.9586,1.9962,1.9768,1.8754,2.0104,2.0882,2.0843,1.8894,1.6211,1.2831,1.0021,0.6802,0.3247,0.0325,-0.1058,-0.1174,-0.591,-0.8225,-0.8719,-1.0714,0.0,-1.4325,0.0,-2.2843,-2.4668,-2.8322,-2.9757,-2.9874,-3.0565,-2.9926,-2.8241,-2.4717,-2.1518,-1.89,-1.8363,-1.4952,0.0,0.0,0.0,0.0,0.0,0.0,0.0,0.0,0.0,-1.1094,0.0,0.0,0.0,-1.3635,0.0,0.0,0.0,0.0,0.0,0.0,0.0,0.0,0.0,0.0,0.0,0.0,0.0,0.0,0.0,0.0,-2.4815,-2.5888,-2.5872,-2.5944,-2.6139,-2.6191,-2.603,-2.5567,-2.553,-2.5621,-2.5787,-2.6011,-2.6518,-2.7406,-2.7767,-2.8785,-3.0351,-3.0477,-3.0925,-3.1671,-3.1746,-3.18,-3.18,-3.18,-3.18,-3.1837,-3.2001,-3.2108,-3.2371,-3.4036,-3.4559,-3.4693,2.1648,2.1464,2.1309,2.1309,2.1294,2.1246,2.1135,2.1055,2.0893,2.0561,2.102,2.1207,2.0667,2.1339,2.1678,2.1207,2.1796,0.0,2.0686,0.0,2.0822,1.952,1.968,1.971,1.9534,1.7445,1.486,1.1869,0.9309,0.6535,0.3345,-0.1758,-0.4006,-0.3884,-0.6629,-0.9146,-1.1287,-1.0147,-1.374,0.0,-2.2193,-2.0827,0.0,-2.4261,-2.6521,-2.6915,-2.9767,-2.9899,-2.8318,0.0,-2.2342,-1.8879,0.0,-1.391,-1.1809,-1.1115,0.0,0.0,0.0,0.0,0.0,0.0,-1.0364,0.0,0.0,0.0,-1.0161,-1.0332,0.0,0.0,0.0,0.0,0.0,0.0,0.0,0.0,0.0,0.0,0.0,0.0,0.0,0.0,0.0,0.0,0.0,-2.573,-2.5211,-2.5303,-2.6297,-2.5888,-2.5535,-2.5333,-2.5317,-2.5333,-2.5371,-2.5413,-2.6078,-2.7406,-2.7248,-2.8136,-2.9881,-3.0309,-3.0764,-3.1201,-3.1617,-3.18,-3.18,-3.18,-3.18,-3.18,-3.1875,-3.1948,-3.2138,-3.3813,-3.4425,-3.4634,2.1648,2.1603,2.1526,2.1526,2.1402,2.1277,2.1214,2.1055,2.087,2.0722,2.0926,2.0771,1.9879,0.0,0.0,0.0,0.0,2.2981,0.0,0.0,2.1105,1.9834,0.0,0.0,2.0266,1.5435,1.2615,1.1971,0.7461,0.3876,0.1259,-0.2794,-0.4461,-0.4137,-0.6582,0.0,-1.1952,0.0,-1.3095,0.0,0.0,0.0,0.0,-2.5791,-2.8638,-2.8801,-2.9766,-2.9507,-2.8461,0.0,-2.3232,0.0,0.0,0.0,0.0,0.0,0.0,0.0,0.0,0.0,0.0,0.0,0.0,0.0,-0.9676,0.0,-0.9612,0.0,0.0,0.0,0.0,0.0,0.0,0.0,0.0,0.0,0.0,0.0,0.0,0.0,0.0,0.0,0.0,0.0,0.0,0.0,0.0,-2.533,-2.6175,-2.5997,-2.5684,-2.5333,-2.5178,-2.5178,-2.5294,-2.5162,-2.5854,-2.7211,-2.7142,-2.8056,-2.9793,-3.0309,-3.0707,-3.1123,-3.1596,-3.18,-3.18,-3.18,-3.18,-3.18,-3.1819,-3.1875,-3.2085,-3.3775,-3.4332,-3.4501,2.1691,2.1678,2.1617,2.1587,2.145,2.131,2.1408,2.1129,2.0973,2.1046,2.1271,0.0,2.0284,2.2057,0.0,0.0,2.454,2.5009,0.0,0.0,2.2409,0.0,0.0,0.0,0.0,0.0,1.1054,1.1835,0.6133,0.2131,-0.0263,-0.318,-0.472,-0.5052,-0.677,-0.9718,-1.3266,0.0,-1.4053,-2.0239,-2.0695,-2.1177,-2.2094,-2.7066,-2.9647,-3.0501,-2.9637,-2.9061,-2.846,-2.713,-2.3746,0.0,-2.1744,0.0,0.0,0.0,0.0,0.0,-1.1966,0.0,0.0,0.0,0.0,0.0,0.0,0.0,0.0,0.0,0.0,0.0,0.0,0.0,0.0,-1.0047,0.0,0.0,0.0,0.0,0.0,0.0,0.0,0.0,0.0,0.0,0.0,0.0,-2.4697,0.0,-2.5872,-2.5924,-2.5705,-2.524,-2.51,-2.5045,-2.5217,-2.5084,-2.5622,-2.6799,-2.7004,-2.7874,-2.9343,-2.9999,-3.0559,-3.0965,-3.1411,-3.1671,-3.18,-3.18,-3.18,-3.18,-3.18,-3.1819,-3.2031,-3.3457,-3.4081,-3.4367,2.1882,2.1615,2.1386,2.1309,2.1325,2.1376,0.0,0.0,0.0,0.0,0.0,0.0,0.0,0.0,0.0,0.0,0.0,2.8191,2.6656,0.0,2.5565,0.0,0.0,2.0308,0.0,0.0,0.0,1.0962,0.6165,0.2395,-0.0263,-0.2859,-0.541,-0.7752,-0.7455,-1.0609,-1.6032,-1.4207,-1.8097,-2.5561,-2.6752,-2.8334,-2.9639,0.0,-2.737,-3.0433,-2.9175,0.0,0.0,-2.5115,-2.3663,0.0,0.0,0.0,0.0,0.0,0.0,0.0,0.0,0.0,0.0,-0.9813,0.0,0.0,0.0,0.0,-0.9017,0.0,0.0,0.0,0.0,0.0,-0.8829,-0.9646,-1.0268,0.0,0.0,0.0,0.0,0.0,0.0,0.0,0.0,0.0,0.0,0.0,-2.3525,0.0,-2.5368,-2.5465,-2.5368,-2.5005,-2.5005,-2.5005,-2.5005,-2.5005,-2.5329,-2.604,-2.6767,-2.7462,-2.8186,-2.9311,-3.0097,-3.0559,-3.0965,-3.1372,-3.18,-3.18,-3.18,-3.18,-3.18,-3.18,-3.1886,-3.2662,-3.3421,-3.4236,2.1797,2.2073,2.2192,2.173,2.1261,0.0,0.0,2.1719,0.0,0.0,0.0,0.0,0.0,2.562,2.6603,0.0,0.0,2.8558,2.7825,2.6038,0.0,0.0,0.0,2.0013,0.0,0.0,0.0,0.0,0.6169,0.1655,-0.2473,-0.3568,-0.6408,-1.0362,-0.827,-1.1871,0.0,0.0,0.0,0.0,0.0,-2.7913,-2.8501,0.0,0.0,-2.9698,-2.8933,-2.8333,0.0,-2.6785,-2.4997,-2.332,-2.3998,-2.2088,-1.984,-2.1482,-2.008,0.0,0.0,0.0,-1.4467,-1.2647,0.0,0.0,0.0,0.0,0.0,0.0,0.0,0.0,0.0,-0.8829,-0.9022,-0.9536,-1.0288,-1.0912,0.0,0.0,0.0,0.0,0.0,0.0,0.0,0.0,0.0,-2.2761,-2.386,-2.4697,0.0,-2.561,-2.5551,-2.4902,-2.4926,-2.5005,-2.5005,-2.5005,-2.5313,-2.6009,-2.6751,-2.7446,-2.8155,-2.9267,-3.0054,-3.0518,-3.0925,-3.1372,-3.18,-3.18,-3.18,-3.18,-3.18,-3.18,-3.1886,-3.2628,-3.3404,-3.4306,2.2417,2.2847,2.2978,0.0,0.0,0.0,0.0,0.0,0.0,0.0,2.4953,0.0,2.5443,0.0,2.7514,0.0,2.8596,2.9062,2.8415,2.6841,0.0,2.6999,2.3079,0.0,0.0,0.0,0.0,0.0,0.0,0.2499,-0.2213,-0.3374,-0.6213,-1.0279,-0.9262,-1.3397,-2.0926,-1.7647,-2.0976,0.0,0.0,-2.8503,0.0,0.0,-2.8742,0.0,0.0,-2.7921,-2.7511,-2.735,-2.6034,-2.4686,-2.6233,-2.4585,-2.2429,-2.4014,-2.2772,-2.0699,-1.9719,-1.8384,0.0,0.0,-1.3491,0.0,-1.0642,0.0,0.0,0.0,0.0,0.0,0.0,0.0,-0.9454,-1.0445,-1.0899,-1.1233,0.0,-1.2895,0.0,0.0,0.0,0.0,0.0,0.0,-2.0908,-2.2419,-2.3667,-2.4554,0.0,0.0,-2.5438,-2.4822,-2.4846,-2.4886,-2.5005,-2.4926,-2.5107,-2.5564,-2.6524,-2.7217,-2.7718,-2.8933,-2.975,-3.0251,-3.0707,-3.1123,-3.1542,-3.1709,-3.18,-3.18,-3.18,-3.18,-3.1852,-3.2334,-3.3179,-3.434,2.3687,2.3885,0.0,0.0,2.2905,0.0,0.0,0.0,2.4463,0.0,2.6066,2.701,2.6997,2.818,2.897,2.897,2.9794,0.0,2.8667,2.8415,0.0,0.0,2.6075,2.5052,2.5873,0.0,0.0,0.0,0.0,0.4721,0.0263,-0.2342,-0.499,-0.7726,-1.0392,0.0,-2.0992,-2.0992,-2.4597,-3.0304,-3.0305,-3.0235,-3.0002,-2.8664,0.0,-2.6604,-2.7254,-2.7437,-2.7262,-2.679,-2.664,-2.6606,-2.6674,-2.6691,-2.6691,-2.6691,-2.6641,-2.5785,-2.186,-2.069,-1.949,-1.5186,0.0,0.0,0.0,0.0,-1.2613,0.0,0.0,0.0,0.0,0.0,0.0,-1.2181,-1.1851,-1.1593,-1.2498,-1.364,0.0,0.0,0.0,0.0,0.0,-1.885,-2.0067,-2.2154,-2.301,-2.3746,0.0,0.0,0.0,-2.4782,-2.4686,-2.471,-2.4966,-2.471,-2.4686,-2.4798,-2.6092,-2.6792,-2.6942,-2.8292,-2.9227,-2.981,-3.0267,-3.0723,-3.1123,-3.1579,-3.18,-3.18,-3.18,-3.18,-3.18,-3.1886,-3.2835,-3.434,2.3918,2.4314,2.4689,0.0,2.4253,2.367,0.0,0.0,0.0,0.0,2.7812,2.8858,2.9489,2.9841,3.0021,3.0021,3.0241,0.0,0.0,0.0,0.0,2.9788,2.7288,2.5862,2.5842,1.9098,0.0,1.2805,0.0,0.0,0.0458,-0.2079,-0.4727,-0.7521,-1.0197,-1.4973,-2.0992,-2.0992,-2.4597,-3.0304,-3.026,-2.9396,0.0,0.0,-2.7448,-2.5844,-2.6896,-2.6985,-2.6656,-2.7113,-2.6965,-2.6572,-2.6572,-2.6623,-2.6691,-2.6623,-2.6002,-2.5276,-2.5151,-2.2996,-2.0473,-1.9117,-1.7386,-1.5568,0.0,0.0,0.0,0.0,0.0,0.0,0.0,0.0,0.0,-1.1267,-1.1413,-1.174,-1.2305,0.0,0.0,-1.3752,0.0,0.0,0.0,-1.8495,-1.9875,-2.1145,-2.2922,0.0,0.0,0.0,0.0,-2.458,-2.4605,-2.463,-2.471,-2.463,-2.463,-2.4661,-2.6034,-2.6733,-2.6795,-2.8186,-2.9059,-2.9512,-2.975,-3.0276,-3.0954,-3.1201,-3.1504,-3.18,-3.18,-3.18,-3.1938,-3.3076,-3.377,-3.4441,2.481,2.5155,0.0,2.5783,0.0,0.0,2.4697,0.0,0.0,2.7041,2.8355,0.0,2.9594,3.0081,3.0398,3.0398,3.0398,0.0,2.962,0.0,0.0,2.9495,2.8571,2.7866,2.7474,2.2716,0.0,1.6471,0.0,0.0,0.4165,-0.0901,-0.4084,-0.583,-0.9599,-1.474,-2.0557,-2.1336,-2.4838,-2.9761,-2.7993,0.0,0.0,-2.8816,-2.8127,-2.7146,-2.7759,-2.7245,-2.633,-2.6817,-2.6756,-2.6452,-2.6485,-2.6537,-2.6589,-2.6572,-2.6087,-2.5431,-2.4926,-2.3275,-2.136,-1.9989,-1.9384,-1.843,-1.5884,-1.5922,-1.6234,0.0,0.0,0.0,0.0,0.0,0.0,-1.1545,-1.1622,0.0,0.0,0.0,0.0,0.0,0.0,0.0,0.0,0.0,0.0,0.0,0.0,0.0,0.0,0.0,0.0,-2.4498,-2.4482,-2.4508,-2.4589,-2.4508,-2.4523,-2.458,-2.6103,-2.6761,-2.6676,-2.8353,-2.9106,-2.9196,-2.975,-3.0293,-3.0771,-3.1201,-3.1542,-3.18,-3.18,-3.1837,-3.2029,-3.3778,-3.4428,-3.4714,2.5895,2.601,0.0,0.0,0.0,0.0,0.0,2.6754,0.0,2.7041,0.0,2.9269,2.8802,2.9688,3.0336,3.0398,0.0,2.987,2.8821,2.9804,2.9908,2.8804,2.9754,3.0091,2.9615,2.7411,0.0,0.0,0.0,0.0,0.8286,0.0704,-0.3057,-0.3764,-0.8598,0.0,0.0,-2.1557,-2.4522,-2.7508,-2.4641,-2.5838,-2.9291,-2.9024,-2.9024,-2.9158,-2.8948,-2.7807,-2.6471,-2.6539,-2.6522,-2.647,-2.6468,-2.6485,-2.6485,-2.6485,-2.6485,-2.598,-2.35,-2.2761,-2.2124,-1.9927,-2.0968,-2.1643,-1.8154,-1.8795,-1.9471,-1.7526,-1.5632,0.0,0.0,0.0,0.0,-1.2634,0.0,0.0,0.0,0.0,0.0,0.0,0.0,0.0,0.0,0.0,0.0,0.0,0.0,0.0,0.0,0.0,0.0,0.0,-2.44,0.0,-2.4549,0.0,-2.4467,-2.458,-2.6272,-2.6918,-2.6645,-2.8592,-2.9273,-2.9028,-3.0038,-3.0502,-3.0625,-3.1389,-3.1746,-3.18,-3.18,-3.1893,-3.2193,-3.411,-3.4889,-3.5208,2.5994,0.0,0.0,0.0,0.0,2.7444,2.7725,2.8323,2.876,2.8759,2.9611,3.0171,3.0081,2.9971,3.0037,3.0367,3.0103,0.0,0.0,0.0,0.0,3.0086,3.0271,3.0132,2.9609,2.6177,2.2141,0.0,0.0,0.0,0.5439,0.197,-0.0913,-0.3307,-0.6421,0.0,-1.5512,-2.0424,0.0,-1.9272,-2.223,-2.3918,-2.4974,-2.7818,-2.9022,-2.9098,-2.837,-2.7987,-2.7843,-2.7939,-2.7617,-2.7099,-2.6436,-2.638,-2.6485,-2.6382,-2.6399,-2.6399,-2.5875,-2.4095,-2.2571,-2.3263,-2.2169,-2.0954,-2.1453,-2.0907,-2.0208,-1.9825,-1.8478,-1.7346,-1.7357,0.0,0.0,0.0,0.0,0.0,0.0,0.0,0.0,0.0,0.0,0.0,0.0,0.0,0.0,0.0,0.0,0.0,0.0,0.0,0.0,0.0,0.0,0.0,0.0,0.0,0.0,-2.4855,-2.6314,-2.702,-2.7063,-2.8545,-2.9287,-2.9361,-3.0038,-3.0526,-3.0834,-3.1106,-3.1449,-3.18,-3.18,-3.202,-3.251,-3.4182,-3.5301,-3.6152,0.0,0.0,0.0,0.0,0.0,0.0,0.0,2.9387,0.0,2.8933,2.9387,2.968,2.9431,2.9827,3.019,3.0379,3.0222,3.019,3.0398,3.0398,3.0381,3.0361,3.0383,0.0,2.9611,2.8069,2.5387,2.151,0.0,0.0,0.937,0.3613,0.0262,-0.1225,-0.5957,-0.9338,0.0,0.0,0.0,-1.6289,-1.6391,-1.7849,-2.0415,-2.4549,-2.6172,-2.6493,-2.8404,-2.9157,-2.9081,-2.8084,-2.754,-2.7157,-2.6436,-2.6291,-2.6345,-2.6258,-2.6293,-2.6154,-2.5389,-2.4287,-2.3363,-2.3335,-2.292,-2.2527,-2.2614,-2.2541,-2.211,-2.0691,-1.9826,-1.8778,-1.7147,-1.6567,0.0,0.0,0.0,0.0,0.0,0.0,0.0,0.0,0.0,0.0,0.0,0.0,0.0,0.0,0.0,0.0,0.0,0.0,0.0,0.0,0.0,0.0,0.0,0.0,0.0,-2.5214,-2.6913,-2.7632,-2.7474,-2.9241,-2.9935,-2.9805,-3.046,-3.0811,-3.101,-3.1334,-3.1674,-3.2055,-3.2109,-3.2369,-3.3009,-3.4839,-3.5824,-3.6444,0.0,2.6437,0.0,0.0,2.8052,0.0,2.9245,2.9985,3.0119,2.9039,2.9226,2.9317,2.8932,2.9707,3.0311,3.0398,3.0323,3.0311,3.0379,3.0398,3.0384,3.0328,3.0366,3.0195,2.9777,3.0067,2.8629,0.0,0.0,0.0,0.0,0.5941,0.0,0.0,0.0,0.0,0.0,0.0,-0.956,-1.1964,-1.055,-1.2112,-1.5772,-2.0326,-2.2053,-2.2517,-2.6068,-2.7951,-2.8497,-2.6774,-2.6746,-2.7315,-2.6802,-2.6419,-2.6239,-2.6367,-2.6295,-2.5921,-2.472,-2.4318,-2.4116,-2.3281,-2.3701,-2.4182,-2.3507,-2.3882,-2.3753,-2.1574,-2.0954,-2.0012,-1.7454,-1.74,0.0,0.0,0.0,0.0,0.0,0.0,0.0,0.0,0.0,0.0,0.0,0.0,0.0,0.0,0.0,0.0,0.0,0.0,0.0,0.0,0.0,0.0,-2.5205,0.0,-2.5726,0.0,-2.7498,-2.8168,-2.7899,-2.9895,-3.0625,-3.0335,-3.0948,-3.1257,-3.1295,-3.1634,-3.2001,-3.2318,-3.2351,-3.2838,-3.3677,-3.552,-3.639,-3.6897,0.0,0.0,0.0,0.0,0.0,0.0,0.0,3.003,3.0422,3.0244,3.0266,3.0273,3.0241,3.0004,3.0009,3.0367,3.007,3.0009,3.0367,3.0398,3.0402,3.0386,3.0402,3.0386,3.0326,2.9903,2.7666,0.0,0.0,0.0,0.0,0.0,0.0,0.0,0.0,0.0,0.0,-0.2323,-0.2763,-0.0538,-0.7289,-1.0266,-1.1118,-1.561,-1.733,-1.7379,-1.7809,-2.0626,-2.4016,-2.3203,-2.5232,-2.808,-2.803,-2.7195,-2.633,-2.6923,-2.6672,-2.6168,-2.6026,-2.5016,-2.4247,-2.5508,-2.4869,-2.4287,-2.5561,-2.4869,-2.3876,-2.3614,-2.2746,-2.1225,-1.8533,-1.9948,-2.0871,0.0,0.0,0.0,0.0,0.0,0.0,0.0,0.0,0.0,0.0,0.0,0.0,0.0,0.0,0.0,0.0,0.0,0.0,0.0,0.0,-2.4689,-2.4318,-2.5839,0.0,-2.6068,-2.759,-2.8323,-2.8379,-3.0055,-3.0845,-3.0925,-3.1504,-3.1746,-3.1763,-3.18,-3.2001,-3.2318,-3.2351,-3.3305,-3.4772,-3.5797,-3.6924,-3.8084,0.0,0.0,0.0,0.0,0.0,0.0,0.0,3.0351,3.0491,3.0471,3.0428,3.0402,3.041,3.0267,3.0222,3.0398,3.0248,3.0222,3.0398,3.0398,3.0398,3.0398,3.0366,3.0217,2.9933,2.9719,2.8232,0.0,0.0,0.0,0.0,0.0,0.0,0.0,0.0,0.4945,0.6816,0.3671,0.2067,0.1413,-0.1724,-0.4152,-0.6434,-1.0948,-1.2673,-1.3014,-1.5728,-1.7872,-1.9791,-2.2314,-2.5667,-2.8647,-2.7701,-2.7052,-2.6589,-2.6302,-2.6054,-2.5844,-2.5844,-2.5486,-2.5233,-2.5864,-2.5652,-2.5438,-2.6063,-2.5726,-2.5016,-2.4095,-2.2541,-2.105,-1.9961,-2.0052,-2.0243,0.0,0.0,0.0,0.0,0.0,0.0,0.0,0.0,0.0,0.0,0.0,0.0,0.0,0.0,0.0,0.0,0.0,0.0,-2.3578,0.0,-2.547,-2.5341,-2.6229,-2.6624,-2.6487,-2.7978,-2.8736,-2.8807,-3.048,-3.1312,-3.1504,-3.1709,-3.18,-3.18,-3.18,-3.202,-3.2403,-3.2648,-3.3635,-3.5073,-3.6184,-3.7331,-3.8418,2.8693,0.0,2.8951,0.0,2.9827,2.9998,3.053,3.0559,3.052,3.0501,3.046,3.0428,3.0402,3.041,3.0398,3.0398,3.0398,3.0398,3.0398,3.0398,3.0398,3.0398,3.0354,0.0,2.9808,2.9513,2.8733,2.7448,2.4384,0.0,0.0,0.0,0.0,0.0,1.1577,1.1223,1.1578,0.9106,0.6688,0.4394,0.251,0.0326,-0.2223,-0.6417,-0.8016,-0.8403,-1.157,-1.3577,-1.5239,-1.85,-2.3139,-2.7573,-2.7824,-2.6706,-2.5475,-2.6394,-2.6354,-2.6002,-2.6002,-2.5888,-2.5807,-2.5897,-2.597,-2.6043,-2.6096,-2.6096,-2.5689,-2.4206,-2.3079,-2.2181,-2.1503,-2.0855,-2.0555,0.0,0.0,0.0,0.0,0.0,0.0,0.0,-2.2466,-2.2515,-2.2773,0.0,0.0,0.0,0.0,0.0,0.0,0.0,0.0,0.0,0.0,0.0,0.0,0.0,-2.6691,-2.6708,-2.8247,-2.9011,-2.9079,-3.0721,-3.1614,-3.18,-3.18,-3.18,-3.1856,-3.1965,-3.2231,-3.2666,-3.3069,-3.4173,-3.5684,-3.6646,-3.7792,-3.8977,2.9404,2.9488,2.9717,3.0462,3.0588,3.0598,3.0598,3.0598,3.0588,3.052,3.0491,3.0471,3.0398,3.0402,3.0398,3.0398,3.0398,3.0398,3.0398,3.0398,3.0398,0.0,0.0,3.0366,3.0297,2.9314,2.879,2.878,0.0,0.0,2.1701,0.0,0.0,1.8915,1.7046,1.7254,1.8653,1.36,1.1391,1.0816,0.4333,0.1681,0.1296,-0.2055,-0.3282,-0.3282,-0.334,-0.6245,-1.0102,-1.0169,-1.6152,-2.4362,-2.8914,-2.6265,-2.2481,-2.7638,-2.8087,-2.6871,-2.6871,-2.6268,-2.5642,-2.5844,-2.577,-2.5642,-2.586,-2.5897,-2.554,-2.4166,-2.5109,-2.5416,-2.3108,-2.3169,-2.2995,-2.1376,0.0,0.0,0.0,0.0,0.0,0.0,-2.1575,-2.188,-2.3084,0.0,0.0,0.0,0.0,0.0,0.0,0.0,0.0,-2.4389,-2.4996,0.0,-2.5303,-2.6229,-2.6691,-2.6708,-2.8247,-2.9011,-2.9079,-3.0721,-3.1614,-3.18,-3.18,-3.1856,-3.193,-3.2266,-3.2699,-3.3225,-3.3552,-3.5043,-3.6991,-3.7149,-3.8378,-4.0004,3.0217,3.0248,3.0321,3.0559,3.0598,3.0598,3.0598,3.0598,3.0598,3.0569,3.053,3.0491,3.0471,3.0428,3.0394,0.0,3.0402,3.0398,0.0,3.0398,3.0398,3.0398,3.036,3.0313,3.0309,2.9274,2.8725,2.873,0.0,0.0,0.0,2.1761,2.1109,2.0845,1.902,1.8524,1.8902,1.6022,1.3529,1.1324,0.9242,0.7064,0.47,0.136,0.0131,-0.0131,-0.2401,-0.4134,-0.5842,-0.902,-0.9874,-1.1013,-1.8761,-2.3634,-2.6731,-2.7793,-2.7346,-2.6483,-2.6483,-2.5938,-2.5394,-2.547,-2.5562,-2.5637,-2.5696,-2.5807,-2.5791,-2.5341,-2.4721,-2.4071,-2.3298,-2.2324,-2.1486,-2.1028,0.0,0.0,0.0,0.0,0.0,0.0,0.0,-2.3216,0.0,-2.3435,0.0,0.0,0.0,0.0,0.0,0.0,0.0,0.0,-2.5205,0.0,-2.5795,-2.6401,-2.6691,-2.6708,-2.8284,-2.9666,-3.0782,-3.1336,-3.1634,-3.18,-3.202,-3.2179,-3.2283,-3.2751,-3.314,-3.3488,-3.4463,-3.575,-3.7175,-3.7984,-3.916,-4.0354,3.0598,3.0598,3.0598,3.0598,3.0598,3.0598,3.0598,3.0598,3.0598,3.0598,3.0559,3.053,3.053,3.0471,0.0,3.0439,3.0406,3.0402,3.0402,3.039,3.037,3.0326,3.032,3.0307,3.0221,0.0,0.0,2.9005,2.7568,2.6202,2.4915,2.4915,2.4567,2.3809,2.1945,2.0745,1.9999,1.8201,1.5818,1.3201,1.2032,1.0248,0.8054,0.4763,0.2761,0.1424,-0.0591,-0.2129,-0.364,-0.6515,-0.6707,-0.7027,-1.4463,-2.1431,-2.6732,-2.6203,-2.6633,-2.7214,-2.6883,-2.6253,-2.5623,-2.5454,-2.5448,-2.5524,-2.5696,-2.5807,-2.5807,-2.5519,-2.4658,-2.3697,-2.301,-2.1937,-2.1104,-2.0861,0.0,-2.1375,0.0,0.0,0.0,0.0,0.0,0.0,0.0,-2.3837,0.0,0.0,0.0,0.0,0.0,0.0,0.0,-2.4894,-2.5668,0.0,-2.6187,-2.6538,-2.6691,-2.6708,-2.8319,-2.9977,-3.1617,-3.1765,-3.1858,-3.202,-3.2335,-3.2601,-3.2818,-3.3265,-3.3618,-3.3998,-3.5284,-3.6444,-3.7521,-3.8575,-3.9658,-4.0653,3.0598,3.0598,0.0,0.0,3.0598,0.0,3.0598,3.0598,3.0598,3.0598,3.0598,3.0598,3.0598,3.053,3.051,3.0509,0.0,0.0,0.0,3.0406,3.0346,3.0219,3.035,0.0,3.0117,2.9763,2.9543,2.9458,2.8524,2.7816,2.7345,2.7345,2.7313,2.7169,2.5301,2.3523,2.1812,1.9976,1.8172,1.6255,1.3217,1.1941,1.145,0.8176,0.5011,0.2319,0.1872,-0.0262,-0.2882,-0.309,-0.6011,-1.0257,-1.4439,-1.9066,-2.3079,-2.3756,-2.6306,-2.8725,-2.7915,-2.7016,-2.6202,-2.5766,-2.5492,-2.541,-2.577,-2.5881,-2.5701,-2.5019,-2.4831,-2.4225,-2.2415,-2.203,-2.173,-2.0835,-2.1229,-2.1664,-2.1841,0.0,0.0,0.0,0.0,0.0,0.0,-2.3791,-2.4158,0.0,0.0,0.0,0.0,0.0,0.0,-2.5881,-2.631,-2.6485,-2.6485,-2.6607,-2.6742,-2.6911,-2.8492,-3.0101,-3.1654,-3.2073,-3.2283,-3.2369,-3.2731,-3.3094,-3.3479,-3.3827,-3.4248,-3.4774,-3.6035,-3.7156,-3.8119,-3.8981,-3.9984,-4.0894,0.0,0.0,3.0598,3.0598,3.0598,3.0598,3.0598,3.0598,3.0598,3.0598,3.0598,3.0598,3.0598,3.0588,3.0588,3.0579,3.0519,3.0439,3.0398,3.0451,3.0462,3.0426,3.0405,3.0375,3.0322,2.98,2.932,2.8879,2.8654,2.8301,2.7826,2.7826,2.7482,2.6741,2.4928,2.3707,2.2916,2.107,1.9408,1.7932,1.7168,1.62,1.4869,1.1585,0.9866,0.8499,0.3519,0.1232,0.0131,-0.2335,-0.3913,-0.4979,-0.6056,-1.1891,-1.965,-2.6585,-2.8755,-2.8866,-2.8661,-2.7477,-2.6286,-2.6168,-2.5701,-2.5371,-2.5621,-2.577,-2.5844,-2.5663,-2.5189,-2.4443,-2.3299,-2.2491,-2.173,-2.0835,-2.1229,-2.1793,-2.2296,0.0,0.0,0.0,-2.4135,-2.4302,-2.4313,-2.4492,-2.4451,0.0,0.0,0.0,0.0,0.0,-2.4957,-2.6096,-2.638,-2.6485,-2.6485,-2.6607,-2.7352,-2.8715,-2.9903,-3.1046,-3.2144,-3.2486,-3.2777,-3.3003,-3.333,-3.37,-3.4037,-3.4603,-3.5316,-3.6213,-3.7276,-3.8332,-3.9373,-4.0134,-4.0616,-4.0892,3.0593,3.0606,3.0607,3.0606,3.0597,3.0598,3.0598,3.0598,3.0598,3.0598,3.0598,3.0598,3.0598,3.0598,3.0597,3.0602,3.053,3.0472,3.0458,3.0477,3.0472,3.0404,3.0425,3.039,3.0279,2.9971,2.9542,2.8963,2.9026,2.8791,2.8327,2.8103,2.7734,2.7234,2.6048,2.483,2.3605,2.2644,2.1164,1.9433,1.8787,1.8063,1.7125,1.4648,1.2814,1.101,0.7439,0.5203,0.3639,0.187,0.0261,-0.1297,-0.3414,-0.8482,-1.4991,-2.1986,-2.6623,-2.9417,-2.9004,-2.7915,-2.6764,-2.6133,-2.5783,-2.5637,-2.5807,-2.5897,-2.5791,-2.5481,-2.5019,-2.4281,-2.301,-2.2324,-2.173,-2.0835,-2.1313,-2.1955,-2.236,-2.3143,0.0,-2.4193,-2.4416,-2.4539,-2.4589,-2.4726,-2.4686,-2.442,0.0,0.0,-2.4831,-2.4934,-2.5313,-2.6043,-2.6345,-2.6485,-2.6485,-2.7165,-2.8266,-2.9774,-3.074,-3.1741,-3.2727,-3.3069,-3.3356,-3.3613,-3.3981,-3.4311,-3.4642,-3.4993,-3.5778,-3.6886,-3.7852,-3.8837,-3.9782,-4.0565,-4.0871,-4.0894,3.0602,3.0613,3.0613,3.0591,3.0602,3.0623,3.0623,3.0623,3.0623,3.0623,3.0623,3.0623,3.0623,3.0623,3.0618,3.0626,3.0552,3.0521,3.0516,3.0526,3.0479,3.0355,3.0435,3.0384,3.0155,3.0221,2.9971,2.9439,2.955,2.9287,2.8695,2.8294,2.7986,2.7809,2.74,2.6114,2.4241,2.4241,2.2961,2.0893,1.9661,1.9034,1.8694,1.7522,1.5155,1.2513,1.2003,0.9887,0.7239,0.6745,0.458,0.1314,-0.2766,-0.6643,-1.0481,-1.4484,-2.1604,-2.8153,-2.8108,-2.7859,-2.7307,-2.6075,-2.5791,-2.5897,-2.6096,-2.6059,-2.5791,-2.515,-2.4886,-2.4296,-2.2715,-2.2324,-2.1951,-2.1188,-2.1623,-2.2175,-2.2406,0.0,-2.4024,-2.4166,-2.4374,-2.4539,-2.4589,-2.4726,-2.4862,-2.4966,-2.5045,0.0,0.0,-2.5701,-2.5864,-2.6063,-2.6399,-2.6606,-2.6691,-2.8058,-2.9267,-3.0302,-3.138,-3.2373,-3.3299,-3.3652,-3.3975,-3.427,-3.4574,-3.4869,-3.5215,-3.5405,-3.6164,-3.7306,-3.8213,-3.9081,-3.9916,-4.0597,-4.0812,-4.0733,3.0591,3.0659,3.0661,3.062,3.0639,3.0677,3.0686,3.0686,3.0686,3.0686,3.0686,3.0686,3.0686,3.0686,3.0686,3.0677,3.0667,3.0643,3.0586,3.0642,3.0636,3.0556,3.051,3.047,3.0442,3.0393,3.0271,3.006,3.0075,2.9604,2.8615,2.8537,2.7923,2.6889,2.6825,2.6212,2.5271,2.5271,2.4203,2.2435,2.2226,2.1415,2.0309,2.0124,1.8937,1.7025,1.4285,1.2175,1.0308,0.7552,0.5227,0.3151,0.1242,-0.3403,-0.8538,-1.0471,-1.4727,-1.9613,-2.3323,-2.5925,-2.7402,-2.6646,-2.6023,-2.5696,-2.5897,-2.6043,-2.6132,-2.599,-2.5954,-2.5594,-2.4578,-2.3739,-2.3069,-2.2698,-2.2331,-2.2314,0.0,0.0,-2.4024,-2.4166,-2.4374,-2.4539,-2.4589,-2.4726,-2.4862,-2.4966,-2.5269,-2.5556,-2.5941,-2.621,-2.6488,-2.6842,-2.6824,-2.7066,-2.7607,-2.9101,-3.0013,-3.0302,-3.226,-3.3351,-3.3643,-3.42,-3.464,-3.495,-3.5057,-3.5307,-3.5682,-3.6476,-3.7352,-3.8252,-3.9037,-3.9786,-4.0476,-4.0607,-4.0403,-4.0079,3.0639,3.0681,3.07,3.0706,3.0696,3.07,3.0696,3.0691,3.0711,3.0711,3.0711,3.0711,3.0711,3.0711,3.072,3.0758,3.0742,3.074,3.0703,3.0678,3.0651,3.0653,3.0587,3.0521,3.0451,3.0344,3.0235,3.009,2.987,2.9474,2.8916,2.8427,2.7913,2.7326,2.7117,2.6691,2.6139,2.6139,2.5405,2.4194,2.3408,2.26,2.1755,2.0988,1.9762,1.8278,1.6752,1.5351,1.3925,1.2419,1.0154,0.7541,0.5084,0.108,-0.3173,-0.5645,-1.3,-2.0709,-2.2318,-2.5122,-2.7429,-2.6771,-2.6007,-2.5508,-2.5807,-2.5897,-2.5934,-2.6168,-2.6132,-2.5775,-2.4964,-2.4443,-2.3796,-2.2669,-2.2698,0.0,0.0,-2.3363,-2.4009,-2.4369,-2.4549,-2.4831,-2.523,-2.5307,-2.5422,-2.5572,-2.5762,-2.5999,-2.6264,-2.6488,-2.6808,-2.7198,-2.7147,-2.7657,-2.8811,-3.0024,-3.1075,-3.193,-3.3352,-3.4162,-3.4364,-3.4718,-3.5028,-3.5315,-3.5412,-3.5793,-3.6384,-3.6804,-3.7753,-3.8966,-3.9266,-3.982,-4.0436,-4.0323,-4.0095,-3.9908,3.0691,3.0728,3.0757,3.0799,3.0777,3.0755,3.0752,3.0746,3.0742,3.0742,3.0739,3.0758,3.0758,3.0726,3.074,3.0795,3.0797,3.0761,3.0726,3.0615,3.0609,3.0697,3.0649,3.0558,3.0449,3.0321,3.0177,3.0022,2.9666,2.9401,2.9165,2.8352,2.7958,2.7865,2.7461,2.7055,2.6691,2.6691,2.628,2.5545,2.4358,2.3716,2.3298,2.2121,2.0783,1.951,1.951,1.8348,1.6877,1.6877,1.4716,1.148,0.8615,0.5206,0.1621,-0.1255,-1.0757,-2.0424,-2.0751,-2.3526,-2.6417,-2.6749,-2.6219,-2.5652,-2.5807,-2.5733,-2.577,-2.6132,-2.6096,-2.5791,-2.5227,-2.4964,-2.4362,-2.3069,0.0,0.0,0.0,-2.3565,-2.4271,-2.4704,-2.4879,-2.5153,-2.5742,-2.5779,-2.5888,-2.6087,-2.6229,-2.6402,-2.659,-2.6808,-2.7117,-2.7552,-2.7577,-2.8284,-2.9849,-3.0784,-3.195,-3.3308,-3.4177,-3.4735,-3.4959,-3.513,-3.5331,-3.5562,-3.5877,-3.6348,-3.696,-3.7336,-3.824,-3.9416,-3.9456,-3.9719,-4.0001,-3.9929,-3.9813,-3.9771,3.07,3.0797,3.0877,3.0818,3.0859,3.0894,3.0897,3.0898,3.0898,3.0898,3.0898,3.0898,3.0898,3.0836,3.0788,3.0806,3.0746,3.0643,3.0536,3.0444,3.0506,3.0682,3.0697,3.0661,3.0588,3.0449,3.0297,3.0075,2.9931,2.9607,2.9107,2.8537,2.8121,2.7897,2.7352,2.6956,2.6691,2.6691,2.647,2.6016,2.5545,2.5319,2.5243,2.4847,2.3785,2.2465,2.2465,2.0673,1.8348,1.8348,1.6165,1.3203,1.1607,0.7665,0.3365,0.1814,-0.4539,-1.188,-1.5978,-1.9745,-2.3302,-2.669,-2.7009,-2.6337,-2.5775,-2.5749,-2.5934,-2.6168,-2.6184,-2.6168,-2.6132,-2.5373,-2.4925,-2.5335,0.0,0.0,-2.4823,-2.4974,-2.5052,-2.5153,-2.5253,-2.5481,-2.5779,-2.5779,-2.5888,-2.6087,-2.6488,-2.6791,-2.6872,-2.7289,-2.773,-2.8129,-2.8264,-2.896,-3.0323,-3.1277,-3.2254,-3.3308,-3.4356,-3.4943,-3.5085,-3.5346,-3.5557,-3.5728,-3.6541,-3.6936,-3.7112,-3.8665,-3.9336,-3.9453,-3.9865,-3.9698,-3.9223,-3.951,-3.9528,-3.9436,3.0786,3.084,3.0891,3.0877,3.0873,3.0909,3.0891,3.0825,3.0782,3.0825,3.0794,3.0788,3.0771,3.0742,3.0732,3.0732,3.072,3.0682,3.0623,3.0515,3.043,3.0335,3.0332,3.0325,3.0285,3.0248,3.0136,2.9981,2.9622,2.9303,2.8986,2.8494,2.826,2.8139,2.7747,2.7547,2.7426,2.7166,2.6842,2.647,2.6315,2.5944,2.5503,2.5368,2.4281,2.2849,2.3094,2.1763,1.9762,1.9103,1.7889,1.6046,1.2605,0.876,0.4659,0.0,-0.3472,-0.6793,-1.1299,-1.7233,-2.2994,-2.6695,-2.7098,-2.6404,-2.5742,-2.5749,-2.597,-2.6168,-2.622,-2.622,-2.622,-2.5901,-2.554,-2.5189,0.0,-2.4894,-2.4592,-2.4768,-2.5098,-2.5519,-2.5631,-2.5888,-2.6487,-2.6521,-2.664,-2.6842,-2.7055,-2.7198,-2.7276,-2.7666,-2.8362,-2.9366,-2.9632,-3.029,-3.1376,-3.2408,-3.345,-3.4489,-3.5055,-3.5328,-3.5341,-3.5542,-3.5646,-3.574,-3.6618,-3.7265,-3.7752,-3.8638,-3.9227,-3.9566,-3.9335,-3.8965,-3.8644,-3.9062,-3.9085,-3.9031,3.0801,3.0837,3.0864,3.0838,3.0836,3.0833,3.0801,3.0728,3.07,3.0728,3.0726,3.0691,3.0701,3.0672,3.0667,3.0667,3.0664,3.0646,3.0587,3.0447,3.0297,3.0132,3.0119,3.0112,3.0109,3.0066,2.9996,2.9888,2.9551,2.9282,2.9138,2.8704,2.8494,2.8555,2.8236,2.8029,2.7869,2.7624,2.7276,2.6875,2.6758,2.6367,2.5872,2.5726,2.4839,2.3694,2.411,2.2992,2.1293,2.0786,1.9685,1.7977,1.488,1.124,0.6874,0.0261,-0.1657,-0.286,-0.8497,-1.5071,-2.1274,-2.4974,-2.6602,-2.7157,-2.6421,-2.625,-2.6265,-2.6418,-2.6329,-2.622,-2.622,-2.622,-2.599,-2.5319,-2.5503,-2.5519,-2.491,-2.5098,-2.5513,-2.5957,-2.603,-2.6279,-2.6942,-2.7007,-2.7105,-2.739,-2.7483,-2.7617,-2.7806,-2.8093,-2.8873,-3.0226,-3.0758,-3.1562,-3.2637,-3.3384,-3.4257,-3.5296,-3.5492,-3.5582,-3.556,-3.5658,-3.5801,-3.6059,-3.6954,-3.7674,-3.8229,-3.8785,-3.9214,-3.9443,-3.8813,-3.8517,-3.8456,-3.8761,-3.897,-3.9226,3.0801,3.0801,3.0774,3.072,3.0711,3.0672,3.0607,3.0594,3.0607,3.0607,3.067,3.0706,3.0706,3.0646,3.0593,3.0593,3.0593,3.051,3.0306,3.0171,3.0138,3.0198,3.0198,3.0177,3.0109,2.9965,2.9888,2.9888,2.9774,2.9701,2.9701,2.9156,2.8986,2.9086,2.8699,2.8278,2.7908,2.7966,2.7718,2.725,2.6875,2.6691,2.6657,2.6245,2.5835,2.5577,2.5944,2.4713,2.2966,2.3744,2.1563,1.8565,1.8951,1.5571,1.0187,0.3644,0.1681,0.0,-0.7841,-1.3252,-1.7574,-2.12,-2.5513,-2.8685,-2.7878,-2.7286,-2.6916,-2.6982,-2.659,-2.622,-2.622,-2.622,-2.622,-2.622,-2.622,-2.622,-2.622,-2.622,-2.6291,-2.6485,-2.6485,-2.6623,-2.6975,-2.7007,-2.7184,-2.7672,-2.776,-2.8017,-2.8466,-2.8565,-2.9219,-3.058,-3.1523,-3.2688,-3.4115,-3.4115,-3.4578,-3.5507,-3.5505,-3.557,-3.5699,-3.5716,-3.6072,-3.6764,-3.7679,-3.8209,-3.8455,-3.9331,-3.9462,-3.9026,-3.8493,-3.8425,-3.8687,-3.8629,-3.9252,-4.0141,3.0866,3.0823,3.0799,3.0771,3.0728,3.0687,3.0667,3.0586,3.0543,3.0599,3.0537,3.051,3.0546,3.0548,3.0501,3.0414,3.0392,3.0278,3.0041,3.0066,3.008,2.9988,2.9988,2.9931,2.9823,2.9773,2.9774,2.9774,2.9719,2.9701,2.9701,2.9551,2.9474,2.9492,2.9089,2.8874,2.8764,2.8183,2.789,2.7759,2.7307,2.6957,2.6691,2.659,2.628,2.5944,2.6052,2.5512,2.4571,2.3846,2.2644,2.0765,1.6569,1.3548,1.0187,0.3644,0.1681,0.0704,-0.3969,-1.0844,-1.7574,-2.12,-2.517,-2.8143,-2.7895,-2.6882,-2.6198,-2.6992,-2.6539,-2.6043,-2.6168,-2.622,-2.622,-2.622,-2.622,-2.622,-2.622,-2.6222,-2.6329,-2.6485,-2.6554,-2.6759,-2.7227,-2.7289,-2.7487,-2.7936,-2.8102,-2.8376,-2.8847,-2.9547,-3.0557,-3.1896,-3.2924,-3.3993,-3.5058,-3.5132,-3.5259,-3.5495,-3.5696,-3.5757,-3.5722,-3.6182,-3.6464,-3.6639,-3.781,-3.8256,-3.823,-3.8734,-3.867,-3.8196,-3.7666,-3.7651,-3.7947,-3.8338,-3.8898,-3.9521,3.0845,3.0823,3.0796,3.0765,3.0728,3.0682,3.0661,3.0576,3.0501,3.0558,3.0462,3.0417,3.0417,3.0428,3.0375,3.0234,3.0222,3.0144,2.9996,3.0052,3.0037,2.9905,2.9888,2.9857,2.9773,2.9773,2.9719,2.9569,2.9569,2.9569,2.9569,2.9569,2.9626,2.9683,2.9474,2.9297,2.9135,2.8651,2.8363,2.8182,2.7747,2.7439,2.7189,2.7021,2.6691,2.635,2.635,2.6087,2.5619,2.4958,2.3677,2.1643,1.7163,1.47,1.2158,0.5575,0.3641,0.2633,-0.1926,-0.8517,-1.5013,-1.897,-2.4422,-2.878,-2.864,-2.7745,-2.7039,-2.7325,-2.6836,-2.6314,-2.6203,-2.6382,-2.6452,-2.6239,-2.6382,-2.6435,-2.6239,-2.6329,-2.6486,-2.664,-2.6808,-2.7068,-2.753,-2.7589,-2.7794,-2.8255,-2.856,-2.9003,-2.9644,-3.0395,-3.152,-3.3054,-3.3769,-3.461,-3.5609,-3.5626,-3.5645,-3.5657,-3.5777,-3.5751,-3.5642,-3.629,-3.6608,-3.6708,-3.7839,-3.8265,-3.8192,-3.8297,-3.7987,-3.7488,-3.7255,-3.7309,-3.7519,-3.8004,-3.8471,-3.8905,3.0801,3.0801,3.0774,3.0724,3.0691,3.0672,3.0607,3.0552,3.051,3.0492,3.0451,3.0375,3.0318,3.0311,3.0248,3.0109,3.008,3.0066,3.0066,3.008,3.0022,2.9905,2.9905,2.9905,2.9888,2.9891,2.9735,2.9433,2.9433,2.9433,2.9433,2.9433,2.9531,2.9701,2.9755,2.957,2.9172,2.9243,2.9061,2.8633,2.8216,2.804,2.7931,2.7522,2.712,2.6742,2.6725,2.6436,2.6175,2.647,2.4544,2.1678,1.9879,1.8065,1.532,0.8598,0.6622,0.5196,-0.1388,-0.6521,-1.1084,-1.558,-2.3209,-2.9628,-2.9723,-2.9268,-2.8654,-2.7959,-2.74,-2.6888,-2.6382,-2.6708,-2.6839,-2.6364,-2.6674,-2.6824,-2.6329,-2.6503,-2.6742,-2.6905,-2.7161,-2.75,-2.7897,-2.7982,-2.8174,-2.8626,-2.9185,-2.9887,-3.0713,-3.125,-3.2306,-3.3964,-3.4236,-3.4817,-3.5766,-3.573,-3.5761,-3.5877,-3.574,-3.5639,-3.5601,-3.6188,-3.6653,-3.7028,-3.7863,-3.822,-3.8204,-3.7907,-3.7434,-3.6898,-3.7025,-3.7191,-3.7369,-3.7642,-3.7905,-3.823,3.0801,3.0801,3.0799,3.0774,3.0732,3.0672,3.0607,3.0579,3.0535,3.0428,3.0451,3.0442,3.0394,3.0375,3.0304,3.0118,2.9907,2.979,2.979,2.9888,2.9937,2.9888,3.0011,3.0011,2.9905,2.9808,2.9719,2.9626,2.9626,2.9626,2.9626,2.9626,2.9645,2.9701,2.972,2.9701,2.9626,2.9341,2.9184,2.9105,2.8718,2.8327,2.7986,2.7911,2.7577,2.7137,2.6808,2.6436,2.6068,2.5835,2.4757,2.322,2.1324,1.9733,1.6935,0.8945,0.6622,0.5196,-0.1388,-0.6521,-1.1084,-1.558,-2.0854,-2.5855,-2.9308,-2.8876,-2.7923,-2.8505,-2.7915,-2.7243,-2.7098,-2.7178,-2.7147,-2.6875,-2.6923,-2.6956,-2.6842,-2.7004,-2.7147,-2.7192,-2.7457,-2.7783,-2.8166,-2.8558,-2.8868,-2.9144,-2.9934,-3.064,-3.1132,-3.2596,-3.367,-3.4224,-3.503,-3.5507,-3.5639,-3.5671,-3.5701,-3.5732,-3.5496,-3.5673,-3.6219,-3.6672,-3.7197,-3.7779,-3.8172,-3.8049,-3.7506,-3.7248,-3.694,-3.6627,-3.6443,-3.6886,-3.7692,-3.7346,-3.7575,-3.806,3.1504,3.1396,3.1246,3.0817,3.0706,3.065,3.0645,3.0586,3.0535,3.0501,3.0472,3.0409,3.0316,3.0297,3.0254,3.0123,2.9872,2.9754,2.979,2.9754,2.9754,2.9754,2.9855,2.9855,2.9717,2.9701,2.9645,2.955,2.955,2.955,2.955,2.955,2.9607,2.9701,2.9701,2.9719,2.9737,2.957,2.9514,2.9551,2.9147,2.8876,2.8649,2.8164,2.7855,2.7547,2.6939,2.6573,2.6315,2.5908,2.511,2.3887,2.1867,2.0233,1.7769,1.0968,0.7798,0.5505,0.0521,-0.3755,-0.8365,-1.504,-1.8481,-2.1988,-2.8548,-2.9249,-2.8557,-2.8723,-2.8308,-2.7791,-2.7361,-2.7482,-2.7495,-2.7053,-2.7164,-2.721,-2.7038,-2.7276,-2.7474,-2.7517,-2.7829,-2.8192,-2.859,-2.9007,-2.9437,-2.9934,-3.0639,-3.1466,-3.2435,-3.359,-3.4453,-3.4942,-3.547,-3.572,-3.5655,-3.5597,-3.5696,-3.5994,-3.5817,-3.5875,-3.6194,-3.7002,-3.7389,-3.739,-3.7802,-3.7542,-3.6865,-3.6863,-3.658,-3.6152,-3.6572,-3.6727,-3.6725,-3.6864,-3.7096,-3.7322,3.2423,3.224,3.1977,3.1256,3.0963,3.0847,3.089,3.0688,3.0527,3.0568,3.0482,3.0359,3.0241,3.0196,3.0188,3.0138,2.9965,2.9869,2.9888,2.9736,2.9626,2.9607,2.9645,2.9626,2.9531,2.9626,2.9607,2.9433,2.9433,2.9453,2.9453,2.9412,2.9511,2.9701,2.9664,2.9664,2.9701,2.9773,2.9823,2.9855,2.9532,2.942,2.9363,2.8524,2.8156,2.7995,2.7296,2.692,2.6757,2.6421,2.5681,2.4465,2.2046,2.0481,1.8503,1.3093,0.9175,0.588,0.257,-0.0724,-0.5182,-1.3507,-1.6128,-1.8827,-2.6961,-2.9266,-2.9514,-2.8905,-2.8688,-2.8376,-2.7619,-2.7816,-2.7855,-2.7213,-2.7452,-2.7584,-2.7181,-2.7517,-2.784,-2.7886,-2.8291,-2.8669,-2.9003,-2.9442,-2.9999,-3.0733,-3.1428,-3.2434,-3.3834,-3.4425,-3.5022,-3.5658,-3.5685,-3.5683,-3.5626,-3.5572,-3.579,-3.6232,-3.6426,-3.6404,-3.626,-3.7184,-3.7344,-3.6854,-3.7148,-3.6956,-3.6396,-3.6548,-3.63,-3.5904,-3.6756,-3.6578,-3.5842,-3.6369,-3.6507,-3.6445,3.3075,3.3048,3.3002,3.2885,3.2225,3.1717,3.165,3.1053,3.0552,3.0439,3.0462,3.0462,3.0379,3.0273,3.0215,3.0266,3.0138,3.0015,2.9905,2.982,2.9735,2.9607,2.955,2.955,2.9588,2.9607,2.9607,2.9569,2.9626,2.9664,2.9645,2.9472,2.9511,2.9683,2.9531,2.9531,2.9701,2.9773,2.9808,2.9806,2.9822,2.9588,2.9221,2.9098,2.8838,2.8512,2.8395,2.7897,2.729,2.726,2.6847,2.5853,2.2723,2.1575,2.0127,1.3462,0.9175,0.588,0.257,-0.0724,-0.4463,-0.9636,-1.3811,-1.8048,-2.3191,-2.7137,-2.9662,-2.9495,-2.923,-2.8845,-2.8264,-2.8264,-2.8165,-2.76,-2.7939,-2.8121,-2.7683,-2.8192,-2.8573,-2.835,-2.8766,-2.9123,-2.9166,-2.9988,-3.0697,-3.1096,-3.2632,-3.3776,-3.4279,-3.5146,-3.5613,-3.56,-3.5677,-3.5597,-3.5357,-3.5892,-3.6099,-3.5962,-3.7178,-3.7678,-3.7538,-3.7058,-3.7076,-3.7435,-3.6742,-3.644,-3.6375,-3.5956,-3.6114,-3.6581,-3.6032,-3.6131,-3.6523,-3.6039,-3.5782,-3.5694,3.3976,3.3846,3.3654,3.3161,3.2735,3.2454,3.2464,3.2144,3.1873,3.186,3.1838,3.1835,3.1795,3.1782,3.177,3.1802,3.1692,3.1585,3.1518,3.1428,3.1075,3.0414,3.0377,3.0114,2.9509,2.9511,2.955,2.955,2.9645,2.9701,2.9701,2.9607,2.955,2.9531,2.955,2.955,2.955,2.9682,2.9774,2.9808,2.9823,2.9734,2.9551,2.9301,2.9163,2.9029,2.8521,2.8225,2.796,2.7243,2.7165,2.6865,2.3935,2.2467,2.101,1.6969,1.2711,0.8615,0.5325,0.2063,-0.2005,-0.843,-1.3362,-1.7895,-2.246,-2.6765,-2.9787,-2.9626,-2.9434,-2.9075,-2.8466,-2.8547,-2.8567,-2.8103,-2.8384,-2.8607,-2.8406,-2.8722,-2.8924,-2.8795,-2.9104,-2.9541,-3.0092,-3.0677,-3.1521,-3.2716,-3.3705,-3.4497,-3.5088,-3.5582,-3.5813,-3.5702,-3.5632,-3.5503,-3.5361,-3.5911,-3.6153,-3.6093,-3.7081,-3.7429,-3.7234,-3.7247,-3.7005,-3.6539,-3.5917,-3.5664,-3.5679,-3.5509,-3.5689,-3.6158,-3.6088,-3.6137,-3.607,-3.5574,-3.5409,-3.5383]}]]